Wetterdaten: Dienstag, 07.06.2016
Datum Zeit Temp. A. Feuchte A. Luftdruck Regen Wind Richtung Richtung Sonnenschein ET UV Solar Taupunkt Windchill Windben Empfang
07.06.2016 00:00 13,3 C 93 % 1018,9 hPa 0,0 l/m 0,1 km/h (0 Bft) NO 51 0 min 0,000 mm 0,0 UV-I 0 W/m 12,2 C 13,3 C 1,6 km/h (1 Bft) 100,00 %
07.06.2016 00:02 13,4 C 94 % 1018,9 hPa 0,0 l/m 2,1 km/h (1 Bft) NO 51 0 min 0,000 mm 0,0 UV-I 0 W/m 12,5 C 13,4 C 3,2 km/h (1 Bft) 100,00 %
07.06.2016 00:03 13,4 C 93 % 1018,9 hPa 0,0 l/m 2,5 km/h (1 Bft) NO 51 0 min 0,000 mm 0,0 UV-I 0 W/m 12,3 C 13,4 C 3,2 km/h (1 Bft) 100,00 %
07.06.2016 00:04 13,4 C 93 % 1018,9 hPa 0,0 l/m 2,5 km/h (1 Bft) NO 51 0 min 0,000 mm 0,0 UV-I 0 W/m 12,3 C 13,4 C 3,2 km/h (1 Bft) 100,00 %
07.06.2016 00:05 13,4 C 93 % 1018,9 hPa 0,0 l/m 3,0 km/h (1 Bft) NO 51 0 min 0,000 mm 0,0 UV-I 0 W/m 12,3 C 13,4 C 3,2 km/h (1 Bft) 100,00 %
07.06.2016 00:06 13,3 C 93 % 1018,9 hPa 0,0 l/m 1,9 km/h (1 Bft) NO 51 0 min 0,000 mm 0,0 UV-I 0 W/m 12,2 C 13,3 C 3,2 km/h (1 Bft) 100,00 %
07.06.2016 00:07 13,3 C 93 % 1018,9 hPa 0,0 l/m 1,5 km/h (1 Bft) NO 51 0 min 0,000 mm 0,0 UV-I 0 W/m 12,2 C 13,3 C 3,2 km/h (1 Bft) 100,00 %
07.06.2016 00:08 13,3 C 93 % 1018,9 hPa 0,0 l/m 1,1 km/h (1 Bft) O-NO 63 0 min 0,000 mm 0,0 UV-I 0 W/m 12,2 C 13,3 C 1,6 km/h (1 Bft) 100,00 %
07.06.2016 00:09 13,2 C 93 % 1018,9 hPa 0,0 l/m 1,8 km/h (1 Bft) O-SO 123 0 min 0,000 mm 0,0 UV-I 0 W/m 12,1 C 13,2 C 3,2 km/h (1 Bft) 100,00 %
07.06.2016 00:10 13,2 C 93 % 1019,0 hPa 0,0 l/m 2,1 km/h (1 Bft) SO 131 0 min 0,000 mm 0,0 UV-I 0 W/m 12,1 C 13,2 C 3,2 km/h (1 Bft) 100,00 %
07.06.2016 00:11 13,3 C 94 % 1019,0 hPa 0,0 l/m 2,4 km/h (1 Bft) O-SO 119 0 min 0,000 mm 0,0 UV-I 0 W/m 12,4 C 13,3 C 4,8 km/h (1 Bft) 100,00 %
07.06.2016 00:12 13,3 C 94 % 1019,0 hPa 0,0 l/m 1,3 km/h (1 Bft) O-SO 119 0 min 0,000 mm 0,0 UV-I 0 W/m 12,4 C 13,3 C 1,6 km/h (1 Bft) 100,00 %
07.06.2016 00:13 13,3 C 93 % 1019,0 hPa 0,0 l/m 1,5 km/h (1 Bft) O-SO 117 0 min 0,000 mm 0,0 UV-I 0 W/m 12,2 C 13,3 C 3,2 km/h (1 Bft) 100,00 %
07.06.2016 00:14 13,3 C 93 % 1019,0 hPa 0,0 l/m 2,5 km/h (1 Bft) O-SO 112 0 min 0,000 mm 0,0 UV-I 0 W/m 12,2 C 13,3 C 4,8 km/h (1 Bft) 100,00 %
07.06.2016 00:15 13,3 C 94 % 1019,0 hPa 0,0 l/m 3,0 km/h (1 Bft) O-SO 112 0 min 0,000 mm 0,0 UV-I 0 W/m 12,4 C 13,3 C 3,2 km/h (1 Bft) 100,00 %
07.06.2016 00:16 13,4 C 94 % 1019,0 hPa 0,0 l/m 1,9 km/h (1 Bft) O-SO 112 0 min 0,000 mm 0,0 UV-I 0 W/m 12,5 C 13,4 C 3,2 km/h (1 Bft) 100,00 %
07.06.2016 00:17 13,4 C 94 % 1019,0 hPa 0,0 l/m 1,0 km/h (0 Bft) O-SO 112 0 min 0,000 mm 0,0 UV-I 0 W/m 12,5 C 13,4 C 1,6 km/h (1 Bft) 100,00 %
07.06.2016 00:18 13,5 C 93 % 1019,0 hPa 0,0 l/m 1,1 km/h (1 Bft) O-SO 112 0 min 0,000 mm 0,0 UV-I 0 W/m 12,4 C 13,5 C 1,6 km/h (1 Bft) 100,00 %
07.06.2016 00:19 13,5 C 93 % 1019,1 hPa 0,0 l/m 0,5 km/h (0 Bft) O-SO 112 0 min 0,000 mm 0,0 UV-I 0 W/m 12,4 C 13,5 C 1,6 km/h (1 Bft) 100,00 %
07.06.2016 00:20 13,5 C 93 % 1019,1 hPa 0,0 l/m 0,0 km/h (0 Bft) O-SO 112 0 min 0,000 mm 0,0 UV-I 0 W/m 12,4 C 13,5 C 0,0 km/h (0 Bft) 100,00 %
07.06.2016 00:21 13,6 C 93 % 1019,1 hPa 0,0 l/m 0,0 km/h (0 Bft) O-SO 112 0 min 0,000 mm 0,0 UV-I 0 W/m 12,5 C 13,6 C 0,0 km/h (0 Bft) 95,65 %
07.06.2016 00:22 13,5 C 93 % 1019,0 hPa 0,0 l/m 0,0 km/h (0 Bft) O-SO 112 0 min 0,000 mm 0,0 UV-I 0 W/m 12,4 C 13,5 C 0,0 km/h (0 Bft) 100,00 %
07.06.2016 00:23 13,4 C 92 % 1019,0 hPa 0,0 l/m 0,0 km/h (0 Bft) O-SO 112 0 min 0,000 mm 0,0 UV-I 0 W/m 12,1 C 13,4 C 0,0 km/h (0 Bft) 100,00 %
07.06.2016 00:24 13,4 C 92 % 1019,0 hPa 0,0 l/m 0,3 km/h (0 Bft) O-SO 112 0 min 0,000 mm 0,0 UV-I 0 W/m 12,1 C 13,4 C 1,6 km/h (1 Bft) 100,00 %
07.06.2016 00:25 13,3 C 93 % 1019,0 hPa 0,0 l/m 1,3 km/h (1 Bft) O-SO 112 0 min 0,000 mm 0,0 UV-I 0 W/m 12,2 C 13,3 C 1,6 km/h (1 Bft) 100,00 %
07.06.2016 00:26 13,3 C 93 % 1019,0 hPa 0,0 l/m 0,3 km/h (0 Bft) O-SO 112 0 min 0,000 mm 0,0 UV-I 0 W/m 12,2 C 13,3 C 1,6 km/h (1 Bft) 95,83 %
07.06.2016 00:27 13,3 C 93 % 1019,1 hPa 0,0 l/m 0,0 km/h (0 Bft) O-SO 112 0 min 0,000 mm 0,0 UV-I 0 W/m 12,2 C 13,3 C 0,0 km/h (0 Bft) 100,00 %
07.06.2016 00:28 13,2 C 93 % 1019,1 hPa 0,0 l/m 0,4 km/h (0 Bft) O-SO 112 0 min 0,000 mm 0,0 UV-I 0 W/m 12,1 C 13,2 C 1,6 km/h (1 Bft) 100,00 %
07.06.2016 00:29 13,2 C 93 % 1019,1 hPa 0,0 l/m 0,2 km/h (0 Bft) O-SO 112 0 min 0,000 mm 0,0 UV-I 0 W/m 12,1 C 13,2 C 1,6 km/h (1 Bft) 95,83 %
07.06.2016 00:30 13,2 C 93 % 1019,0 hPa 0,0 l/m 0,0 km/h (0 Bft) O-SO 112 0 min 0,000 mm 0,0 UV-I 0 W/m 12,1 C 13,2 C 0,0 km/h (0 Bft) 100,00 %
07.06.2016 00:31 13,2 C 93 % 1019,0 hPa 0,0 l/m 0,7 km/h (0 Bft) O-SO 112 0 min 0,000 mm 0,0 UV-I 0 W/m 12,1 C 13,2 C 1,6 km/h (1 Bft) 95,83 %
07.06.2016 00:32 13,1 C 93 % 1019,0 hPa 0,0 l/m 1,9 km/h (1 Bft) O-SO 112 0 min 0,000 mm 0,0 UV-I 0 W/m 12,0 C 13,1 C 3,2 km/h (1 Bft) 95,65 %
07.06.2016 00:33 13,1 C 93 % 1019,0 hPa 0,0 l/m 1,9 km/h (1 Bft) O-SO 112 0 min 0,000 mm 0,0 UV-I 0 W/m 12,0 C 13,1 C 3,2 km/h (1 Bft) 92,59 %
07.06.2016 00:34 13,1 C 93 % 1019,0 hPa 0,0 l/m 2,3 km/h (1 Bft) O-SO 112 0 min 0,000 mm 0,0 UV-I 0 W/m 12,0 C 13,1 C 3,2 km/h (1 Bft) 100,00 %
07.06.2016 00:35 13,1 C 93 % 1019,0 hPa 0,0 l/m 2,0 km/h (1 Bft) O-SO 112 0 min 0,000 mm 0,0 UV-I 0 W/m 12,0 C 13,1 C 3,2 km/h (1 Bft) 100,00 %
07.06.2016 00:36 13,1 C 93 % 1019,0 hPa 0,0 l/m 3,0 km/h (1 Bft) O-SO 112 0 min 0,000 mm 0,0 UV-I 0 W/m 12,0 C 13,1 C 3,2 km/h (1 Bft) 96,15 %
07.06.2016 00:37 13,0 C 93 % 1019,0 hPa 0,0 l/m 3,1 km/h (1 Bft) O-SO 112 0 min 0,000 mm 0,0 UV-I 0 W/m 11,9 C 13,0 C 4,8 km/h (1 Bft) 95,83 %
07.06.2016 00:38 13,1 C 94 % 1019,0 hPa 0,0 l/m 3,2 km/h (1 Bft) O-SO 112 0 min 0,000 mm 0,0 UV-I 0 W/m 12,2 C 13,1 C 4,8 km/h (1 Bft) 95,65 %
07.06.2016 00:39 13,1 C 94 % 1019,0 hPa 0,0 l/m 2,1 km/h (1 Bft) O-SO 112 0 min 0,000 mm 0,0 UV-I 0 W/m 12,2 C 13,1 C 3,2 km/h (1 Bft) 95,83 %
07.06.2016 00:40 13,1 C 94 % 1019,0 hPa 0,0 l/m 0,9 km/h (0 Bft) O-SO 112 0 min 0,000 mm 0,0 UV-I 0 W/m 12,2 C 13,1 C 1,6 km/h (1 Bft) 100,00 %
07.06.2016 00:41 13,1 C 94 % 1019,0 hPa 0,0 l/m 1,0 km/h (0 Bft) O-SO 112 0 min 0,000 mm 0,0 UV-I 0 W/m 12,2 C 13,1 C 1,6 km/h (1 Bft) 95,83 %
07.06.2016 00:42 13,1 C 94 % 1019,0 hPa 0,0 l/m 1,5 km/h (1 Bft) O-SO 112 0 min 0,000 mm 0,0 UV-I 0 W/m 12,2 C 13,1 C 1,6 km/h (1 Bft) 100,00 %
07.06.2016 00:43 13,1 C 94 % 1019,0 hPa 0,0 l/m 0,8 km/h (0 Bft) O-SO 112 0 min 0,000 mm 0,0 UV-I 0 W/m 12,2 C 13,1 C 1,6 km/h (1 Bft) 96,30 %
07.06.2016 00:44 13,0 C 93 % 1019,0 hPa 0,0 l/m 1,1 km/h (1 Bft) O-SO 112 0 min 0,000 mm 0,0 UV-I 0 W/m 11,9 C 13,0 C 1,6 km/h (1 Bft) 95,65 %
07.06.2016 00:45 13,0 C 93 % 1019,0 hPa 0,0 l/m 0,6 km/h (0 Bft) O-SO 112 0 min 0,000 mm 0,0 UV-I 0 W/m 11,9 C 13,0 C 1,6 km/h (1 Bft) 100,00 %
07.06.2016 00:46 13,0 C 93 % 1019,0 hPa 0,0 l/m 0,8 km/h (0 Bft) O-SO 112 0 min 0,000 mm 0,0 UV-I 0 W/m 11,9 C 13,0 C 1,6 km/h (1 Bft) 93,33 %
07.06.2016 00:47 13,0 C 93 % 1019,0 hPa 0,0 l/m 0,7 km/h (0 Bft) O-SO 112 0 min 0,000 mm 0,0 UV-I 0 W/m 11,9 C 13,0 C 1,6 km/h (1 Bft) 100,00 %
07.06.2016 00:48 12,9 C 93 % 1019,0 hPa 0,0 l/m 0,2 km/h (0 Bft) O-SO 112 0 min 0,000 mm 0,0 UV-I 0 W/m 11,8 C 12,9 C 1,6 km/h (1 Bft) 96,15 %
07.06.2016 00:49 12,9 C 93 % 1019,0 hPa 0,0 l/m 0,0 km/h (0 Bft) O-SO 112 0 min 0,000 mm 0,0 UV-I 0 W/m 11,8 C 12,9 C 0,0 km/h (0 Bft) 100,00 %
07.06.2016 00:50 12,9 C 93 % 1019,0 hPa 0,0 l/m 0,0 km/h (0 Bft) O-SO 112 0 min 0,000 mm 0,0 UV-I 0 W/m 11,8 C 12,9 C 0,0 km/h (0 Bft) 95,83 %
07.06.2016 00:51 12,9 C 94 % 1019,0 hPa 0,0 l/m 0,0 km/h (0 Bft) O-SO 112 0 min 0,000 mm 0,0 UV-I 0 W/m 12,0 C 12,9 C 0,0 km/h (0 Bft) 100,00 %
07.06.2016 00:52 12,9 C 94 % 1019,0 hPa 0,0 l/m 0,0 km/h (0 Bft) O-SO 112 0 min 0,000 mm 0,0 UV-I 0 W/m 12,0 C 12,9 C 0,0 km/h (0 Bft) 95,83 %
07.06.2016 00:53 12,9 C 93 % 1019,0 hPa 0,0 l/m 0,0 km/h (0 Bft) O-SO 112 0 min 0,000 mm 0,0 UV-I 0 W/m 11,8 C 12,9 C 0,0 km/h (0 Bft) 96,15 %
07.06.2016 00:54 12,9 C 94 % 1019,0 hPa 0,0 l/m 0,1 km/h (0 Bft) O-SO 112 0 min 0,000 mm 0,0 UV-I 0 W/m 12,0 C 12,9 C 1,6 km/h (1 Bft) 100,00 %
07.06.2016 00:55 12,9 C 94 % 1019,0 hPa 0,0 l/m 0,3 km/h (0 Bft) O-SO 112 0 min 0,000 mm 0,0 UV-I 0 W/m 12,0 C 12,9 C 1,6 km/h (1 Bft) 95,65 %
07.06.2016 00:56 12,9 C 94 % 1019,0 hPa 0,0 l/m 0,0 km/h (0 Bft) O-SO 112 0 min 0,000 mm 0,0 UV-I 0 W/m 12,0 C 12,9 C 0,0 km/h (0 Bft) 100,00 %
07.06.2016 00:57 13,0 C 94 % 1019,0 hPa 0,0 l/m 0,1 km/h (0 Bft) O-SO 112 0 min 0,000 mm 0,0 UV-I 0 W/m 12,1 C 13,0 C 1,6 km/h (1 Bft) 96,15 %
07.06.2016 00:58 13,1 C 94 % 1019,0 hPa 0,0 l/m 0,1 km/h (0 Bft) O-SO 112 0 min 0,000 mm 0,0 UV-I 0 W/m 12,2 C 13,1 C 1,6 km/h (1 Bft) 95,83 %
07.06.2016 00:59 13,1 C 94 % 1019,0 hPa 0,0 l/m 0,8 km/h (0 Bft) O-SO 112 0 min 0,000 mm 0,0 UV-I 0 W/m 12,2 C 13,1 C 1,6 km/h (1 Bft) 100,00 %
07.06.2016 01:00 13,1 C 94 % 1019,0 hPa 0,0 l/m 0,1 km/h (0 Bft) O-SO 112 0 min 0,000 mm 0,0 UV-I 0 W/m 12,2 C 13,1 C 1,6 km/h (1 Bft) 95,83 %
07.06.2016 01:02 13,1 C 94 % 1019,0 hPa 0,0 l/m 0,0 km/h (0 Bft) O-SO 112 0 min 0,000 mm 0,0 UV-I 0 W/m 12,2 C 13,1 C 0,0 km/h (0 Bft) 98,00 %
07.06.2016 01:03 13,2 C 94 % 1019,0 hPa 0,0 l/m 0,0 km/h (0 Bft) O-SO 112 0 min 0,000 mm 0,0 UV-I 0 W/m 12,3 C 13,2 C 0,0 km/h (0 Bft) 96,15 %
07.06.2016 01:04 13,2 C 94 % 1019,1 hPa 0,0 l/m 0,0 km/h (0 Bft) O-SO 112 0 min 0,000 mm 0,0 UV-I 0 W/m 12,3 C 13,2 C 0,0 km/h (0 Bft) 95,83 %
07.06.2016 01:05 13,1 C 94 % 1019,0 hPa 0,0 l/m 0,2 km/h (0 Bft) O-SO 112 0 min 0,000 mm 0,0 UV-I 0 W/m 12,2 C 13,1 C 1,6 km/h (1 Bft) 100,00 %
07.06.2016 01:06 13,1 C 93 % 1019,0 hPa 0,0 l/m 1,5 km/h (1 Bft) O-SO 112 0 min 0,000 mm 0,0 UV-I 0 W/m 12,0 C 13,1 C 3,2 km/h (1 Bft) 100,00 %
07.06.2016 01:07 13,1 C 93 % 1019,0 hPa 0,0 l/m 1,8 km/h (1 Bft) O-SO 112 0 min 0,000 mm 0,0 UV-I 0 W/m 12,0 C 13,1 C 3,2 km/h (1 Bft) 100,00 %
07.06.2016 01:08 13,1 C 93 % 1019,0 hPa 0,0 l/m 2,0 km/h (1 Bft) O-SO 112 0 min 0,000 mm 0,0 UV-I 0 W/m 12,0 C 13,1 C 3,2 km/h (1 Bft) 100,00 %
07.06.2016 01:09 13,1 C 93 % 1019,0 hPa 0,0 l/m 2,0 km/h (1 Bft) O-SO 112 0 min 0,000 mm 0,0 UV-I 0 W/m 12,0 C 13,1 C 3,2 km/h (1 Bft) 100,00 %
07.06.2016 01:10 13,1 C 94 % 1019,1 hPa 0,0 l/m 1,3 km/h (1 Bft) O-SO 112 0 min 0,000 mm 0,0 UV-I 0 W/m 12,2 C 13,1 C 1,6 km/h (1 Bft) 95,65 %
07.06.2016 01:11 13,2 C 94 % 1019,0 hPa 0,0 l/m 1,4 km/h (1 Bft) O-SO 112 0 min 0,000 mm 0,0 UV-I 0 W/m 12,3 C 13,2 C 1,6 km/h (1 Bft) 100,00 %
07.06.2016 01:12 13,2 C 94 % 1019,0 hPa 0,0 l/m 1,7 km/h (1 Bft) O-SO 112 0 min 0,000 mm 0,0 UV-I 0 W/m 12,3 C 13,2 C 3,2 km/h (1 Bft) 100,00 %
07.06.2016 01:13 13,2 C 94 % 1019,0 hPa 0,0 l/m 0,9 km/h (0 Bft) O-SO 112 0 min 0,000 mm 0,0 UV-I 0 W/m 12,3 C 13,2 C 1,6 km/h (1 Bft) 96,30 %
07.06.2016 01:14 13,2 C 94 % 1019,0 hPa 0,0 l/m 0,0 km/h (0 Bft) O-SO 112 0 min 0,000 mm 0,0 UV-I 0 W/m 12,3 C 13,2 C 0,0 km/h (0 Bft) 100,00 %
07.06.2016 01:15 13,2 C 94 % 1019,0 hPa 0,0 l/m 0,0 km/h (0 Bft) O-SO 112 0 min 0,000 mm 0,0 UV-I 0 W/m 12,3 C 13,2 C 0,0 km/h (0 Bft) 100,00 %
07.06.2016 01:16 13,2 C 94 % 1019,0 hPa 0,0 l/m 0,0 km/h (0 Bft) O-SO 112 0 min 0,000 mm 0,0 UV-I 0 W/m 12,3 C 13,2 C 0,0 km/h (0 Bft) 92,31 %
07.06.2016 01:17 13,2 C 94 % 1019,0 hPa 0,0 l/m 0,0 km/h (0 Bft) O-SO 112 0 min 0,000 mm 0,0 UV-I 0 W/m 12,3 C 13,2 C 0,0 km/h (0 Bft) 100,00 %
07.06.2016 01:18 13,2 C 93 % 1019,0 hPa 0,0 l/m 0,1 km/h (0 Bft) O-SO 112 0 min 0,000 mm 0,0 UV-I 0 W/m 12,1 C 13,2 C 1,6 km/h (1 Bft) 100,00 %
07.06.2016 01:19 13,1 C 93 % 1019,0 hPa 0,0 l/m 0,6 km/h (0 Bft) O-SO 112 0 min 0,000 mm 0,0 UV-I 0 W/m 12,0 C 13,1 C 1,6 km/h (1 Bft) 100,00 %
07.06.2016 01:20 13,1 C 93 % 1019,1 hPa 0,0 l/m 0,2 km/h (0 Bft) O-SO 112 0 min 0,000 mm 0,0 UV-I 0 W/m 12,0 C 13,1 C 1,6 km/h (1 Bft) 100,00 %
07.06.2016 01:21 13,1 C 93 % 1019,1 hPa 0,0 l/m 0,0 km/h (0 Bft) O-SO 112 0 min 0,000 mm 0,0 UV-I 0 W/m 12,0 C 13,1 C 0,0 km/h (0 Bft) 100,00 %
07.06.2016 01:22 13,1 C 93 % 1019,1 hPa 0,0 l/m 0,0 km/h (0 Bft) O-SO 112 0 min 0,000 mm 0,0 UV-I 0 W/m 12,0 C 13,1 C 0,0 km/h (0 Bft) 100,00 %
07.06.2016 01:23 13,0 C 93 % 1019,1 hPa 0,0 l/m 0,2 km/h (0 Bft) O-SO 112 0 min 0,000 mm 0,0 UV-I 0 W/m 11,9 C 13,0 C 1,6 km/h (1 Bft) 100,00 %
07.06.2016 01:24 13,0 C 94 % 1019,1 hPa 0,0 l/m 0,0 km/h (0 Bft) O-SO 112 0 min 0,000 mm 0,0 UV-I 0 W/m 12,1 C 13,0 C 0,0 km/h (0 Bft) 100,00 %
07.06.2016 01:25 13,1 C 94 % 1019,1 hPa 0,0 l/m 0,0 km/h (0 Bft) O-SO 112 0 min 0,000 mm 0,0 UV-I 0 W/m 12,2 C 13,1 C 0,0 km/h (0 Bft) 100,00 %
07.06.2016 01:26 13,1 C 94 % 1019,1 hPa 0,0 l/m 0,0 km/h (0 Bft) O-SO 112 0 min 0,000 mm 0,0 UV-I 0 W/m 12,2 C 13,1 C 0,0 km/h (0 Bft) 95,65 %
07.06.2016 01:27 13,1 C 94 % 1019,1 hPa 0,0 l/m 0,0 km/h (0 Bft) O-SO 112 0 min 0,000 mm 0,0 UV-I 0 W/m 12,2 C 13,1 C 0,0 km/h (0 Bft) 100,00 %
07.06.2016 01:28 13,0 C 94 % 1019,2 hPa 0,0 l/m 0,1 km/h (0 Bft) O-SO 112 0 min 0,000 mm 0,0 UV-I 0 W/m 12,1 C 13,0 C 1,6 km/h (1 Bft) 100,00 %
07.06.2016 01:29 13,0 C 94 % 1019,2 hPa 0,0 l/m 0,0 km/h (0 Bft) O-SO 112 0 min 0,000 mm 0,0 UV-I 0 W/m 12,1 C 13,0 C 0,0 km/h (0 Bft) 100,00 %
07.06.2016 01:30 12,9 C 94 % 1019,2 hPa 0,0 l/m 0,3 km/h (0 Bft) O-SO 112 0 min 0,000 mm 0,0 UV-I 0 W/m 12,0 C 12,9 C 1,6 km/h (1 Bft) 100,00 %
07.06.2016 01:31 12,9 C 93 % 1019,2 hPa 0,0 l/m 1,9 km/h (1 Bft) O-SO 112 0 min 0,000 mm 0,0 UV-I 0 W/m 11,8 C 12,9 C 3,2 km/h (1 Bft) 100,00 %
07.06.2016 01:32 12,8 C 94 % 1019,2 hPa 0,0 l/m 3,2 km/h (1 Bft) O-SO 112 0 min 0,000 mm 0,0 UV-I 0 W/m 11,9 C 12,8 C 3,2 km/h (1 Bft) 100,00 %
07.06.2016 01:33 12,8 C 94 % 1019,2 hPa 0,0 l/m 3,0 km/h (1 Bft) O-SO 112 0 min 0,000 mm 0,0 UV-I 0 W/m 11,9 C 12,8 C 3,2 km/h (1 Bft) 100,00 %
07.06.2016 01:34 12,8 C 94 % 1019,2 hPa 0,0 l/m 3,8 km/h (1 Bft) O-NO 77 0 min 0,000 mm 0,0 UV-I 0 W/m 11,9 C 12,8 C 4,8 km/h (1 Bft) 100,00 %
07.06.2016 01:35 12,8 C 94 % 1019,2 hPa 0,0 l/m 4,9 km/h (1 Bft) O-NO 71 0 min 0,000 mm 0,0 UV-I 0 W/m 11,9 C 12,8 C 6,4 km/h (2 Bft) 100,00 %
07.06.2016 01:36 12,8 C 94 % 1019,2 hPa 0,0 l/m 4,6 km/h (1 Bft) O-NO 71 0 min 0,000 mm 0,0 UV-I 0 W/m 11,9 C 12,8 C 6,4 km/h (2 Bft) 100,00 %
07.06.2016 01:37 12,9 C 95 % 1019,2 hPa 0,0 l/m 3,7 km/h (1 Bft) O-NO 71 0 min 0,000 mm 0,0 UV-I 0 W/m 12,1 C 12,9 C 4,8 km/h (1 Bft) 96,15 %
07.06.2016 01:38 12,9 C 95 % 1019,1 hPa 0,0 l/m 3,4 km/h (1 Bft) O-NO 71 0 min 0,000 mm 0,0 UV-I 0 W/m 12,1 C 12,9 C 4,8 km/h (1 Bft) 100,00 %
07.06.2016 01:39 13,1 C 95 % 1019,1 hPa 0,0 l/m 3,6 km/h (1 Bft) O-NO 71 0 min 0,000 mm 0,0 UV-I 0 W/m 12,3 C 13,1 C 4,8 km/h (1 Bft) 100,00 %
07.06.2016 01:40 13,1 C 95 % 1019,2 hPa 0,0 l/m 4,6 km/h (1 Bft) O-NO 71 0 min 0,000 mm 0,0 UV-I 0 W/m 12,3 C 13,1 C 6,4 km/h (2 Bft) 100,00 %
07.06.2016 01:41 13,1 C 95 % 1019,2 hPa 0,0 l/m 5,3 km/h (1 Bft) O-NO 61 0 min 0,000 mm 0,0 UV-I 0 W/m 12,3 C 13,1 C 6,4 km/h (2 Bft) 100,00 %
07.06.2016 01:42 13,2 C 95 % 1019,2 hPa 0,0 l/m 6,0 km/h (2 Bft) O-NO 57 0 min 0,000 mm 0,0 UV-I 0 W/m 12,4 C 13,2 C 8,0 km/h (2 Bft) 100,00 %
07.06.2016 01:43 13,2 C 95 % 1019,2 hPa 0,0 l/m 4,0 km/h (1 Bft) O-NO 57 0 min 0,000 mm 0,0 UV-I 0 W/m 12,4 C 13,2 C 4,8 km/h (1 Bft) 100,00 %
07.06.2016 01:44 13,2 C 95 % 1019,2 hPa 0,0 l/m 4,1 km/h (1 Bft) O-NO 64 0 min 0,000 mm 0,0 UV-I 0 W/m 12,4 C 13,2 C 6,4 km/h (2 Bft) 100,00 %
07.06.2016 01:45 13,2 C 95 % 1019,2 hPa 0,0 l/m 5,5 km/h (1 Bft) O-NO 67 0 min 0,000 mm 0,0 UV-I 0 W/m 12,4 C 13,2 C 6,4 km/h (2 Bft) 100,00 %
07.06.2016 01:46 13,2 C 95 % 1019,1 hPa 0,0 l/m 5,4 km/h (1 Bft) O-NO 63 0 min 0,000 mm 0,0 UV-I 0 W/m 12,4 C 13,2 C 6,4 km/h (2 Bft) 100,00 %
07.06.2016 01:47 13,3 C 95 % 1019,2 hPa 0,0 l/m 4,7 km/h (1 Bft) O-NO 63 0 min 0,000 mm 0,0 UV-I 0 W/m 12,5 C 13,3 C 6,4 km/h (2 Bft) 100,00 %
07.06.2016 01:48 13,3 C 95 % 1019,1 hPa 0,0 l/m 5,6 km/h (1 Bft) O-NO 63 0 min 0,000 mm 0,0 UV-I 0 W/m 12,5 C 13,3 C 6,4 km/h (2 Bft) 100,00 %
07.06.2016 01:49 13,3 C 95 % 1019,2 hPa 0,0 l/m 3,8 km/h (1 Bft) O-NO 62 0 min 0,000 mm 0,0 UV-I 0 W/m 12,5 C 13,3 C 4,8 km/h (1 Bft) 100,00 %
07.06.2016 01:50 13,3 C 95 % 1019,2 hPa 0,0 l/m 4,2 km/h (1 Bft) O-NO 61 0 min 0,000 mm 0,0 UV-I 0 W/m 12,5 C 13,3 C 4,8 km/h (1 Bft) 100,00 %
07.06.2016 01:51 13,3 C 95 % 1019,2 hPa 0,0 l/m 5,1 km/h (1 Bft) O-NO 67 0 min 0,000 mm 0,0 UV-I 0 W/m 12,5 C 13,3 C 6,4 km/h (2 Bft) 100,00 %
07.06.2016 01:52 13,3 C 95 % 1019,3 hPa 0,0 l/m 3,6 km/h (1 Bft) O-NO 67 0 min 0,000 mm 0,0 UV-I 0 W/m 12,5 C 13,3 C 4,8 km/h (1 Bft) 95,65 %
07.06.2016 01:53 13,3 C 95 % 1019,3 hPa 0,0 l/m 3,5 km/h (1 Bft) O-NO 77 0 min 0,000 mm 0,0 UV-I 0 W/m 12,5 C 13,3 C 4,8 km/h (1 Bft) 100,00 %
07.06.2016 01:54 13,3 C 95 % 1019,3 hPa 0,0 l/m 3,4 km/h (1 Bft) O 81 0 min 0,000 mm 0,0 UV-I 0 W/m 12,5 C 13,3 C 4,8 km/h (1 Bft) 100,00 %
07.06.2016 01:55 13,2 C 95 % 1019,3 hPa 0,0 l/m 4,0 km/h (1 Bft) O 81 0 min 0,000 mm 0,0 UV-I 0 W/m 12,4 C 13,2 C 6,4 km/h (2 Bft) 100,00 %
07.06.2016 01:56 13,3 C 94 % 1019,3 hPa 0,0 l/m 4,2 km/h (1 Bft) O 86 0 min 0,000 mm 0,0 UV-I 0 W/m 12,4 C 13,3 C 6,4 km/h (2 Bft) 100,00 %
07.06.2016 01:57 13,3 C 95 % 1019,4 hPa 0,0 l/m 3,0 km/h (1 Bft) O 86 0 min 0,000 mm 0,0 UV-I 0 W/m 12,5 C 13,3 C 3,2 km/h (1 Bft) 100,00 %
07.06.2016 01:58 13,3 C 95 % 1019,4 hPa 0,0 l/m 1,8 km/h (1 Bft) O 86 0 min 0,000 mm 0,0 UV-I 0 W/m 12,5 C 13,3 C 3,2 km/h (1 Bft) 100,00 %
07.06.2016 01:59 13,4 C 94 % 1019,4 hPa 0,0 l/m 0,1 km/h (0 Bft) O 86 0 min 0,000 mm 0,0 UV-I 0 W/m 12,5 C 13,4 C 1,6 km/h (1 Bft) 100,00 %
07.06.2016 02:00 13,3 C 94 % 1019,4 hPa 0,0 l/m 0,3 km/h (0 Bft) O 85 0 min 0,000 mm 0,0 UV-I 0 W/m 12,4 C 13,3 C 1,6 km/h (1 Bft) 100,00 %
07.06.2016 02:01 13,2 C 92 % 1019,4 hPa 0,0 l/m 0,0 km/h (0 Bft) O 86 0 min 0,000 mm 0,0 UV-I 0 W/m 11,9 C 13,2 C 0,0 km/h (0 Bft) 100,00 %
07.06.2016 02:02 13,0 C 92 % 1019,4 hPa 0,0 l/m 0,0 km/h (0 Bft) O 86 0 min 0,000 mm 0,0 UV-I 0 W/m 11,7 C 13,0 C 0,0 km/h (0 Bft) 100,00 %
07.06.2016 02:03 12,8 C 91 % 1019,4 hPa 0,0 l/m 0,1 km/h (0 Bft) O 85 0 min 0,000 mm 0,0 UV-I 0 W/m 11,4 C 12,8 C 1,6 km/h (1 Bft) 100,00 %
07.06.2016 02:04 12,6 C 91 % 1019,4 hPa 0,0 l/m 0,4 km/h (0 Bft) O 86 0 min 0,000 mm 0,0 UV-I 0 W/m 11,2 C 12,6 C 1,6 km/h (1 Bft) 100,00 %
07.06.2016 02:05 12,5 C 92 % 1019,5 hPa 0,0 l/m 0,0 km/h (0 Bft) O 86 0 min 0,000 mm 0,0 UV-I 0 W/m 11,2 C 12,5 C 0,0 km/h (0 Bft) 100,00 %
07.06.2016 02:06 12,4 C 92 % 1019,5 hPa 0,0 l/m 0,9 km/h (0 Bft) O 86 0 min 0,000 mm 0,0 UV-I 0 W/m 11,1 C 12,4 C 3,2 km/h (1 Bft) 100,00 %
07.06.2016 02:07 12,3 C 92 % 1019,5 hPa 0,0 l/m 1,5 km/h (1 Bft) O 86 0 min 0,000 mm 0,0 UV-I 0 W/m 11,0 C 12,3 C 3,2 km/h (1 Bft) 100,00 %
07.06.2016 02:08 12,3 C 93 % 1019,5 hPa 0,0 l/m 2,4 km/h (1 Bft) O 86 0 min 0,000 mm 0,0 UV-I 0 W/m 11,2 C 12,3 C 3,2 km/h (1 Bft) 95,83 %
07.06.2016 02:09 12,3 C 93 % 1019,5 hPa 0,0 l/m 2,1 km/h (1 Bft) O 85 0 min 0,000 mm 0,0 UV-I 0 W/m 11,2 C 12,3 C 3,2 km/h (1 Bft) 100,00 %
07.06.2016 02:10 12,3 C 94 % 1019,5 hPa 0,0 l/m 1,9 km/h (1 Bft) O 86 0 min 0,000 mm 0,0 UV-I 0 W/m 11,4 C 12,3 C 3,2 km/h (1 Bft) 100,00 %
07.06.2016 02:11 12,4 C 95 % 1019,5 hPa 0,0 l/m 1,8 km/h (1 Bft) O 85 0 min 0,000 mm 0,0 UV-I 0 W/m 11,6 C 12,4 C 3,2 km/h (1 Bft) 100,00 %
07.06.2016 02:12 12,5 C 95 % 1019,5 hPa 0,0 l/m 2,5 km/h (1 Bft) O 85 0 min 0,000 mm 0,0 UV-I 0 W/m 11,7 C 12,5 C 3,2 km/h (1 Bft) 100,00 %
07.06.2016 02:13 12,6 C 95 % 1019,5 hPa 0,0 l/m 0,9 km/h (0 Bft) O 85 0 min 0,000 mm 0,0 UV-I 0 W/m 11,8 C 12,6 C 1,6 km/h (1 Bft) 100,00 %
07.06.2016 02:14 12,6 C 95 % 1019,5 hPa 0,0 l/m 0,4 km/h (0 Bft) O 86 0 min 0,000 mm 0,0 UV-I 0 W/m 11,8 C 12,6 C 1,6 km/h (1 Bft) 100,00 %
07.06.2016 02:15 12,7 C 95 % 1019,4 hPa 0,0 l/m 0,6 km/h (0 Bft) O 85 0 min 0,000 mm 0,0 UV-I 0 W/m 11,9 C 12,7 C 1,6 km/h (1 Bft) 100,00 %
07.06.2016 02:16 12,6 C 95 % 1019,5 hPa 0,0 l/m 2,6 km/h (1 Bft) O 85 0 min 0,000 mm 0,0 UV-I 0 W/m 11,8 C 12,6 C 3,2 km/h (1 Bft) 100,00 %
07.06.2016 02:17 12,6 C 95 % 1019,5 hPa 0,0 l/m 3,6 km/h (1 Bft) O-NO 78 0 min 0,000 mm 0,0 UV-I 0 W/m 11,8 C 12,6 C 4,8 km/h (1 Bft) 98,93 %
07.06.2016 02:18 12,6 C 94 % 1019,5 hPa 0,0 l/m 4,1 km/h (1 Bft) O-NO 64 0 min 0,000 mm 0,0 UV-I 0 W/m 11,7 C 12,6 C 4,8 km/h (1 Bft) 100,00 %
07.06.2016 02:19 12,6 C 95 % 1019,5 hPa 0,0 l/m 3,3 km/h (1 Bft) O-NO 64 0 min 0,000 mm 0,0 UV-I 0 W/m 11,8 C 12,6 C 4,8 km/h (1 Bft) 100,00 %
07.06.2016 02:20 12,7 C 95 % 1019,5 hPa 0,0 l/m 3,6 km/h (1 Bft) O-NO 64 0 min 0,000 mm 0,0 UV-I 0 W/m 11,9 C 12,7 C 4,8 km/h (1 Bft) 100,00 %
07.06.2016 02:21 12,7 C 95 % 1019,4 hPa 0,0 l/m 2,5 km/h (1 Bft) O-NO 63 0 min 0,000 mm 0,0 UV-I 0 W/m 11,9 C 12,7 C 4,8 km/h (1 Bft) 100,00 %
07.06.2016 02:22 12,8 C 95 % 1019,5 hPa 0,0 l/m 3,4 km/h (1 Bft) O-NO 63 0 min 0,000 mm 0,0 UV-I 0 W/m 12,0 C 12,8 C 4,8 km/h (1 Bft) 100,00 %
07.06.2016 02:23 12,8 C 95 % 1019,4 hPa 0,0 l/m 3,3 km/h (1 Bft) O-NO 62 0 min 0,000 mm 0,0 UV-I 0 W/m 12,0 C 12,8 C 4,8 km/h (1 Bft) 95,65 %
07.06.2016 02:24 12,8 C 95 % 1019,4 hPa 0,0 l/m 3,5 km/h (1 Bft) O-NO 62 0 min 0,000 mm 0,0 UV-I 0 W/m 12,0 C 12,8 C 4,8 km/h (1 Bft) 100,00 %
07.06.2016 02:25 12,8 C 95 % 1019,4 hPa 0,0 l/m 2,6 km/h (1 Bft) O-NO 62 0 min 0,000 mm 0,0 UV-I 0 W/m 12,0 C 12,8 C 3,2 km/h (1 Bft) 100,00 %
07.06.2016 02:26 12,8 C 95 % 1019,4 hPa 0,0 l/m 3,7 km/h (1 Bft) O-NO 62 0 min 0,000 mm 0,0 UV-I 0 W/m 12,0 C 12,8 C 4,8 km/h (1 Bft) 100,00 %
07.06.2016 02:27 12,8 C 95 % 1019,4 hPa 0,0 l/m 3,0 km/h (1 Bft) O-NO 63 0 min 0,000 mm 0,0 UV-I 0 W/m 12,0 C 12,8 C 4,8 km/h (1 Bft) 100,00 %
07.06.2016 02:28 12,8 C 95 % 1019,4 hPa 0,0 l/m 3,8 km/h (1 Bft) O-NO 62 0 min 0,000 mm 0,0 UV-I 0 W/m 12,0 C 12,8 C 4,8 km/h (1 Bft) 100,00 %
07.06.2016 02:29 12,8 C 95 % 1019,4 hPa 0,0 l/m 3,5 km/h (1 Bft) O-NO 63 0 min 0,000 mm 0,0 UV-I 0 W/m 12,0 C 12,8 C 4,8 km/h (1 Bft) 100,00 %
07.06.2016 02:30 12,8 C 95 % 1019,4 hPa 0,0 l/m 2,1 km/h (1 Bft) O-NO 62 0 min 0,000 mm 0,0 UV-I 0 W/m 12,0 C 12,8 C 3,2 km/h (1 Bft) 96,15 %
07.06.2016 02:31 12,9 C 95 % 1019,3 hPa 0,0 l/m 2,3 km/h (1 Bft) O-NO 63 0 min 0,000 mm 0,0 UV-I 0 W/m 12,1 C 12,9 C 3,2 km/h (1 Bft) 100,00 %
07.06.2016 02:32 12,9 C 95 % 1019,4 hPa 0,0 l/m 2,5 km/h (1 Bft) O-NO 62 0 min 0,000 mm 0,0 UV-I 0 W/m 12,1 C 12,9 C 3,2 km/h (1 Bft) 100,00 %
07.06.2016 02:33 12,9 C 95 % 1019,4 hPa 0,0 l/m 2,7 km/h (1 Bft) O-NO 62 0 min 0,000 mm 0,0 UV-I 0 W/m 12,1 C 12,9 C 3,2 km/h (1 Bft) 96,67 %
07.06.2016 02:34 12,9 C 96 % 1019,3 hPa 0,0 l/m 3,4 km/h (1 Bft) O-NO 63 0 min 0,000 mm 0,0 UV-I 0 W/m 12,3 C 12,9 C 4,8 km/h (1 Bft) 96,15 %
07.06.2016 02:35 12,9 C 96 % 1019,4 hPa 0,0 l/m 2,8 km/h (1 Bft) O-NO 62 0 min 0,000 mm 0,0 UV-I 0 W/m 12,3 C 12,9 C 4,8 km/h (1 Bft) 91,67 %
07.06.2016 02:36 12,9 C 95 % 1019,4 hPa 0,0 l/m 2,1 km/h (1 Bft) O-NO 62 0 min 0,000 mm 0,0 UV-I 0 W/m 12,1 C 12,9 C 3,2 km/h (1 Bft) 95,65 %
07.06.2016 02:37 12,9 C 95 % 1019,4 hPa 0,0 l/m 2,6 km/h (1 Bft) O-NO 63 0 min 0,000 mm 0,0 UV-I 0 W/m 12,1 C 12,9 C 3,2 km/h (1 Bft) 91,67 %
07.06.2016 02:38 12,9 C 95 % 1019,4 hPa 0,0 l/m 2,5 km/h (1 Bft) O-NO 62 0 min 0,000 mm 0,0 UV-I 0 W/m 12,1 C 12,9 C 3,2 km/h (1 Bft) 100,00 %
07.06.2016 02:39 12,9 C 95 % 1019,3 hPa 0,0 l/m 2,0 km/h (1 Bft) O-NO 63 0 min 0,000 mm 0,0 UV-I 0 W/m 12,1 C 12,9 C 3,2 km/h (1 Bft) 91,67 %
07.06.2016 02:40 12,9 C 95 % 1019,3 hPa 0,0 l/m 2,7 km/h (1 Bft) O-NO 62 0 min 0,000 mm 0,0 UV-I 0 W/m 12,1 C 12,9 C 3,2 km/h (1 Bft) 100,00 %
07.06.2016 02:41 12,9 C 95 % 1019,3 hPa 0,0 l/m 2,3 km/h (1 Bft) O-NO 62 0 min 0,000 mm 0,0 UV-I 0 W/m 12,1 C 12,9 C 3,2 km/h (1 Bft) 91,67 %
07.06.2016 02:42 12,9 C 95 % 1019,3 hPa 0,0 l/m 2,4 km/h (1 Bft) O-NO 63 0 min 0,000 mm 0,0 UV-I 0 W/m 12,1 C 12,9 C 3,2 km/h (1 Bft) 100,00 %
07.06.2016 02:43 13,0 C 96 % 1019,3 hPa 0,0 l/m 2,1 km/h (1 Bft) O-NO 63 0 min 0,000 mm 0,0 UV-I 0 W/m 12,4 C 13,0 C 3,2 km/h (1 Bft) 96,55 %
07.06.2016 02:44 13,1 C 95 % 1019,3 hPa 0,0 l/m 2,4 km/h (1 Bft) O-NO 62 0 min 0,000 mm 0,0 UV-I 0 W/m 12,3 C 13,1 C 3,2 km/h (1 Bft) 92,31 %
07.06.2016 02:45 13,0 C 95 % 1019,3 hPa 0,0 l/m 2,6 km/h (1 Bft) O-NO 62 0 min 0,000 mm 0,0 UV-I 0 W/m 12,2 C 13,0 C 3,2 km/h (1 Bft) 100,00 %
07.06.2016 02:46 13,0 C 95 % 1019,3 hPa 0,0 l/m 2,1 km/h (1 Bft) O-NO 62 0 min 0,000 mm 0,0 UV-I 0 W/m 12,2 C 13,0 C 3,2 km/h (1 Bft) 96,30 %
07.06.2016 02:47 13,0 C 95 % 1019,4 hPa 0,0 l/m 2,1 km/h (1 Bft) O-NO 62 0 min 0,000 mm 0,0 UV-I 0 W/m 12,2 C 13,0 C 3,2 km/h (1 Bft) 100,00 %
07.06.2016 02:48 13,1 C 95 % 1019,4 hPa 0,0 l/m 2,5 km/h (1 Bft) O-NO 62 0 min 0,000 mm 0,0 UV-I 0 W/m 12,3 C 13,1 C 4,8 km/h (1 Bft) 95,83 %
07.06.2016 02:49 13,1 C 95 % 1019,4 hPa 0,0 l/m 2,2 km/h (1 Bft) O-NO 62 0 min 0,000 mm 0,0 UV-I 0 W/m 12,3 C 13,1 C 3,2 km/h (1 Bft) 100,00 %
07.06.2016 02:50 13,1 C 95 % 1019,4 hPa 0,0 l/m 3,1 km/h (1 Bft) O-NO 62 0 min 0,000 mm 0,0 UV-I 0 W/m 12,3 C 13,1 C 4,8 km/h (1 Bft) 93,33 %
07.06.2016 02:51 13,1 C 95 % 1019,3 hPa 0,0 l/m 3,5 km/h (1 Bft) O-NO 62 0 min 0,000 mm 0,0 UV-I 0 W/m 12,3 C 13,1 C 4,8 km/h (1 Bft) 96,97 %
07.06.2016 02:52 13,1 C 95 % 1019,4 hPa 0,0 l/m 3,6 km/h (1 Bft) O-NO 62 0 min 0,000 mm 0,0 UV-I 0 W/m 12,3 C 13,1 C 4,8 km/h (1 Bft) 100,00 %
07.06.2016 02:53 13,1 C 95 % 1019,4 hPa 0,0 l/m 4,6 km/h (1 Bft) O-NO 62 0 min 0,000 mm 0,0 UV-I 0 W/m 12,3 C 13,1 C 4,8 km/h (1 Bft) 100,00 %
07.06.2016 02:54 13,1 C 95 % 1019,3 hPa 0,0 l/m 4,6 km/h (1 Bft) O-NO 62 0 min 0,000 mm 0,0 UV-I 0 W/m 12,3 C 13,1 C 4,8 km/h (1 Bft) 97,22 %
07.06.2016 02:55 13,1 C 95 % 1019,3 hPa 0,0 l/m 4,8 km/h (1 Bft) O-NO 63 0 min 0,000 mm 0,0 UV-I 0 W/m 12,3 C 13,1 C 6,4 km/h (2 Bft) 86,96 %
07.06.2016 02:56 13,1 C 95 % 1019,3 hPa 0,0 l/m 4,1 km/h (1 Bft) O-NO 63 0 min 0,000 mm 0,0 UV-I 0 W/m 12,3 C 13,1 C 4,8 km/h (1 Bft) 100,00 %
07.06.2016 02:57 13,1 C 95 % 1019,3 hPa 0,0 l/m 3,5 km/h (1 Bft) O-NO 63 0 min 0,000 mm 0,0 UV-I 0 W/m 12,3 C 13,1 C 4,8 km/h (1 Bft) 96,15 %
07.06.2016 02:58 13,1 C 95 % 1019,3 hPa 0,0 l/m 4,9 km/h (1 Bft) O-NO 59 0 min 0,000 mm 0,0 UV-I 0 W/m 12,3 C 13,1 C 6,4 km/h (2 Bft) 100,00 %
07.06.2016 02:59 13,1 C 95 % 1019,3 hPa 0,0 l/m 4,2 km/h (1 Bft) O-NO 61 0 min 0,000 mm 0,0 UV-I 0 W/m 12,3 C 13,1 C 6,4 km/h (2 Bft) 95,65 %
07.06.2016 03:00 13,1 C 95 % 1019,3 hPa 0,0 l/m 3,8 km/h (1 Bft) O-NO 59 0 min 0,000 mm 0,0 UV-I 0 W/m 12,3 C 13,1 C 6,4 km/h (2 Bft) 95,83 %
07.06.2016 03:01 13,1 C 95 % 1019,3 hPa 0,0 l/m 3,8 km/h (1 Bft) NO 56 0 min 0,000 mm 0,0 UV-I 0 W/m 12,3 C 13,1 C 4,8 km/h (1 Bft) 95,65 %
07.06.2016 03:02 13,0 C 95 % 1019,3 hPa 0,0 l/m 4,2 km/h (1 Bft) O-NO 63 0 min 0,000 mm 0,0 UV-I 0 W/m 12,2 C 13,0 C 4,8 km/h (1 Bft) 95,83 %
07.06.2016 03:03 13,0 C 95 % 1019,3 hPa 0,0 l/m 4,0 km/h (1 Bft) O-NO 60 0 min 0,000 mm 0,0 UV-I 0 W/m 12,2 C 13,0 C 6,4 km/h (2 Bft) 100,00 %
07.06.2016 03:04 13,0 C 95 % 1019,3 hPa 0,0 l/m 5,6 km/h (1 Bft) O-NO 67 0 min 0,000 mm 0,0 UV-I 0 W/m 12,2 C 13,0 C 9,7 km/h (2 Bft) 96,55 %
07.06.2016 03:05 12,9 C 95 % 1019,3 hPa 0,0 l/m 5,0 km/h (1 Bft) NO 35 0 min 0,000 mm 0,0 UV-I 0 W/m 12,1 C 12,9 C 6,4 km/h (2 Bft) 100,00 %
07.06.2016 03:06 12,9 C 95 % 1019,3 hPa 0,0 l/m 5,8 km/h (2 Bft) NO 38 0 min 0,000 mm 0,0 UV-I 0 W/m 12,1 C 12,9 C 8,0 km/h (2 Bft) 95,65 %
07.06.2016 03:07 12,9 C 95 % 1019,3 hPa 0,0 l/m 6,6 km/h (2 Bft) NO 53 0 min 0,000 mm 0,0 UV-I 0 W/m 12,1 C 12,8 C 8,0 km/h (2 Bft) 95,83 %
07.06.2016 03:08 12,8 C 95 % 1019,3 hPa 0,0 l/m 5,4 km/h (1 Bft) NO 44 0 min 0,000 mm 0,0 UV-I 0 W/m 12,0 C 12,8 C 6,4 km/h (2 Bft) 100,00 %
07.06.2016 03:09 12,8 C 95 % 1019,3 hPa 0,0 l/m 6,4 km/h (2 Bft) NO 54 0 min 0,000 mm 0,0 UV-I 0 W/m 12,0 C 12,8 C 8,0 km/h (2 Bft) 100,00 %
07.06.2016 03:10 12,8 C 95 % 1019,4 hPa 0,0 l/m 7,1 km/h (2 Bft) NO 55 0 min 0,000 mm 0,0 UV-I 0 W/m 12,0 C 12,4 C 12,9 km/h (3 Bft) 96,55 %
07.06.2016 03:11 12,8 C 95 % 1019,4 hPa 0,0 l/m 5,2 km/h (1 Bft) NO 56 0 min 0,000 mm 0,0 UV-I 0 W/m 12,0 C 12,8 C 6,4 km/h (2 Bft) 100,00 %
07.06.2016 03:12 12,8 C 95 % 1019,4 hPa 0,0 l/m 5,2 km/h (1 Bft) NO 55 0 min 0,000 mm 0,0 UV-I 0 W/m 12,0 C 12,8 C 8,0 km/h (2 Bft) 100,00 %
07.06.2016 03:13 12,8 C 95 % 1019,4 hPa 0,0 l/m 5,9 km/h (2 Bft) O-NO 62 0 min 0,000 mm 0,0 UV-I 0 W/m 12,0 C 12,8 C 8,0 km/h (2 Bft) 100,00 %
07.06.2016 03:14 12,8 C 95 % 1019,4 hPa 0,0 l/m 6,1 km/h (2 Bft) NO 44 0 min 0,000 mm 0,0 UV-I 0 W/m 12,0 C 12,8 C 8,0 km/h (2 Bft) 100,00 %
07.06.2016 03:15 12,9 C 95 % 1019,4 hPa 0,0 l/m 5,1 km/h (1 Bft) O-NO 57 0 min 0,000 mm 0,0 UV-I 0 W/m 12,1 C 12,9 C 6,4 km/h (2 Bft) 100,00 %
07.06.2016 03:16 12,9 C 95 % 1019,4 hPa 0,0 l/m 5,8 km/h (2 Bft) O-NO 57 0 min 0,000 mm 0,0 UV-I 0 W/m 12,1 C 12,9 C 6,4 km/h (2 Bft) 100,00 %
07.06.2016 03:17 12,9 C 94 % 1019,4 hPa 0,0 l/m 6,0 km/h (2 Bft) NO 49 0 min 0,000 mm 0,0 UV-I 0 W/m 12,0 C 12,9 C 9,7 km/h (2 Bft) 95,83 %
07.06.2016 03:18 12,9 C 94 % 1019,4 hPa 0,0 l/m 4,7 km/h (1 Bft) O-NO 57 0 min 0,000 mm 0,0 UV-I 0 W/m 12,0 C 12,9 C 8,0 km/h (2 Bft) 91,30 %
07.06.2016 03:19 12,9 C 94 % 1019,5 hPa 0,0 l/m 4,5 km/h (1 Bft) NO 51 0 min 0,000 mm 0,0 UV-I 0 W/m 12,0 C 12,9 C 6,4 km/h (2 Bft) 100,00 %
07.06.2016 03:20 12,9 C 94 % 1019,5 hPa 0,0 l/m 5,4 km/h (1 Bft) O-NO 58 0 min 0,000 mm 0,0 UV-I 0 W/m 12,0 C 12,9 C 8,0 km/h (2 Bft) 100,00 %
07.06.2016 03:21 12,9 C 94 % 1019,5 hPa 0,0 l/m 4,4 km/h (1 Bft) O-NO 61 0 min 0,000 mm 0,0 UV-I 0 W/m 12,0 C 12,9 C 6,4 km/h (2 Bft) 100,00 %
07.06.2016 03:22 12,9 C 94 % 1019,5 hPa 0,0 l/m 4,3 km/h (1 Bft) O-NO 59 0 min 0,000 mm 0,0 UV-I 0 W/m 12,0 C 12,9 C 6,4 km/h (2 Bft) 100,00 %
07.06.2016 03:23 13,0 C 94 % 1019,5 hPa 0,0 l/m 4,0 km/h (1 Bft) O-NO 62 0 min 0,000 mm 0,0 UV-I 0 W/m 12,1 C 13,0 C 6,4 km/h (2 Bft) 96,30 %
07.06.2016 03:24 13,0 C 94 % 1019,5 hPa 0,0 l/m 4,1 km/h (1 Bft) NO 48 0 min 0,000 mm 0,0 UV-I 0 W/m 12,1 C 13,0 C 6,4 km/h (2 Bft) 96,15 %
07.06.2016 03:25 13,0 C 94 % 1019,5 hPa 0,0 l/m 4,4 km/h (1 Bft) NO 40 0 min 0,000 mm 0,0 UV-I 0 W/m 12,1 C 13,0 C 6,4 km/h (2 Bft) 100,00 %
07.06.2016 03:26 13,0 C 94 % 1019,5 hPa 0,0 l/m 3,7 km/h (1 Bft) N-NO 32 0 min 0,000 mm 0,0 UV-I 0 W/m 12,1 C 13,0 C 4,8 km/h (1 Bft) 100,00 %
07.06.2016 03:27 13,0 C 94 % 1019,5 hPa 0,0 l/m 3,8 km/h (1 Bft) NO 55 0 min 0,000 mm 0,0 UV-I 0 W/m 12,1 C 13,0 C 4,8 km/h (1 Bft) 100,00 %
07.06.2016 03:28 12,9 C 94 % 1019,6 hPa 0,0 l/m 3,2 km/h (1 Bft) N-NO 31 0 min 0,000 mm 0,0 UV-I 0 W/m 12,0 C 12,9 C 6,4 km/h (2 Bft) 100,00 %
07.06.2016 03:29 12,9 C 94 % 1019,5 hPa 0,0 l/m 3,4 km/h (1 Bft) NO 56 0 min 0,000 mm 0,0 UV-I 0 W/m 12,0 C 12,9 C 4,8 km/h (1 Bft) 100,00 %
07.06.2016 03:30 12,9 C 94 % 1019,5 hPa 0,0 l/m 3,4 km/h (1 Bft) O-NO 59 0 min 0,000 mm 0,0 UV-I 0 W/m 12,0 C 12,9 C 6,4 km/h (2 Bft) 100,00 %
07.06.2016 03:31 12,9 C 94 % 1019,5 hPa 0,0 l/m 4,3 km/h (1 Bft) O-NO 65 0 min 0,000 mm 0,0 UV-I 0 W/m 12,0 C 12,9 C 6,4 km/h (2 Bft) 91,30 %
07.06.2016 03:32 12,9 C 94 % 1019,5 hPa 0,0 l/m 6,0 km/h (2 Bft) NO 34 0 min 0,000 mm 0,0 UV-I 0 W/m 12,0 C 12,9 C 9,7 km/h (2 Bft) 100,00 %
07.06.2016 03:33 12,9 C 94 % 1019,5 hPa 0,0 l/m 5,0 km/h (1 Bft) NO 42 0 min 0,000 mm 0,0 UV-I 0 W/m 12,0 C 12,9 C 6,4 km/h (2 Bft) 96,15 %
07.06.2016 03:34 12,9 C 94 % 1019,5 hPa 0,0 l/m 4,8 km/h (1 Bft) NO 34 0 min 0,000 mm 0,0 UV-I 0 W/m 12,0 C 12,9 C 6,4 km/h (2 Bft) 100,00 %
07.06.2016 03:35 12,9 C 94 % 1019,5 hPa 0,0 l/m 4,6 km/h (1 Bft) O-NO 65 0 min 0,000 mm 0,0 UV-I 0 W/m 12,0 C 12,9 C 6,4 km/h (2 Bft) 100,00 %
07.06.2016 03:36 12,9 C 94 % 1019,5 hPa 0,0 l/m 5,3 km/h (1 Bft) NO 46 0 min 0,000 mm 0,0 UV-I 0 W/m 12,0 C 12,9 C 6,4 km/h (2 Bft) 100,00 %
07.06.2016 03:37 12,9 C 94 % 1019,5 hPa 0,0 l/m 5,4 km/h (1 Bft) NO 40 0 min 0,000 mm 0,0 UV-I 0 W/m 12,0 C 12,9 C 8,0 km/h (2 Bft) 96,15 %
07.06.2016 03:38 12,9 C 94 % 1019,5 hPa 0,0 l/m 4,6 km/h (1 Bft) NO 34 0 min 0,000 mm 0,0 UV-I 0 W/m 12,0 C 12,9 C 6,4 km/h (2 Bft) 100,00 %
07.06.2016 03:39 12,9 C 94 % 1019,5 hPa 0,0 l/m 3,2 km/h (1 Bft) N-NO 28 0 min 0,000 mm 0,0 UV-I 0 W/m 12,0 C 12,9 C 4,8 km/h (1 Bft) 100,00 %
07.06.2016 03:40 12,8 C 94 % 1019,5 hPa 0,0 l/m 6,4 km/h (2 Bft) N-NO 20 0 min 0,000 mm 0,0 UV-I 0 W/m 11,9 C 12,8 C 8,0 km/h (2 Bft) 100,00 %
07.06.2016 03:41 12,8 C 94 % 1019,5 hPa 0,0 l/m 4,4 km/h (1 Bft) NO 41 0 min 0,000 mm 0,0 UV-I 0 W/m 11,9 C 12,8 C 6,4 km/h (2 Bft) 100,00 %
07.06.2016 03:42 12,9 C 94 % 1019,5 hPa 0,0 l/m 3,6 km/h (1 Bft) NO 36 0 min 0,000 mm 0,0 UV-I 0 W/m 12,0 C 12,9 C 6,4 km/h (2 Bft) 100,00 %
07.06.2016 03:43 12,8 C 94 % 1019,5 hPa 0,0 l/m 4,1 km/h (1 Bft) N-NO 32 0 min 0,000 mm 0,0 UV-I 0 W/m 11,9 C 12,8 C 6,4 km/h (2 Bft) 100,00 %
07.06.2016 03:44 12,8 C 94 % 1019,5 hPa 0,0 l/m 3,9 km/h (1 Bft) NO 44 0 min 0,000 mm 0,0 UV-I 0 W/m 11,9 C 12,8 C 4,8 km/h (1 Bft) 100,00 %
07.06.2016 03:45 12,8 C 94 % 1019,5 hPa 0,0 l/m 4,4 km/h (1 Bft) O-NO 61 0 min 0,000 mm 0,0 UV-I 0 W/m 11,9 C 12,8 C 6,4 km/h (2 Bft) 100,00 %
07.06.2016 03:46 12,9 C 94 % 1019,5 hPa 0,0 l/m 3,1 km/h (1 Bft) NO 45 0 min 0,000 mm 0,0 UV-I 0 W/m 12,0 C 12,9 C 6,4 km/h (2 Bft) 100,00 %
07.06.2016 03:47 12,9 C 94 % 1019,5 hPa 0,0 l/m 3,3 km/h (1 Bft) NO 36 0 min 0,000 mm 0,0 UV-I 0 W/m 12,0 C 12,9 C 6,4 km/h (2 Bft) 100,00 %
07.06.2016 03:48 12,9 C 94 % 1019,5 hPa 0,0 l/m 2,7 km/h (1 Bft) NO 46 0 min 0,000 mm 0,0 UV-I 0 W/m 12,0 C 12,9 C 4,8 km/h (1 Bft) 95,65 %
07.06.2016 03:49 12,9 C 94 % 1019,5 hPa 0,0 l/m 4,7 km/h (1 Bft) NO 45 0 min 0,000 mm 0,0 UV-I 0 W/m 12,0 C 12,9 C 6,4 km/h (2 Bft) 100,00 %
07.06.2016 03:50 12,8 C 94 % 1019,5 hPa 0,0 l/m 4,0 km/h (1 Bft) NO 55 0 min 0,000 mm 0,0 UV-I 0 W/m 11,9 C 12,8 C 4,8 km/h (1 Bft) 95,65 %
07.06.2016 03:51 12,8 C 94 % 1019,5 hPa 0,0 l/m 3,0 km/h (1 Bft) NO 55 0 min 0,000 mm 0,0 UV-I 0 W/m 11,9 C 12,8 C 4,8 km/h (1 Bft) 95,83 %
07.06.2016 03:52 12,8 C 94 % 1019,5 hPa 0,0 l/m 3,1 km/h (1 Bft) N-NO 29 0 min 0,000 mm 0,0 UV-I 0 W/m 11,9 C 12,8 C 6,4 km/h (2 Bft) 100,00 %
07.06.2016 03:53 12,8 C 94 % 1019,5 hPa 0,0 l/m 5,0 km/h (1 Bft) NO 48 0 min 0,000 mm 0,0 UV-I 0 W/m 11,9 C 12,8 C 6,4 km/h (2 Bft) 100,00 %
07.06.2016 03:54 12,8 C 94 % 1019,5 hPa 0,0 l/m 4,8 km/h (1 Bft) NO 34 0 min 0,000 mm 0,0 UV-I 0 W/m 11,9 C 12,8 C 6,4 km/h (2 Bft) 100,00 %
07.06.2016 03:55 12,7 C 94 % 1019,5 hPa 0,0 l/m 5,3 km/h (1 Bft) NO 42 0 min 0,000 mm 0,0 UV-I 0 W/m 11,8 C 12,7 C 8,0 km/h (2 Bft) 100,00 %
07.06.2016 03:56 12,7 C 94 % 1019,5 hPa 0,0 l/m 5,4 km/h (1 Bft) NO 55 0 min 0,000 mm 0,0 UV-I 0 W/m 11,8 C 12,7 C 8,0 km/h (2 Bft) 95,65 %
07.06.2016 03:57 12,7 C 94 % 1019,5 hPa 0,0 l/m 5,1 km/h (1 Bft) NO 49 0 min 0,000 mm 0,0 UV-I 0 W/m 11,8 C 12,7 C 8,0 km/h (2 Bft) 100,00 %
07.06.2016 03:58 12,7 C 94 % 1019,5 hPa 0,0 l/m 4,6 km/h (1 Bft) NO 53 0 min 0,000 mm 0,0 UV-I 0 W/m 11,8 C 12,7 C 8,0 km/h (2 Bft) 100,00 %
07.06.2016 03:59 12,7 C 94 % 1019,5 hPa 0,0 l/m 2,3 km/h (1 Bft) NO 53 0 min 0,000 mm 0,0 UV-I 0 W/m 11,8 C 12,7 C 3,2 km/h (1 Bft) 100,00 %
07.06.2016 04:00 12,7 C 94 % 1019,5 hPa 0,0 l/m 2,6 km/h (1 Bft) NO 53 0 min 0,000 mm 0,0 UV-I 0 W/m 11,8 C 12,7 C 4,8 km/h (1 Bft) 100,00 %
07.06.2016 04:02 12,8 C 94 % 1019,5 hPa 0,0 l/m 3,1 km/h (1 Bft) NO 56 0 min 0,000 mm 0,0 UV-I 0 W/m 11,9 C 12,8 C 4,8 km/h (1 Bft) 100,00 %
07.06.2016 04:03 12,8 C 94 % 1019,4 hPa 0,0 l/m 3,6 km/h (1 Bft) O-NO 74 0 min 0,000 mm 0,0 UV-I 0 W/m 11,9 C 12,8 C 6,4 km/h (2 Bft) 96,15 %
07.06.2016 04:04 12,8 C 94 % 1019,5 hPa 0,0 l/m 4,2 km/h (1 Bft) O-NO 65 0 min 0,000 mm 0,0 UV-I 0 W/m 11,9 C 12,8 C 6,4 km/h (2 Bft) 100,00 %
07.06.2016 04:05 12,8 C 94 % 1019,5 hPa 0,0 l/m 4,3 km/h (1 Bft) O-NO 61 0 min 0,000 mm 0,0 UV-I 0 W/m 11,9 C 12,8 C 6,4 km/h (2 Bft) 100,00 %
07.06.2016 04:06 12,8 C 94 % 1019,5 hPa 0,0 l/m 3,9 km/h (1 Bft) O-NO 61 0 min 0,000 mm 0,0 UV-I 0 W/m 11,9 C 12,8 C 4,8 km/h (1 Bft) 100,00 %
07.06.2016 04:07 12,8 C 94 % 1019,5 hPa 0,0 l/m 3,5 km/h (1 Bft) O-NO 61 0 min 0,000 mm 0,0 UV-I 0 W/m 11,9 C 12,8 C 4,8 km/h (1 Bft) 100,00 %
07.06.2016 04:08 12,8 C 93 % 1019,5 hPa 0,0 l/m 2,7 km/h (1 Bft) O-NO 60 0 min 0,000 mm 0,0 UV-I 0 W/m 11,7 C 12,8 C 4,8 km/h (1 Bft) 100,00 %
07.06.2016 04:09 12,8 C 93 % 1019,5 hPa 0,0 l/m 5,4 km/h (1 Bft) NO 51 0 min 0,000 mm 0,0 UV-I 0 W/m 11,7 C 12,8 C 9,7 km/h (2 Bft) 100,00 %
07.06.2016 04:10 12,8 C 93 % 1019,5 hPa 0,0 l/m 4,6 km/h (1 Bft) O-NO 66 0 min 0,000 mm 0,0 UV-I 0 W/m 11,7 C 12,8 C 6,4 km/h (2 Bft) 100,00 %
07.06.2016 04:11 12,8 C 93 % 1019,5 hPa 0,0 l/m 4,3 km/h (1 Bft) O-NO 57 0 min 0,000 mm 0,0 UV-I 0 W/m 11,7 C 12,8 C 6,4 km/h (2 Bft) 100,00 %
07.06.2016 04:12 12,8 C 93 % 1019,5 hPa 0,0 l/m 5,0 km/h (1 Bft) O-NO 61 0 min 0,000 mm 0,0 UV-I 0 W/m 11,7 C 12,8 C 6,4 km/h (2 Bft) 100,00 %
07.06.2016 04:13 12,8 C 93 % 1019,5 hPa 0,0 l/m 4,5 km/h (1 Bft) NO 55 0 min 0,000 mm 0,0 UV-I 0 W/m 11,7 C 12,8 C 6,4 km/h (2 Bft) 95,65 %
07.06.2016 04:14 12,8 C 93 % 1019,5 hPa 0,0 l/m 4,6 km/h (1 Bft) NO 53 0 min 0,000 mm 0,0 UV-I 0 W/m 11,7 C 12,8 C 6,4 km/h (2 Bft) 100,00 %
07.06.2016 04:15 12,8 C 93 % 1019,5 hPa 0,0 l/m 7,6 km/h (2 Bft) NO 44 0 min 0,000 mm 0,0 UV-I 0 W/m 11,7 C 12,0 C 11,3 km/h (2 Bft) 100,00 %
07.06.2016 04:16 12,8 C 93 % 1019,5 hPa 0,0 l/m 6,1 km/h (2 Bft) NO 49 0 min 0,000 mm 0,0 UV-I 0 W/m 11,7 C 12,8 C 8,0 km/h (2 Bft) 100,00 %
07.06.2016 04:17 12,8 C 93 % 1019,5 hPa 0,0 l/m 4,2 km/h (1 Bft) N 11 0 min 0,000 mm 0,0 UV-I 0 W/m 11,7 C 12,8 C 6,4 km/h (2 Bft) 100,00 %
07.06.2016 04:18 12,8 C 93 % 1019,5 hPa 0,0 l/m 7,2 km/h (2 Bft) N-NO 31 0 min 0,000 mm 0,0 UV-I 0 W/m 11,7 C 12,3 C 11,3 km/h (2 Bft) 96,30 %
07.06.2016 04:19 12,8 C 93 % 1019,5 hPa 0,0 l/m 6,4 km/h (2 Bft) O-NO 59 0 min 0,000 mm 0,0 UV-I 0 W/m 11,7 C 12,8 C 11,3 km/h (2 Bft) 96,15 %
07.06.2016 04:20 12,8 C 93 % 1019,5 hPa 0,0 l/m 7,1 km/h (2 Bft) NO 39 0 min 0,000 mm 0,0 UV-I 0 W/m 11,7 C 12,4 C 9,7 km/h (2 Bft) 96,30 %
07.06.2016 04:21 12,8 C 93 % 1019,4 hPa 0,0 l/m 7,4 km/h (2 Bft) NO 46 0 min 0,000 mm 0,0 UV-I 0 W/m 11,7 C 12,2 C 9,7 km/h (2 Bft) 100,00 %
07.06.2016 04:22 12,8 C 93 % 1019,4 hPa 0,0 l/m 6,2 km/h (2 Bft) O-NO 65 0 min 0,000 mm 0,0 UV-I 0 W/m 11,7 C 12,8 C 8,0 km/h (2 Bft) 100,00 %
07.06.2016 04:23 12,8 C 93 % 1019,4 hPa 0,0 l/m 5,4 km/h (1 Bft) N 5 0 min 0,000 mm 0,0 UV-I 0 W/m 11,7 C 12,8 C 8,0 km/h (2 Bft) 100,00 %
07.06.2016 04:24 12,9 C 93 % 1019,4 hPa 0,0 l/m 4,7 km/h (1 Bft) O-NO 58 0 min 0,000 mm 0,0 UV-I 0 W/m 11,8 C 12,9 C 9,7 km/h (2 Bft) 100,00 %
07.06.2016 04:25 12,9 C 93 % 1019,4 hPa 0,0 l/m 9,1 km/h (2 Bft) O-NO 62 0 min 0,000 mm 0,0 UV-I 0 W/m 11,8 C 11,3 C 12,9 km/h (3 Bft) 100,00 %
07.06.2016 04:26 12,9 C 93 % 1019,4 hPa 0,0 l/m 7,2 km/h (2 Bft) NO 48 0 min 0,000 mm 0,0 UV-I 0 W/m 11,8 C 12,4 C 11,3 km/h (2 Bft) 100,00 %
07.06.2016 04:27 12,9 C 93 % 1019,4 hPa 0,0 l/m 6,5 km/h (2 Bft) O-NO 57 0 min 0,000 mm 0,0 UV-I 0 W/m 11,8 C 12,9 C 9,7 km/h (2 Bft) 100,00 %
07.06.2016 04:28 12,9 C 93 % 1019,4 hPa 0,0 l/m 4,8 km/h (1 Bft) O 82 0 min 0,000 mm 0,0 UV-I 0 W/m 11,8 C 12,9 C 6,4 km/h (2 Bft) 100,00 %
07.06.2016 04:29 12,9 C 93 % 1019,5 hPa 0,0 l/m 8,0 km/h (2 Bft) NO 43 0 min 0,000 mm 0,0 UV-I 0 W/m 11,8 C 11,9 C 9,7 km/h (2 Bft) 100,00 %
07.06.2016 04:30 12,9 C 93 % 1019,5 hPa 0,0 l/m 6,6 km/h (2 Bft) O-NO 61 0 min 0,000 mm 0,0 UV-I 0 W/m 11,8 C 12,8 C 9,7 km/h (2 Bft) 100,00 %
07.06.2016 04:31 12,9 C 93 % 1019,4 hPa 0,0 l/m 6,4 km/h (2 Bft) NO 42 0 min 0,000 mm 0,0 UV-I 0 W/m 11,8 C 12,9 C 8,0 km/h (2 Bft) 100,00 %
07.06.2016 04:32 12,9 C 92 % 1019,5 hPa 0,0 l/m 7,8 km/h (2 Bft) NO 40 0 min 0,000 mm 0,0 UV-I 0 W/m 11,6 C 12,0 C 12,9 km/h (3 Bft) 100,00 %
07.06.2016 04:33 12,9 C 92 % 1019,5 hPa 0,0 l/m 6,8 km/h (2 Bft) NO 55 0 min 0,000 mm 0,0 UV-I 0 W/m 11,6 C 12,7 C 9,7 km/h (2 Bft) 100,00 %
07.06.2016 04:34 12,9 C 92 % 1019,5 hPa 0,0 l/m 6,3 km/h (2 Bft) O-NO 63 0 min 0,000 mm 0,0 UV-I 0 W/m 11,6 C 12,9 C 11,3 km/h (2 Bft) 100,00 %
07.06.2016 04:35 12,9 C 92 % 1019,5 hPa 0,0 l/m 7,1 km/h (2 Bft) O-NO 62 0 min 0,000 mm 0,0 UV-I 0 W/m 11,6 C 12,5 C 12,9 km/h (3 Bft) 100,00 %
07.06.2016 04:36 12,8 C 92 % 1019,5 hPa 0,0 l/m 9,1 km/h (2 Bft) N-NO 31 0 min 0,000 mm 0,0 UV-I 0 W/m 11,5 C 11,2 C 14,5 km/h (3 Bft) 96,15 %
07.06.2016 04:37 12,9 C 92 % 1019,5 hPa 0,0 l/m 6,0 km/h (2 Bft) NO 40 0 min 0,000 mm 0,0 UV-I 0 W/m 11,6 C 12,9 C 9,7 km/h (2 Bft) 95,83 %
07.06.2016 04:38 12,8 C 92 % 1019,5 hPa 0,0 l/m 6,4 km/h (2 Bft) NO 43 0 min 0,000 mm 0,0 UV-I 0 W/m 11,5 C 12,8 C 8,0 km/h (2 Bft) 96,15 %
07.06.2016 04:39 12,9 C 92 % 1019,4 hPa 0,0 l/m 7,1 km/h (2 Bft) NO 51 0 min 0,000 mm 0,0 UV-I 0 W/m 11,6 C 12,5 C 9,7 km/h (2 Bft) 96,30 %
07.06.2016 04:40 12,9 C 92 % 1019,5 hPa 0,0 l/m 5,6 km/h (1 Bft) O-NO 65 0 min 0,000 mm 0,0 UV-I 0 W/m 11,6 C 12,9 C 8,0 km/h (2 Bft) 100,00 %
07.06.2016 04:41 12,9 C 92 % 1019,5 hPa 0,0 l/m 5,8 km/h (2 Bft) NO 42 0 min 0,000 mm 0,0 UV-I 0 W/m 11,6 C 12,9 C 8,0 km/h (2 Bft) 91,67 %
07.06.2016 04:42 12,9 C 92 % 1019,5 hPa 0,0 l/m 5,7 km/h (1 Bft) NO 48 0 min 0,000 mm 0,0 UV-I 0 W/m 11,6 C 12,9 C 9,7 km/h (2 Bft) 100,00 %
07.06.2016 04:43 12,9 C 92 % 1019,5 hPa 0,0 l/m 7,6 km/h (2 Bft) O-NO 59 0 min 0,000 mm 0,0 UV-I 0 W/m 11,6 C 12,1 C 9,7 km/h (2 Bft) 96,88 %
07.06.2016 04:44 12,9 C 92 % 1019,5 hPa 0,0 l/m 8,6 km/h (2 Bft) O-NO 69 0 min 0,000 mm 0,0 UV-I 0 W/m 11,6 C 11,5 C 12,9 km/h (3 Bft) 95,65 %
07.06.2016 04:45 12,9 C 92 % 1019,5 hPa 0,0 l/m 8,7 km/h (2 Bft) O-NO 62 0 min 0,000 mm 0,0 UV-I 0 W/m 11,6 C 11,5 C 11,3 km/h (2 Bft) 100,00 %
07.06.2016 04:46 12,9 C 92 % 1019,5 hPa 0,0 l/m 7,2 km/h (2 Bft) NO 54 0 min 0,000 mm 0,0 UV-I 0 W/m 11,6 C 12,4 C 9,7 km/h (2 Bft) 93,33 %
07.06.2016 04:47 12,9 C 92 % 1019,5 hPa 0,0 l/m 6,4 km/h (2 Bft) O-NO 63 0 min 0,000 mm 0,0 UV-I 0 W/m 11,6 C 12,9 C 9,7 km/h (2 Bft) 100,00 %
07.06.2016 04:48 12,9 C 92 % 1019,5 hPa 0,0 l/m 5,2 km/h (1 Bft) O-NO 65 0 min 0,000 mm 0,0 UV-I 0 W/m 11,6 C 12,9 C 8,0 km/h (2 Bft) 95,83 %
07.06.2016 04:49 12,9 C 92 % 1019,5 hPa 0,0 l/m 5,5 km/h (1 Bft) O-NO 61 0 min 0,000 mm 0,0 UV-I 0 W/m 11,6 C 12,9 C 8,0 km/h (2 Bft) 100,00 %
07.06.2016 04:50 12,9 C 92 % 1019,5 hPa 0,0 l/m 4,2 km/h (1 Bft) O-NO 61 0 min 0,000 mm 0,0 UV-I 0 W/m 11,6 C 12,9 C 4,8 km/h (1 Bft) 95,83 %
07.06.2016 04:51 12,9 C 92 % 1019,5 hPa 0,0 l/m 5,4 km/h (1 Bft) O-NO 60 0 min 0,000 mm 0,0 UV-I 0 W/m 11,6 C 12,9 C 9,7 km/h (2 Bft) 100,00 %
07.06.2016 04:52 12,9 C 92 % 1019,5 hPa 0,0 l/m 7,1 km/h (2 Bft) NO 39 0 min 0,000 mm 0,0 UV-I 0 W/m 11,6 C 12,5 C 9,7 km/h (2 Bft) 96,30 %
07.06.2016 04:53 12,9 C 92 % 1019,4 hPa 0,0 l/m 6,4 km/h (2 Bft) NO 48 0 min 0,000 mm 0,0 UV-I 0 W/m 11,6 C 12,9 C 8,0 km/h (2 Bft) 96,15 %
07.06.2016 04:54 12,9 C 92 % 1019,5 hPa 0,0 l/m 6,8 km/h (2 Bft) O-NO 69 0 min 0,000 mm 0,0 UV-I 0 W/m 11,6 C 12,7 C 8,0 km/h (2 Bft) 100,00 %
07.06.2016 04:55 12,8 C 92 % 1019,5 hPa 0,0 l/m 6,5 km/h (2 Bft) O-NO 60 0 min 0,000 mm 0,0 UV-I 0 W/m 11,5 C 12,8 C 8,0 km/h (2 Bft) 96,15 %
07.06.2016 04:56 12,8 C 92 % 1019,5 hPa 0,0 l/m 8,4 km/h (2 Bft) O-NO 63 0 min 0,000 mm 0,0 UV-I 0 W/m 11,5 C 11,6 C 12,9 km/h (3 Bft) 100,00 %
07.06.2016 04:57 12,8 C 92 % 1019,5 hPa 0,0 l/m 8,2 km/h (2 Bft) O-NO 71 0 min 0,000 mm 0,0 UV-I 0 W/m 11,5 C 11,7 C 11,3 km/h (2 Bft) 95,65 %
07.06.2016 04:58 12,8 C 92 % 1019,5 hPa 0,0 l/m 6,2 km/h (2 Bft) NO 51 0 min 0,000 mm 0,0 UV-I 0 W/m 11,5 C 12,8 C 9,7 km/h (2 Bft) 100,00 %
07.06.2016 04:59 12,8 C 92 % 1019,5 hPa 0,0 l/m 8,3 km/h (2 Bft) O-NO 59 0 min 0,000 mm 0,0 UV-I 0 W/m 11,5 C 11,6 C 11,3 km/h (2 Bft) 96,15 %
07.06.2016 05:00 12,8 C 92 % 1019,5 hPa 0,0 l/m 5,6 km/h (1 Bft) NO 55 0 min 0,000 mm 0,0 UV-I 0 W/m 11,5 C 12,8 C 6,4 km/h (2 Bft) 100,00 %
07.06.2016 05:01 12,8 C 92 % 1019,5 hPa 0,0 l/m 6,5 km/h (2 Bft) O-NO 64 0 min 0,000 mm 0,0 UV-I 0 W/m 11,5 C 12,8 C 8,0 km/h (2 Bft) 96,30 %
07.06.2016 05:02 12,8 C 92 % 1019,5 hPa 0,0 l/m 6,2 km/h (2 Bft) NO 53 0 min 0,000 mm 0,0 UV-I 0 W/m 11,5 C 12,8 C 8,0 km/h (2 Bft) 100,00 %
07.06.2016 05:03 12,8 C 92 % 1019,5 hPa 0,0 l/m 6,4 km/h (2 Bft) NO 53 0 min 0,000 mm 0,0 UV-I 5 W/m 11,5 C 12,8 C 8,0 km/h (2 Bft) 95,83 %
07.06.2016 05:04 12,8 C 92 % 1019,5 hPa 0,0 l/m 5,3 km/h (1 Bft) NO 46 0 min 0,000 mm 0,0 UV-I 5 W/m 11,5 C 12,8 C 8,0 km/h (2 Bft) 93,10 %
07.06.2016 05:05 12,7 C 92 % 1019,5 hPa 0,0 l/m 5,1 km/h (1 Bft) O 80 0 min 0,000 mm 0,0 UV-I 5 W/m 11,4 C 12,7 C 6,4 km/h (2 Bft) 100,00 %
07.06.2016 05:06 12,7 C 92 % 1019,5 hPa 0,0 l/m 4,9 km/h (1 Bft) O-NO 60 0 min 0,000 mm 0,0 UV-I 5 W/m 11,4 C 12,7 C 6,4 km/h (2 Bft) 92,31 %
07.06.2016 05:07 12,7 C 92 % 1019,5 hPa 0,0 l/m 6,1 km/h (2 Bft) O-NO 57 0 min 0,000 mm 0,0 UV-I 5 W/m 11,4 C 12,7 C 6,4 km/h (2 Bft) 100,00 %
07.06.2016 05:08 12,7 C 92 % 1019,5 hPa 0,0 l/m 7,4 km/h (2 Bft) NO 50 0 min 0,000 mm 0,0 UV-I 5 W/m 11,4 C 12,1 C 9,7 km/h (2 Bft) 95,65 %
07.06.2016 05:09 12,7 C 92 % 1019,5 hPa 0,0 l/m 5,8 km/h (2 Bft) O-NO 57 0 min 0,000 mm 0,0 UV-I 7 W/m 11,4 C 12,7 C 8,0 km/h (2 Bft) 100,00 %
07.06.2016 05:10 12,7 C 92 % 1019,5 hPa 0,0 l/m 5,8 km/h (2 Bft) O-NO 61 0 min 0,000 mm 0,0 UV-I 7 W/m 11,4 C 12,7 C 9,7 km/h (2 Bft) 92,86 %
07.06.2016 05:11 12,7 C 92 % 1019,6 hPa 0,0 l/m 6,3 km/h (2 Bft) NO 49 0 min 0,000 mm 0,0 UV-I 7 W/m 11,4 C 12,7 C 9,7 km/h (2 Bft) 100,00 %
07.06.2016 05:12 12,7 C 92 % 1019,6 hPa 0,0 l/m 7,3 km/h (2 Bft) O-NO 59 0 min 0,000 mm 0,0 UV-I 7 W/m 11,4 C 12,1 C 8,0 km/h (2 Bft) 100,00 %
07.06.2016 05:13 12,6 C 92 % 1019,6 hPa 0,0 l/m 5,8 km/h (2 Bft) O-NO 61 0 min 0,000 mm 0,0 UV-I 8 W/m 11,3 C 12,6 C 8,0 km/h (2 Bft) 100,00 %
07.06.2016 05:14 12,6 C 92 % 1019,5 hPa 0,0 l/m 6,1 km/h (2 Bft) O-NO 57 0 min 0,000 mm 0,0 UV-I 9 W/m 11,3 C 12,6 C 8,0 km/h (2 Bft) 100,00 %
07.06.2016 05:15 12,6 C 92 % 1019,5 hPa 0,0 l/m 6,4 km/h (2 Bft) O-NO 63 0 min 0,000 mm 0,0 UV-I 9 W/m 11,3 C 12,6 C 8,0 km/h (2 Bft) 93,33 %
07.06.2016 05:16 12,6 C 92 % 1019,6 hPa 0,0 l/m 6,0 km/h (2 Bft) NO 53 0 min 0,000 mm 0,0 UV-I 10 W/m 11,3 C 12,6 C 8,0 km/h (2 Bft) 100,00 %
07.06.2016 05:17 12,6 C 92 % 1019,6 hPa 0,0 l/m 7,0 km/h (2 Bft) O-NO 57 1 min 0,000 mm 0,0 UV-I 11 W/m 11,3 C 12,2 C 9,7 km/h (2 Bft) 100,00 %
07.06.2016 05:18 12,6 C 92 % 1019,6 hPa 0,0 l/m 6,4 km/h (2 Bft) NO 49 1 min 0,000 mm 0,0 UV-I 11 W/m 11,3 C 12,6 C 9,7 km/h (2 Bft) 100,00 %
07.06.2016 05:19 12,6 C 92 % 1019,6 hPa 0,0 l/m 7,7 km/h (2 Bft) O-NO 62 1 min 0,000 mm 0,0 UV-I 11 W/m 11,3 C 11,8 C 12,9 km/h (3 Bft) 100,00 %
07.06.2016 05:20 12,6 C 92 % 1019,6 hPa 0,0 l/m 6,9 km/h (2 Bft) NO 55 0 min 0,000 mm 0,0 UV-I 12 W/m 11,3 C 12,3 C 8,0 km/h (2 Bft) 100,00 %
07.06.2016 05:21 12,6 C 92 % 1019,6 hPa 0,0 l/m 5,8 km/h (2 Bft) O-NO 62 0 min 0,000 mm 0,0 UV-I 12 W/m 11,3 C 12,6 C 8,0 km/h (2 Bft) 95,65 %
07.06.2016 05:22 12,6 C 92 % 1019,6 hPa 0,0 l/m 6,5 km/h (2 Bft) NO 53 0 min 0,000 mm 0,0 UV-I 12 W/m 11,3 C 12,6 C 8,0 km/h (2 Bft) 100,00 %
07.06.2016 05:23 12,6 C 92 % 1019,6 hPa 0,0 l/m 6,6 km/h (2 Bft) O-NO 60 0 min 0,000 mm 0,0 UV-I 12 W/m 11,3 C 12,5 C 9,7 km/h (2 Bft) 100,00 %
07.06.2016 05:24 12,7 C 92 % 1019,6 hPa 0,0 l/m 7,1 km/h (2 Bft) O-NO 61 0 min 0,000 mm 0,0 UV-I 13 W/m 11,4 C 12,3 C 9,7 km/h (2 Bft) 100,00 %
07.06.2016 05:25 12,7 C 92 % 1019,6 hPa 0,0 l/m 7,0 km/h (2 Bft) O-NO 62 0 min 0,000 mm 0,0 UV-I 14 W/m 11,4 C 12,3 C 8,0 km/h (2 Bft) 100,00 %
07.06.2016 05:26 12,7 C 92 % 1019,6 hPa 0,0 l/m 5,8 km/h (2 Bft) O-NO 65 0 min 0,000 mm 0,0 UV-I 14 W/m 11,4 C 12,7 C 8,0 km/h (2 Bft) 98,48 %
07.06.2016 05:27 12,7 C 92 % 1019,6 hPa 0,0 l/m 5,7 km/h (1 Bft) O-NO 64 0 min 0,000 mm 0,0 UV-I 14 W/m 11,4 C 12,7 C 9,7 km/h (2 Bft) 100,00 %
07.06.2016 05:28 12,7 C 92 % 1019,6 hPa 0,0 l/m 5,9 km/h (2 Bft) NO 56 0 min 0,000 mm 0,0 UV-I 16 W/m 11,4 C 12,7 C 11,3 km/h (2 Bft) 100,00 %
07.06.2016 05:29 12,7 C 92 % 1019,6 hPa 0,0 l/m 5,3 km/h (1 Bft) O-NO 59 0 min 0,000 mm 0,0 UV-I 16 W/m 11,4 C 12,7 C 6,4 km/h (2 Bft) 100,00 %
07.06.2016 05:30 12,7 C 92 % 1019,6 hPa 0,0 l/m 6,4 km/h (2 Bft) NO 36 0 min 0,000 mm 0,0 UV-I 16 W/m 11,4 C 12,7 C 8,0 km/h (2 Bft) 100,00 %
07.06.2016 05:31 12,7 C 92 % 1019,6 hPa 0,0 l/m 6,5 km/h (2 Bft) NO 54 0 min 0,000 mm 0,0 UV-I 18 W/m 11,4 C 12,7 C 8,0 km/h (2 Bft) 100,00 %
07.06.2016 05:32 12,7 C 92 % 1019,7 hPa 0,0 l/m 6,1 km/h (2 Bft) NO 50 0 min 0,000 mm 0,0 UV-I 18 W/m 11,4 C 12,7 C 9,7 km/h (2 Bft) 100,00 %
07.06.2016 05:33 12,7 C 92 % 1019,7 hPa 0,0 l/m 6,1 km/h (2 Bft) NO 42 0 min 0,000 mm 0,0 UV-I 18 W/m 11,4 C 12,7 C 8,0 km/h (2 Bft) 96,15 %
07.06.2016 05:34 12,7 C 92 % 1019,7 hPa 0,0 l/m 4,6 km/h (1 Bft) N-NO 32 0 min 0,000 mm 0,0 UV-I 18 W/m 11,4 C 12,7 C 6,4 km/h (2 Bft) 100,00 %
07.06.2016 05:35 12,7 C 92 % 1019,6 hPa 0,0 l/m 7,8 km/h (2 Bft) NO 40 0 min 0,000 mm 0,0 UV-I 19 W/m 11,4 C 11,8 C 9,7 km/h (2 Bft) 100,00 %
07.06.2016 05:36 12,6 C 92 % 1019,6 hPa 0,0 l/m 5,2 km/h (1 Bft) NO 45 0 min 0,000 mm 0,0 UV-I 19 W/m 11,3 C 12,6 C 8,0 km/h (2 Bft) 100,00 %
07.06.2016 05:37 12,6 C 92 % 1019,7 hPa 0,0 l/m 5,5 km/h (1 Bft) NO 38 0 min 0,000 mm 0,0 UV-I 19 W/m 11,3 C 12,6 C 6,4 km/h (2 Bft) 100,00 %
07.06.2016 05:38 12,6 C 92 % 1019,6 hPa 0,0 l/m 4,8 km/h (1 Bft) O-NO 59 0 min 0,000 mm 0,0 UV-I 19 W/m 11,3 C 12,6 C 6,4 km/h (2 Bft) 100,00 %
07.06.2016 05:39 12,6 C 93 % 1019,7 hPa 0,0 l/m 5,4 km/h (1 Bft) NO 46 0 min 0,000 mm 0,0 UV-I 21 W/m 11,5 C 12,6 C 8,0 km/h (2 Bft) 100,00 %
07.06.2016 05:40 12,6 C 93 % 1019,6 hPa 0,0 l/m 6,4 km/h (2 Bft) NO 46 0 min 0,000 mm 0,0 UV-I 21 W/m 11,5 C 12,6 C 11,3 km/h (2 Bft) 100,00 %
07.06.2016 05:41 12,6 C 92 % 1019,7 hPa 0,0 l/m 5,9 km/h (2 Bft) O-NO 63 0 min 0,000 mm 0,0 UV-I 21 W/m 11,3 C 12,6 C 8,0 km/h (2 Bft) 100,00 %
07.06.2016 05:42 12,6 C 92 % 1019,6 hPa 0,0 l/m 4,4 km/h (1 Bft) O-NO 71 0 min 0,000 mm 0,0 UV-I 21 W/m 11,3 C 12,6 C 6,4 km/h (2 Bft) 100,00 %
07.06.2016 05:43 12,6 C 92 % 1019,7 hPa 0,0 l/m 5,4 km/h (1 Bft) O-NO 64 0 min 0,000 mm 0,0 UV-I 23 W/m 11,3 C 12,6 C 8,0 km/h (2 Bft) 100,00 %
07.06.2016 05:44 12,7 C 92 % 1019,7 hPa 0,0 l/m 6,0 km/h (2 Bft) NO 34 0 min 0,000 mm 0,0 UV-I 23 W/m 11,4 C 12,7 C 8,0 km/h (2 Bft) 96,15 %
07.06.2016 05:45 12,7 C 92 % 1019,7 hPa 0,0 l/m 6,0 km/h (2 Bft) NO 38 0 min 0,000 mm 0,0 UV-I 23 W/m 11,4 C 12,7 C 8,0 km/h (2 Bft) 100,00 %
07.06.2016 05:46 12,7 C 92 % 1019,7 hPa 0,0 l/m 6,1 km/h (2 Bft) O-NO 57 0 min 0,000 mm 0,0 UV-I 24 W/m 11,4 C 12,7 C 8,0 km/h (2 Bft) 100,00 %
07.06.2016 05:47 12,7 C 92 % 1019,7 hPa 0,0 l/m 6,4 km/h (2 Bft) O-NO 61 0 min 0,000 mm 0,0 UV-I 25 W/m 11,4 C 12,7 C 9,7 km/h (2 Bft) 100,00 %
07.06.2016 05:48 12,7 C 92 % 1019,7 hPa 0,0 l/m 4,8 km/h (1 Bft) NO 44 0 min 0,000 mm 0,0 UV-I 25 W/m 11,4 C 12,7 C 6,4 km/h (2 Bft) 100,00 %
07.06.2016 05:49 12,7 C 92 % 1019,7 hPa 0,0 l/m 4,6 km/h (1 Bft) N-NO 32 0 min 0,000 mm 0,0 UV-I 25 W/m 11,4 C 12,7 C 6,4 km/h (2 Bft) 100,00 %
07.06.2016 05:50 12,8 C 92 % 1019,7 hPa 0,0 l/m 7,5 km/h (2 Bft) NO 40 0 min 0,000 mm 0,0 UV-I 25 W/m 11,5 C 12,1 C 12,9 km/h (3 Bft) 100,00 %
07.06.2016 05:51 12,8 C 92 % 1019,7 hPa 0,0 l/m 7,0 km/h (2 Bft) NO 41 0 min 0,000 mm 0,0 UV-I 26 W/m 11,5 C 12,4 C 8,0 km/h (2 Bft) 100,00 %
07.06.2016 05:52 12,8 C 92 % 1019,8 hPa 0,0 l/m 6,0 km/h (2 Bft) NO 49 0 min 0,000 mm 0,0 UV-I 26 W/m 11,5 C 12,8 C 8,0 km/h (2 Bft) 100,00 %
07.06.2016 05:53 12,8 C 92 % 1019,8 hPa 0,0 l/m 6,0 km/h (2 Bft) O 79 0 min 0,000 mm 0,0 UV-I 26 W/m 11,5 C 12,8 C 9,7 km/h (2 Bft) 100,00 %
07.06.2016 05:54 12,8 C 92 % 1019,8 hPa 0,0 l/m 4,5 km/h (1 Bft) NO 38 0 min 0,000 mm 0,0 UV-I 26 W/m 11,5 C 12,8 C 6,4 km/h (2 Bft) 100,00 %
07.06.2016 05:55 12,8 C 92 % 1019,8 hPa 0,0 l/m 4,9 km/h (1 Bft) NO 48 0 min 0,000 mm 0,0 UV-I 26 W/m 11,5 C 12,8 C 8,0 km/h (2 Bft) 100,00 %
07.06.2016 05:56 12,8 C 92 % 1019,8 hPa 0,0 l/m 5,6 km/h (1 Bft) O-NO 68 0 min 0,000 mm 0,0 UV-I 28 W/m 11,5 C 12,8 C 9,7 km/h (2 Bft) 100,00 %
07.06.2016 05:57 12,8 C 91 % 1019,8 hPa 0,0 l/m 5,7 km/h (1 Bft) O-NO 60 0 min 0,000 mm 0,0 UV-I 28 W/m 11,4 C 12,8 C 8,0 km/h (2 Bft) 100,00 %
07.06.2016 05:58 12,8 C 91 % 1019,8 hPa 0,0 l/m 4,4 km/h (1 Bft) O-NO 60 0 min 0,000 mm 0,0 UV-I 28 W/m 11,4 C 12,8 C 6,4 km/h (2 Bft) 100,00 %
07.06.2016 05:59 12,9 C 91 % 1019,8 hPa 0,0 l/m 5,1 km/h (1 Bft) O-NO 67 0 min 0,000 mm 0,0 UV-I 28 W/m 11,5 C 12,9 C 9,7 km/h (2 Bft) 100,00 %
07.06.2016 06:00 12,9 C 91 % 1019,8 hPa 0,0 l/m 6,0 km/h (2 Bft) NO 35 0 min 0,025 mm 0,0 UV-I 30 W/m 11,5 C 12,9 C 8,0 km/h (2 Bft) 100,00 %
07.06.2016 06:01 12,9 C 91 % 1019,8 hPa 0,0 l/m 6,2 km/h (2 Bft) O-NO 69 0 min 0,000 mm 0,0 UV-I 30 W/m 11,5 C 12,9 C 9,7 km/h (2 Bft) 100,00 %
07.06.2016 06:02 12,9 C 91 % 1019,9 hPa 0,0 l/m 6,8 km/h (2 Bft) NO 46 0 min 0,000 mm 0,0 UV-I 30 W/m 11,5 C 12,7 C 9,7 km/h (2 Bft) 95,65 %
07.06.2016 06:03 12,9 C 91 % 1019,8 hPa 0,0 l/m 5,4 km/h (1 Bft) NO 51 0 min 0,000 mm 0,0 UV-I 30 W/m 11,5 C 12,9 C 8,0 km/h (2 Bft) 100,00 %
07.06.2016 06:04 12,9 C 91 % 1019,8 hPa 0,0 l/m 5,4 km/h (1 Bft) O-NO 61 0 min 0,000 mm 0,0 UV-I 30 W/m 11,5 C 12,9 C 8,0 km/h (2 Bft) 100,00 %
07.06.2016 06:05 12,9 C 91 % 1019,8 hPa 0,0 l/m 5,0 km/h (1 Bft) NO 46 0 min 0,000 mm 0,0 UV-I 31 W/m 11,5 C 12,9 C 6,4 km/h (2 Bft) 100,00 %
07.06.2016 06:06 13,0 C 91 % 1019,9 hPa 0,0 l/m 5,0 km/h (1 Bft) NO 40 0 min 0,000 mm 0,0 UV-I 32 W/m 11,6 C 13,0 C 6,4 km/h (2 Bft) 100,00 %
07.06.2016 06:07 13,0 C 91 % 1019,9 hPa 0,0 l/m 5,7 km/h (1 Bft) NO 55 0 min 0,000 mm 0,0 UV-I 32 W/m 11,6 C 13,0 C 8,0 km/h (2 Bft) 100,00 %
07.06.2016 06:08 13,0 C 91 % 1019,9 hPa 0,0 l/m 3,8 km/h (1 Bft) O-NO 57 0 min 0,000 mm 0,0 UV-I 32 W/m 11,6 C 13,0 C 6,4 km/h (2 Bft) 100,00 %
07.06.2016 06:09 13,0 C 91 % 1019,9 hPa 0,0 l/m 3,9 km/h (1 Bft) O-NO 57 0 min 0,000 mm 0,0 UV-I 32 W/m 11,6 C 13,0 C 6,4 km/h (2 Bft) 100,00 %
07.06.2016 06:10 13,1 C 91 % 1019,9 hPa 0,0 l/m 5,8 km/h (2 Bft) NO 47 0 min 0,000 mm 0,0 UV-I 33 W/m 11,7 C 13,1 C 6,4 km/h (2 Bft) 100,00 %
07.06.2016 06:11 13,1 C 91 % 1019,9 hPa 0,0 l/m 6,0 km/h (2 Bft) O-NO 67 0 min 0,000 mm 0,0 UV-I 33 W/m 11,7 C 13,1 C 8,0 km/h (2 Bft) 96,15 %
07.06.2016 06:12 13,1 C 91 % 1019,9 hPa 0,0 l/m 6,9 km/h (2 Bft) O-NO 60 0 min 0,000 mm 0,0 UV-I 33 W/m 11,7 C 12,8 C 9,7 km/h (2 Bft) 100,00 %
07.06.2016 06:13 13,1 C 91 % 1020,0 hPa 0,0 l/m 5,9 km/h (2 Bft) NO 34 0 min 0,000 mm 0,0 UV-I 33 W/m 11,7 C 13,1 C 8,0 km/h (2 Bft) 100,00 %
07.06.2016 06:14 13,1 C 91 % 1020,0 hPa 0,0 l/m 8,0 km/h (2 Bft) O-NO 65 0 min 0,000 mm 0,0 UV-I 33 W/m 11,7 C 12,1 C 11,3 km/h (2 Bft) 100,00 %
07.06.2016 06:15 13,1 C 91 % 1019,9 hPa 0,0 l/m 5,7 km/h (1 Bft) O-NO 61 0 min 0,000 mm 0,0 UV-I 35 W/m 11,7 C 13,1 C 8,0 km/h (2 Bft) 100,00 %
07.06.2016 06:16 13,1 C 91 % 1019,9 hPa 0,0 l/m 4,6 km/h (1 Bft) NO 55 0 min 0,000 mm 0,0 UV-I 35 W/m 11,7 C 13,1 C 6,4 km/h (2 Bft) 100,00 %
07.06.2016 06:17 13,2 C 91 % 1020,0 hPa 0,0 l/m 4,4 km/h (1 Bft) O-NO 74 0 min 0,000 mm 0,0 UV-I 35 W/m 11,8 C 13,2 C 4,8 km/h (1 Bft) 100,00 %
07.06.2016 06:18 13,2 C 91 % 1020,0 hPa 0,0 l/m 5,6 km/h (1 Bft) O-NO 71 0 min 0,000 mm 0,0 UV-I 35 W/m 11,8 C 13,2 C 8,0 km/h (2 Bft) 100,00 %
07.06.2016 06:19 13,2 C 91 % 1020,0 hPa 0,0 l/m 6,2 km/h (2 Bft) O-NO 63 0 min 0,000 mm 0,0 UV-I 35 W/m 11,8 C 13,2 C 9,7 km/h (2 Bft) 100,00 %
07.06.2016 06:20 13,2 C 91 % 1020,0 hPa 0,0 l/m 5,2 km/h (1 Bft) O-NO 69 0 min 0,000 mm 0,0 UV-I 37 W/m 11,8 C 13,2 C 6,4 km/h (2 Bft) 100,00 %
07.06.2016 06:21 13,2 C 91 % 1020,0 hPa 0,0 l/m 4,8 km/h (1 Bft) O-NO 60 0 min 0,000 mm 0,0 UV-I 37 W/m 11,8 C 13,2 C 6,4 km/h (2 Bft) 100,00 %
07.06.2016 06:22 13,2 C 91 % 1020,0 hPa 0,0 l/m 4,5 km/h (1 Bft) O-NO 74 0 min 0,000 mm 0,0 UV-I 37 W/m 11,8 C 13,2 C 6,4 km/h (2 Bft) 100,00 %
07.06.2016 06:23 13,2 C 91 % 1020,0 hPa 0,0 l/m 4,5 km/h (1 Bft) O-NO 59 0 min 0,000 mm 0,0 UV-I 37 W/m 11,8 C 13,2 C 6,4 km/h (2 Bft) 100,00 %
07.06.2016 06:24 13,2 C 91 % 1020,0 hPa 0,0 l/m 5,8 km/h (2 Bft) O-NO 65 0 min 0,000 mm 0,0 UV-I 39 W/m 11,8 C 13,2 C 8,0 km/h (2 Bft) 100,00 %
07.06.2016 06:25 13,3 C 90 % 1020,0 hPa 0,0 l/m 6,0 km/h (2 Bft) NO 51 0 min 0,000 mm 0,0 UV-I 39 W/m 11,7 C 13,3 C 9,7 km/h (2 Bft) 100,00 %
07.06.2016 06:26 13,3 C 90 % 1020,1 hPa 0,0 l/m 6,0 km/h (2 Bft) NO 43 0 min 0,000 mm 0,0 UV-I 39 W/m 11,7 C 13,3 C 9,7 km/h (2 Bft) 96,15 %
07.06.2016 06:27 13,3 C 90 % 1020,1 hPa 0,0 l/m 5,5 km/h (1 Bft) NO 42 0 min 0,000 mm 0,0 UV-I 39 W/m 11,7 C 13,3 C 9,7 km/h (2 Bft) 100,00 %
07.06.2016 06:28 13,3 C 90 % 1020,1 hPa 0,0 l/m 6,9 km/h (2 Bft) NO 44 0 min 0,000 mm 0,0 UV-I 39 W/m 11,7 C 13,0 C 9,7 km/h (2 Bft) 100,00 %
07.06.2016 06:29 13,3 C 90 % 1020,1 hPa 0,0 l/m 6,8 km/h (2 Bft) N-NO 22 0 min 0,000 mm 0,0 UV-I 40 W/m 11,7 C 13,1 C 11,3 km/h (2 Bft) 100,00 %
07.06.2016 06:30 13,3 C 90 % 1020,1 hPa 0,0 l/m 7,5 km/h (2 Bft) NO 43 0 min 0,000 mm 0,0 UV-I 40 W/m 11,7 C 12,6 C 11,3 km/h (2 Bft) 100,00 %
07.06.2016 06:31 13,3 C 89 % 1020,1 hPa 0,0 l/m 6,3 km/h (2 Bft) O-NO 67 0 min 0,000 mm 0,0 UV-I 49 W/m 11,5 C 13,3 C 8,0 km/h (2 Bft) 100,00 %
07.06.2016 06:32 13,4 C 89 % 1020,2 hPa 0,0 l/m 8,7 km/h (2 Bft) NO 49 0 min 0,000 mm 0,0 UV-I 71 W/m 11,6 C 12,0 C 14,5 km/h (3 Bft) 95,65 %
07.06.2016 06:33 13,4 C 89 % 1020,2 hPa 0,0 l/m 6,4 km/h (2 Bft) O-NO 65 0 min 0,000 mm 0,0 UV-I 88 W/m 11,6 C 13,4 C 12,9 km/h (3 Bft) 100,00 %
07.06.2016 06:34 13,4 C 89 % 1020,2 hPa 0,0 l/m 5,0 km/h (1 Bft) O-NO 59 0 min 0,000 mm 0,0 UV-I 91 W/m 11,6 C 13,4 C 6,4 km/h (2 Bft) 100,00 %
07.06.2016 06:35 13,4 C 89 % 1020,2 hPa 0,0 l/m 5,8 km/h (2 Bft) O-NO 58 0 min 0,000 mm 0,0 UV-I 93 W/m 11,6 C 13,4 C 8,0 km/h (2 Bft) 100,00 %
07.06.2016 06:36 13,5 C 89 % 1020,1 hPa 0,0 l/m 7,7 km/h (2 Bft) O-NO 62 0 min 0,000 mm 0,0 UV-I 97 W/m 11,7 C 12,7 C 11,3 km/h (2 Bft) 100,00 %
07.06.2016 06:37 13,5 C 89 % 1020,2 hPa 0,0 l/m 6,0 km/h (2 Bft) O-NO 64 0 min 0,000 mm 0,0 UV-I 104 W/m 11,7 C 13,5 C 6,4 km/h (2 Bft) 100,00 %
07.06.2016 06:38 13,5 C 88 % 1020,2 hPa 0,0 l/m 5,7 km/h (1 Bft) NO 55 0 min 0,000 mm 0,0 UV-I 108 W/m 11,6 C 13,5 C 8,0 km/h (2 Bft) 100,00 %
07.06.2016 06:39 13,5 C 88 % 1020,2 hPa 0,0 l/m 7,8 km/h (2 Bft) O-NO 74 0 min 0,000 mm 0,0 UV-I 108 W/m 11,6 C 12,6 C 12,9 km/h (3 Bft) 96,30 %
07.06.2016 06:40 13,6 C 88 % 1020,2 hPa 0,0 l/m 7,1 km/h (2 Bft) O-NO 65 0 min 0,000 mm 0,0 UV-I 106 W/m 11,6 C 13,2 C 9,7 km/h (2 Bft) 100,00 %
07.06.2016 06:41 13,6 C 88 % 1020,2 hPa 0,0 l/m 6,0 km/h (2 Bft) O-NO 70 0 min 0,000 mm 0,0 UV-I 104 W/m 11,6 C 13,6 C 8,0 km/h (2 Bft) 96,30 %
07.06.2016 06:42 13,6 C 88 % 1020,2 hPa 0,0 l/m 5,6 km/h (1 Bft) O-NO 57 0 min 0,000 mm 0,0 UV-I 105 W/m 11,6 C 13,6 C 6,4 km/h (2 Bft) 100,00 %
07.06.2016 06:43 13,7 C 88 % 1020,2 hPa 0,0 l/m 7,5 km/h (2 Bft) NO 41 0 min 0,000 mm 0,0 UV-I 110 W/m 11,7 C 13,0 C 12,9 km/h (3 Bft) 97,37 %
07.06.2016 06:44 13,7 C 88 % 1020,2 hPa 0,0 l/m 6,2 km/h (2 Bft) O-NO 65 0 min 0,000 mm 0,0 UV-I 114 W/m 11,7 C 13,7 C 8,0 km/h (2 Bft) 100,00 %
07.06.2016 06:45 13,7 C 88 % 1020,2 hPa 0,0 l/m 7,3 km/h (2 Bft) NO 51 0 min 0,000 mm 0,0 UV-I 117 W/m 11,7 C 13,2 C 9,7 km/h (2 Bft) 95,65 %
07.06.2016 06:46 13,7 C 88 % 1020,2 hPa 0,0 l/m 7,5 km/h (2 Bft) O-NO 65 0 min 0,000 mm 0,0 UV-I 123 W/m 11,7 C 13,0 C 9,7 km/h (2 Bft) 100,00 %
07.06.2016 06:47 13,7 C 87 % 1020,2 hPa 0,0 l/m 8,0 km/h (2 Bft) O-NO 61 0 min 0,000 mm 0,0 UV-I 127 W/m 11,6 C 12,7 C 11,3 km/h (2 Bft) 96,15 %
07.06.2016 06:48 13,7 C 87 % 1020,2 hPa 0,0 l/m 9,2 km/h (2 Bft) O-NO 59 0 min 0,000 mm 0,0 UV-I 130 W/m 11,6 C 12,1 C 11,3 km/h (2 Bft) 96,30 %
07.06.2016 06:49 13,8 C 87 % 1020,2 hPa 0,0 l/m 9,0 km/h (2 Bft) NO 55 0 min 0,000 mm 0,0 UV-I 135 W/m 11,7 C 12,3 C 12,9 km/h (3 Bft) 100,00 %
07.06.2016 06:50 13,8 C 87 % 1020,3 hPa 0,0 l/m 7,7 km/h (2 Bft) O-NO 59 0 min 0,000 mm 0,0 UV-I 137 W/m 11,7 C 13,0 C 9,7 km/h (2 Bft) 100,00 %
07.06.2016 06:51 13,8 C 86 % 1020,3 hPa 0,0 l/m 5,9 km/h (2 Bft) O-NO 63 1 min 0,000 mm 0,0 UV-I 140 W/m 11,5 C 13,8 C 9,7 km/h (2 Bft) 92,68 %
07.06.2016 06:52 13,8 C 86 % 1020,3 hPa 0,0 l/m 10,4 km/h (2 Bft) NO 50 1 min 0,000 mm 0,0 UV-I 142 W/m 11,5 C 11,6 C 14,5 km/h (3 Bft) 91,67 %
07.06.2016 06:53 13,9 C 86 % 1020,3 hPa 0,0 l/m 8,3 km/h (2 Bft) O-NO 58 1 min 0,000 mm 0,0 UV-I 145 W/m 11,6 C 12,8 C 9,7 km/h (2 Bft) 100,00 %
07.06.2016 06:54 13,9 C 86 % 1020,3 hPa 0,0 l/m 6,8 km/h (2 Bft) NO 45 1 min 0,000 mm 0,0 UV-I 148 W/m 11,6 C 13,7 C 9,7 km/h (2 Bft) 96,30 %
07.06.2016 06:55 13,9 C 86 % 1020,3 hPa 0,0 l/m 5,8 km/h (2 Bft) O-NO 63 1 min 0,000 mm 0,0 UV-I 149 W/m 11,6 C 13,9 C 8,0 km/h (2 Bft) 95,65 %
07.06.2016 06:56 13,9 C 85 % 1020,3 hPa 0,0 l/m 7,6 km/h (2 Bft) O-NO 67 1 min 0,000 mm 0,0 UV-I 153 W/m 11,4 C 13,2 C 9,7 km/h (2 Bft) 100,00 %
07.06.2016 06:57 13,9 C 85 % 1020,3 hPa 0,0 l/m 5,8 km/h (2 Bft) O-NO 64 1 min 0,000 mm 0,0 UV-I 156 W/m 11,4 C 13,9 C 8,0 km/h (2 Bft) 96,15 %
07.06.2016 06:58 14,0 C 85 % 1020,3 hPa 0,0 l/m 6,5 km/h (2 Bft) O-NO 57 1 min 0,000 mm 0,0 UV-I 157 W/m 11,5 C 14,0 C 12,9 km/h (3 Bft) 100,00 %
07.06.2016 06:59 14,0 C 86 % 1020,3 hPa 0,0 l/m 7,0 km/h (2 Bft) O-NO 58 1 min 0,000 mm 0,0 UV-I 160 W/m 11,7 C 13,6 C 8,0 km/h (2 Bft) 95,65 %
07.06.2016 07:00 14,1 C 86 % 1020,3 hPa 0,0 l/m 8,9 km/h (2 Bft) NO 48 1 min 0,051 mm 0,0 UV-I 163 W/m 11,8 C 12,7 C 12,9 km/h (3 Bft) 100,00 %
07.06.2016 07:02 14,1 C 84 % 1020,3 hPa 0,0 l/m 8,7 km/h (2 Bft) NO 39 2 min 0,000 mm 0,0 UV-I 167 W/m 11,4 C 12,8 C 12,9 km/h (3 Bft) 96,00 %
07.06.2016 07:03 14,1 C 84 % 1020,3 hPa 0,0 l/m 6,8 km/h (2 Bft) O-NO 59 1 min 0,000 mm 0,0 UV-I 172 W/m 11,4 C 13,9 C 9,7 km/h (2 Bft) 95,65 %
07.06.2016 07:04 14,2 C 85 % 1020,3 hPa 0,0 l/m 8,1 km/h (2 Bft) NO 50 1 min 0,000 mm 0,0 UV-I 175 W/m 11,7 C 13,2 C 14,5 km/h (3 Bft) 95,83 %
07.06.2016 07:05 14,2 C 84 % 1020,3 hPa 0,0 l/m 11,8 km/h (2 Bft) NO 52 1 min 0,000 mm 0,0 UV-I 178 W/m 11,5 C 11,4 C 16,1 km/h (3 Bft) 100,00 %
07.06.2016 07:06 14,2 C 84 % 1020,3 hPa 0,0 l/m 11,8 km/h (2 Bft) O-NO 57 1 min 0,000 mm 0,0 UV-I 179 W/m 11,5 C 11,4 C 14,5 km/h (3 Bft) 96,55 %
07.06.2016 07:07 14,2 C 84 % 1020,4 hPa 0,0 l/m 8,5 km/h (2 Bft) O 83 1 min 0,000 mm 0,0 UV-I 182 W/m 11,5 C 13,0 C 12,9 km/h (3 Bft) 100,00 %
07.06.2016 07:08 14,2 C 83 % 1020,3 hPa 0,0 l/m 13,9 km/h (3 Bft) O-NO 57 1 min 0,000 mm 0,0 UV-I 185 W/m 11,4 C 10,6 C 19,3 km/h (3 Bft) 91,30 %
07.06.2016 07:09 14,2 C 83 % 1020,3 hPa 0,0 l/m 11,3 km/h (2 Bft) NO 53 1 min 0,000 mm 0,0 UV-I 189 W/m 11,4 C 11,6 C 14,5 km/h (3 Bft) 100,00 %
07.06.2016 07:10 14,2 C 83 % 1020,3 hPa 0,0 l/m 8,9 km/h (2 Bft) O-NO 67 1 min 0,000 mm 0,0 UV-I 192 W/m 11,4 C 12,8 C 12,9 km/h (3 Bft) 92,86 %
07.06.2016 07:11 14,3 C 83 % 1020,3 hPa 0,0 l/m 13,0 km/h (3 Bft) O-NO 63 1 min 0,000 mm 0,4 UV-I 195 W/m 11,5 C 11,1 C 17,7 km/h (3 Bft) 100,00 %
07.06.2016 07:12 14,3 C 83 % 1020,4 hPa 0,0 l/m 11,9 km/h (2 Bft) O-NO 68 1 min 0,000 mm 0,5 UV-I 197 W/m 11,5 C 11,5 C 16,1 km/h (3 Bft) 95,65 %
07.06.2016 07:13 14,3 C 82 % 1020,4 hPa 0,0 l/m 9,7 km/h (2 Bft) NO 55 1 min 0,000 mm 0,5 UV-I 200 W/m 11,3 C 12,5 C 12,9 km/h (3 Bft) 100,00 %
07.06.2016 07:14 14,3 C 83 % 1020,4 hPa 0,0 l/m 12,9 km/h (3 Bft) NO 55 1 min 0,000 mm 0,5 UV-I 203 W/m 11,5 C 11,1 C 17,7 km/h (3 Bft) 100,00 %
07.06.2016 07:15 14,3 C 83 % 1020,4 hPa 0,0 l/m 8,7 km/h (2 Bft) NO 49 1 min 0,000 mm 0,5 UV-I 205 W/m 11,5 C 13,0 C 12,9 km/h (3 Bft) 95,83 %
07.06.2016 07:16 14,4 C 82 % 1020,4 hPa 0,0 l/m 9,1 km/h (2 Bft) NO 50 1 min 0,000 mm 0,5 UV-I 208 W/m 11,4 C 12,9 C 11,3 km/h (2 Bft) 95,65 %
07.06.2016 07:17 14,4 C 82 % 1020,4 hPa 0,0 l/m 8,1 km/h (2 Bft) N-NO 30 1 min 0,000 mm 0,5 UV-I 211 W/m 11,4 C 13,4 C 9,7 km/h (2 Bft) 100,00 %
07.06.2016 07:18 14,4 C 83 % 1020,4 hPa 0,0 l/m 10,0 km/h (2 Bft) O-NO 66 1 min 0,000 mm 0,5 UV-I 214 W/m 11,5 C 12,5 C 14,5 km/h (3 Bft) 100,00 %
07.06.2016 07:19 14,4 C 82 % 1020,4 hPa 0,0 l/m 8,1 km/h (2 Bft) O-NO 58 1 min 0,000 mm 0,5 UV-I 217 W/m 11,4 C 13,4 C 14,5 km/h (3 Bft) 100,00 %
07.06.2016 07:20 14,5 C 83 % 1020,4 hPa 0,0 l/m 6,9 km/h (2 Bft) O-NO 58 1 min 0,000 mm 0,5 UV-I 221 W/m 11,6 C 14,2 C 12,9 km/h (3 Bft) 100,00 %
07.06.2016 07:21 14,5 C 82 % 1020,4 hPa 0,0 l/m 8,4 km/h (2 Bft) O-NO 64 1 min 0,000 mm 0,5 UV-I 224 W/m 11,5 C 13,4 C 12,9 km/h (3 Bft) 96,15 %
07.06.2016 07:22 14,5 C 82 % 1020,4 hPa 0,0 l/m 5,8 km/h (2 Bft) O-NO 63 1 min 0,000 mm 0,6 UV-I 228 W/m 11,5 C 14,5 C 8,0 km/h (2 Bft) 96,88 %
07.06.2016 07:23 14,6 C 82 % 1020,4 hPa 0,0 l/m 10,9 km/h (2 Bft) NO 55 1 min 0,000 mm 0,6 UV-I 230 W/m 11,6 C 12,3 C 16,1 km/h (3 Bft) 100,00 %
07.06.2016 07:24 14,6 C 81 % 1020,4 hPa 0,0 l/m 10,9 km/h (2 Bft) N 11 1 min 0,000 mm 0,6 UV-I 235 W/m 11,4 C 12,3 C 14,5 km/h (3 Bft) 100,00 %
07.06.2016 07:25 14,6 C 82 % 1020,4 hPa 0,0 l/m 7,7 km/h (2 Bft) N-NO 19 1 min 0,000 mm 0,6 UV-I 238 W/m 11,6 C 13,8 C 14,5 km/h (3 Bft) 100,00 %
07.06.2016 07:26 14,6 C 81 % 1020,5 hPa 0,0 l/m 9,4 km/h (2 Bft) N-NO 33 1 min 0,000 mm 0,6 UV-I 240 W/m 11,4 C 13,0 C 12,9 km/h (3 Bft) 100,00 %
07.06.2016 07:27 14,7 C 83 % 1020,4 hPa 0,0 l/m 11,1 km/h (2 Bft) NO 44 1 min 0,000 mm 0,6 UV-I 242 W/m 11,8 C 12,3 C 16,1 km/h (3 Bft) 100,00 %
07.06.2016 07:28 14,7 C 82 % 1020,5 hPa 0,0 l/m 10,1 km/h (2 Bft) NO 53 1 min 0,000 mm 0,6 UV-I 243 W/m 11,7 C 12,7 C 14,5 km/h (3 Bft) 100,00 %
07.06.2016 07:29 14,7 C 82 % 1020,4 hPa 0,0 l/m 7,3 km/h (2 Bft) NO 39 1 min 0,000 mm 0,6 UV-I 243 W/m 11,7 C 14,2 C 9,7 km/h (2 Bft) 100,00 %
07.06.2016 07:30 14,7 C 81 % 1020,5 hPa 0,0 l/m 10,8 km/h (2 Bft) NO 44 1 min 0,000 mm 0,6 UV-I 243 W/m 11,5 C 12,4 C 14,5 km/h (3 Bft) 100,00 %
07.06.2016 07:31 14,7 C 82 % 1020,5 hPa 0,0 l/m 8,6 km/h (2 Bft) NO 40 1 min 0,000 mm 0,6 UV-I 248 W/m 11,7 C 13,5 C 11,3 km/h (2 Bft) 100,00 %
07.06.2016 07:32 14,8 C 80 % 1020,5 hPa 0,0 l/m 6,8 km/h (2 Bft) N-NO 21 1 min 0,000 mm 0,7 UV-I 254 W/m 11,4 C 14,6 C 9,7 km/h (2 Bft) 100,00 %
07.06.2016 07:33 14,8 C 80 % 1020,5 hPa 0,0 l/m 7,1 km/h (2 Bft) NO 55 1 min 0,000 mm 0,7 UV-I 260 W/m 11,4 C 14,4 C 11,3 km/h (2 Bft) 100,00 %
07.06.2016 07:34 14,8 C 80 % 1020,5 hPa 0,0 l/m 11,8 km/h (2 Bft) NO 50 1 min 0,000 mm 0,7 UV-I 269 W/m 11,4 C 12,1 C 17,7 km/h (3 Bft) 96,30 %
07.06.2016 07:35 14,8 C 80 % 1020,5 hPa 0,0 l/m 11,2 km/h (2 Bft) NO 51 1 min 0,000 mm 0,7 UV-I 278 W/m 11,4 C 12,4 C 17,7 km/h (3 Bft) 100,00 %
07.06.2016 07:36 14,9 C 79 % 1020,5 hPa 0,0 l/m 8,3 km/h (2 Bft) O-NO 59 1 min 0,000 mm 0,7 UV-I 282 W/m 11,3 C 13,8 C 14,5 km/h (3 Bft) 100,00 %
07.06.2016 07:37 14,9 C 80 % 1020,5 hPa 0,0 l/m 10,6 km/h (2 Bft) O-NO 63 1 min 0,000 mm 0,7 UV-I 282 W/m 11,5 C 12,7 C 14,5 km/h (3 Bft) 100,00 %
07.06.2016 07:38 14,9 C 79 % 1020,5 hPa 0,0 l/m 16,0 km/h (3 Bft) O-NO 64 1 min 0,000 mm 0,7 UV-I 283 W/m 11,3 C 10,7 C 20,9 km/h (4 Bft) 100,00 %
07.06.2016 07:39 14,9 C 78 % 1020,5 hPa 0,0 l/m 13,1 km/h (3 Bft) O-NO 58 1 min 0,000 mm 0,7 UV-I 283 W/m 11,1 C 11,7 C 17,7 km/h (3 Bft) 100,00 %
07.06.2016 07:40 14,9 C 78 % 1020,6 hPa 0,0 l/m 8,4 km/h (2 Bft) N-NO 25 1 min 0,000 mm 0,7 UV-I 285 W/m 11,1 C 13,8 C 11,3 km/h (2 Bft) 100,00 %
07.06.2016 07:41 15,0 C 79 % 1020,6 hPa 0,0 l/m 10,9 km/h (2 Bft) O-NO 60 1 min 0,000 mm 0,8 UV-I 288 W/m 11,4 C 12,7 C 14,5 km/h (3 Bft) 95,83 %
07.06.2016 07:42 15,1 C 78 % 1020,6 hPa 0,0 l/m 10,8 km/h (2 Bft) O-NO 74 1 min 0,000 mm 0,8 UV-I 290 W/m 11,3 C 12,9 C 16,1 km/h (3 Bft) 100,00 %
07.06.2016 07:43 15,1 C 78 % 1020,6 hPa 0,0 l/m 9,3 km/h (2 Bft) N-NO 31 1 min 0,000 mm 0,8 UV-I 293 W/m 11,3 C 13,6 C 16,1 km/h (3 Bft) 100,00 %
07.06.2016 07:44 15,1 C 79 % 1020,6 hPa 0,0 l/m 11,1 km/h (2 Bft) NO 53 1 min 0,000 mm 0,8 UV-I 295 W/m 11,5 C 12,8 C 16,1 km/h (3 Bft) 100,00 %
07.06.2016 07:45 15,1 C 78 % 1020,6 hPa 0,0 l/m 13,3 km/h (3 Bft) NO 44 1 min 0,000 mm 0,8 UV-I 298 W/m 11,3 C 11,9 C 19,3 km/h (3 Bft) 100,00 %
07.06.2016 07:46 15,1 C 78 % 1020,7 hPa 0,0 l/m 11,5 km/h (2 Bft) NO 44 1 min 0,000 mm 0,8 UV-I 301 W/m 11,3 C 12,6 C 16,1 km/h (3 Bft) 100,00 %
07.06.2016 07:47 15,1 C 78 % 1020,6 hPa 0,0 l/m 12,2 km/h (2 Bft) NO 42 1 min 0,000 mm 0,8 UV-I 304 W/m 11,3 C 12,3 C 16,1 km/h (3 Bft) 96,30 %
07.06.2016 07:48 15,2 C 79 % 1020,7 hPa 0,0 l/m 7,6 km/h (2 Bft) O-NO 61 1 min 0,000 mm 0,8 UV-I 308 W/m 11,6 C 14,5 C 16,1 km/h (3 Bft) 100,00 %
07.06.2016 07:49 15,2 C 78 % 1020,7 hPa 0,0 l/m 18,1 km/h (3 Bft) NO 45 1 min 0,000 mm 0,9 UV-I 310 W/m 11,4 C 10,5 C 20,9 km/h (4 Bft) 100,00 %
07.06.2016 07:50 15,2 C 78 % 1020,7 hPa 0,0 l/m 12,8 km/h (3 Bft) NO 52 1 min 0,000 mm 0,9 UV-I 314 W/m 11,4 C 12,2 C 16,1 km/h (3 Bft) 96,15 %
07.06.2016 07:51 15,2 C 77 % 1020,7 hPa 0,0 l/m 10,1 km/h (2 Bft) NO 40 1 min 0,000 mm 0,9 UV-I 319 W/m 11,2 C 13,3 C 14,5 km/h (3 Bft) 100,00 %
07.06.2016 07:52 15,2 C 77 % 1020,7 hPa 0,0 l/m 11,2 km/h (2 Bft) NO 54 1 min 0,000 mm 0,9 UV-I 322 W/m 11,2 C 12,8 C 16,1 km/h (3 Bft) 100,00 %
07.06.2016 07:53 15,2 C 77 % 1020,7 hPa 0,0 l/m 16,8 km/h (3 Bft) NO 55 1 min 0,000 mm 0,9 UV-I 325 W/m 11,2 C 10,9 C 20,9 km/h (4 Bft) 100,00 %
07.06.2016 07:54 15,2 C 76 % 1020,7 hPa 0,0 l/m 14,7 km/h (3 Bft) O-NO 69 1 min 0,000 mm 0,9 UV-I 328 W/m 11,0 C 11,5 C 17,7 km/h (3 Bft) 100,00 %
07.06.2016 07:55 15,3 C 76 % 1020,7 hPa 0,0 l/m 12,4 km/h (3 Bft) NO 48 1 min 0,000 mm 0,9 UV-I 332 W/m 11,1 C 12,5 C 17,7 km/h (3 Bft) 100,00 %
07.06.2016 07:56 15,3 C 77 % 1020,6 hPa 0,0 l/m 10,9 km/h (2 Bft) NO 53 1 min 0,000 mm 1,0 UV-I 337 W/m 11,3 C 13,1 C 16,1 km/h (3 Bft) 100,00 %
07.06.2016 07:57 15,3 C 76 % 1020,7 hPa 0,0 l/m 13,3 km/h (3 Bft) NO 53 1 min 0,000 mm 1,0 UV-I 339 W/m 11,1 C 12,1 C 16,1 km/h (3 Bft) 100,00 %
07.06.2016 07:58 15,3 C 77 % 1020,6 hPa 0,0 l/m 14,9 km/h (3 Bft) O-NO 62 1 min 0,000 mm 1,0 UV-I 342 W/m 11,3 C 11,6 C 20,9 km/h (4 Bft) 100,00 %
07.06.2016 07:59 15,3 C 77 % 1020,7 hPa 0,0 l/m 16,1 km/h (3 Bft) NO 54 1 min 0,000 mm 1,0 UV-I 346 W/m 11,3 C 11,2 C 19,3 km/h (3 Bft) 100,00 %
07.06.2016 08:00 15,3 C 76 % 1020,7 hPa 0,0 l/m 13,0 km/h (3 Bft) O-NO 63 1 min 0,153 mm 1,0 UV-I 348 W/m 11,1 C 12,2 C 16,1 km/h (3 Bft) 100,00 %
07.06.2016 08:02 15,3 C 77 % 1020,7 hPa 0,0 l/m 13,1 km/h (3 Bft) O-NO 64 2 min 0,000 mm 1,0 UV-I 355 W/m 11,3 C 12,2 C 19,3 km/h (3 Bft) 98,31 %
07.06.2016 08:03 15,4 C 77 % 1020,7 hPa 0,0 l/m 7,7 km/h (2 Bft) NO 55 1 min 0,000 mm 1,1 UV-I 359 W/m 11,4 C 14,7 C 11,3 km/h (2 Bft) 100,00 %
07.06.2016 08:04 15,4 C 76 % 1020,7 hPa 0,0 l/m 14,4 km/h (3 Bft) O-NO 63 1 min 0,000 mm 1,1 UV-I 360 W/m 11,2 C 11,9 C 19,3 km/h (3 Bft) 100,00 %
07.06.2016 08:05 15,4 C 75 % 1020,7 hPa 0,0 l/m 18,4 km/h (3 Bft) O-NO 68 1 min 0,000 mm 1,1 UV-I 365 W/m 11,0 C 10,7 C 22,5 km/h (4 Bft) 100,00 %
07.06.2016 08:06 15,5 C 74 % 1020,7 hPa 0,0 l/m 19,0 km/h (3 Bft) O-NO 65 1 min 0,000 mm 1,1 UV-I 369 W/m 10,9 C 10,6 C 22,5 km/h (4 Bft) 100,00 %
07.06.2016 08:07 15,5 C 75 % 1020,8 hPa 0,0 l/m 15,7 km/h (3 Bft) O-NO 63 1 min 0,000 mm 1,1 UV-I 372 W/m 11,1 C 11,6 C 20,9 km/h (4 Bft) 100,00 %
07.06.2016 08:08 15,5 C 74 % 1020,7 hPa 0,0 l/m 17,5 km/h (3 Bft) O-NO 76 1 min 0,000 mm 1,1 UV-I 373 W/m 10,9 C 11,1 C 22,5 km/h (4 Bft) 100,00 %
07.06.2016 08:09 15,5 C 74 % 1020,7 hPa 0,0 l/m 15,5 km/h (3 Bft) O-NO 60 1 min 0,000 mm 1,1 UV-I 377 W/m 10,9 C 11,6 C 19,3 km/h (3 Bft) 100,00 %
07.06.2016 08:10 15,5 C 74 % 1020,8 hPa 0,0 l/m 14,7 km/h (3 Bft) O-NO 62 1 min 0,000 mm 1,2 UV-I 378 W/m 10,9 C 11,9 C 20,9 km/h (4 Bft) 100,00 %
07.06.2016 08:11 15,6 C 75 % 1020,8 hPa 0,0 l/m 8,2 km/h (2 Bft) NO 36 1 min 0,000 mm 1,2 UV-I 381 W/m 11,2 C 14,6 C 12,9 km/h (3 Bft) 100,00 %
07.06.2016 08:12 15,6 C 76 % 1020,7 hPa 0,0 l/m 8,6 km/h (2 Bft) NO 41 1 min 0,000 mm 1,2 UV-I 385 W/m 11,4 C 14,4 C 14,5 km/h (3 Bft) 96,67 %
07.06.2016 08:13 15,6 C 76 % 1020,7 hPa 0,0 l/m 16,1 km/h (3 Bft) O-NO 60 1 min 0,000 mm 1,2 UV-I 388 W/m 11,4 C 11,6 C 22,5 km/h (4 Bft) 100,00 %
07.06.2016 08:14 15,7 C 73 % 1020,7 hPa 0,0 l/m 12,1 km/h (2 Bft) O-NO 69 1 min 0,000 mm 1,2 UV-I 389 W/m 10,9 C 13,0 C 16,1 km/h (3 Bft) 100,00 %
07.06.2016 08:15 15,7 C 74 % 1020,7 hPa 0,0 l/m 13,2 km/h (3 Bft) NO 44 1 min 0,000 mm 1,2 UV-I 392 W/m 11,1 C 12,6 C 17,7 km/h (3 Bft) 100,00 %
07.06.2016 08:16 15,7 C 73 % 1020,7 hPa 0,0 l/m 14,1 km/h (3 Bft) O-NO 60 1 min 0,000 mm 1,2 UV-I 394 W/m 10,9 C 12,3 C 17,7 km/h (3 Bft) 100,00 %
07.06.2016 08:17 15,7 C 74 % 1020,8 hPa 0,0 l/m 14,1 km/h (3 Bft) O-NO 59 1 min 0,000 mm 1,3 UV-I 397 W/m 11,1 C 12,3 C 19,3 km/h (3 Bft) 100,00 %
07.06.2016 08:18 15,7 C 74 % 1020,8 hPa 0,0 l/m 16,3 km/h (3 Bft) O 90 1 min 0,000 mm 1,3 UV-I 400 W/m 11,1 C 11,6 C 19,3 km/h (3 Bft) 100,00 %
07.06.2016 08:19 15,8 C 74 % 1020,8 hPa 0,0 l/m 13,4 km/h (3 Bft) O-NO 67 1 min 0,000 mm 1,3 UV-I 403 W/m 11,2 C 12,7 C 19,3 km/h (3 Bft) 100,00 %
07.06.2016 08:20 15,8 C 73 % 1020,8 hPa 0,0 l/m 14,6 km/h (3 Bft) NO 42 1 min 0,000 mm 1,3 UV-I 405 W/m 11,0 C 12,3 C 20,9 km/h (4 Bft) 100,00 %
07.06.2016 08:21 15,8 C 73 % 1020,8 hPa 0,0 l/m 16,7 km/h (3 Bft) O-NO 61 1 min 0,000 mm 1,3 UV-I 408 W/m 11,0 C 11,7 C 19,3 km/h (3 Bft) 100,00 %
07.06.2016 08:22 15,8 C 73 % 1020,8 hPa 0,0 l/m 15,8 km/h (3 Bft) O-NO 65 1 min 0,000 mm 1,3 UV-I 411 W/m 11,0 C 11,9 C 19,3 km/h (3 Bft) 100,00 %
07.06.2016 08:23 15,8 C 72 % 1020,8 hPa 0,0 l/m 15,5 km/h (3 Bft) NO 49 1 min 0,000 mm 1,3 UV-I 415 W/m 10,8 C 12,0 C 19,3 km/h (3 Bft) 100,00 %
07.06.2016 08:24 15,8 C 73 % 1020,8 hPa 0,0 l/m 11,9 km/h (2 Bft) O-NO 61 1 min 0,000 mm 1,4 UV-I 417 W/m 11,0 C 13,2 C 20,9 km/h (4 Bft) 100,00 %
07.06.2016 08:25 15,8 C 73 % 1020,8 hPa 0,0 l/m 17,6 km/h (3 Bft) NO 53 1 min 0,000 mm 1,4 UV-I 419 W/m 11,0 C 11,4 C 22,5 km/h (4 Bft) 100,00 %
07.06.2016 08:26 15,9 C 73 % 1020,8 hPa 0,0 l/m 12,8 km/h (3 Bft) O-NO 57 1 min 0,000 mm 1,4 UV-I 422 W/m 11,1 C 13,0 C 16,1 km/h (3 Bft) 100,00 %
07.06.2016 08:27 15,9 C 73 % 1020,8 hPa 0,0 l/m 14,1 km/h (3 Bft) O-NO 57 1 min 0,000 mm 1,4 UV-I 422 W/m 11,1 C 12,6 C 19,3 km/h (3 Bft) 100,00 %
07.06.2016 08:28 15,9 C 73 % 1020,8 hPa 0,0 l/m 12,9 km/h (3 Bft) O-NO 69 1 min 0,000 mm 1,4 UV-I 425 W/m 11,1 C 13,0 C 16,1 km/h (3 Bft) 95,65 %
07.06.2016 08:29 16,0 C 73 % 1020,8 hPa 0,0 l/m 13,5 km/h (3 Bft) O-NO 63 1 min 0,000 mm 1,4 UV-I 426 W/m 11,2 C 12,9 C 16,1 km/h (3 Bft) 95,83 %
07.06.2016 08:30 16,0 C 72 % 1020,8 hPa 0,0 l/m 10,9 km/h (2 Bft) NO 46 1 min 0,000 mm 1,4 UV-I 430 W/m 11,0 C 13,8 C 14,5 km/h (3 Bft) 100,00 %
07.06.2016 08:31 16,1 C 74 % 1020,8 hPa 0,0 l/m 13,8 km/h (3 Bft) O-NO 78 1 min 0,000 mm 1,5 UV-I 433 W/m 11,5 C 12,9 C 17,7 km/h (3 Bft) 100,00 %
07.06.2016 08:32 16,1 C 73 % 1020,9 hPa 0,0 l/m 15,3 km/h (3 Bft) NO 55 1 min 0,000 mm 1,5 UV-I 435 W/m 11,3 C 12,4 C 19,3 km/h (3 Bft) 100,00 %
07.06.2016 08:33 16,2 C 73 % 1020,8 hPa 0,0 l/m 17,4 km/h (3 Bft) NO 36 1 min 0,000 mm 1,5 UV-I 438 W/m 11,4 C 12,0 C 22,5 km/h (4 Bft) 100,00 %
07.06.2016 08:34 16,2 C 73 % 1020,8 hPa 0,0 l/m 11,5 km/h (2 Bft) O-NO 57 1 min 0,000 mm 1,5 UV-I 444 W/m 11,4 C 13,8 C 16,1 km/h (3 Bft) 94,12 %
07.06.2016 08:35 16,2 C 73 % 1020,8 hPa 0,0 l/m 11,7 km/h (2 Bft) O-NO 71 1 min 0,000 mm 1,6 UV-I 446 W/m 11,4 C 13,8 C 16,1 km/h (3 Bft) 100,00 %
07.06.2016 08:36 16,3 C 73 % 1020,8 hPa 0,0 l/m 12,3 km/h (3 Bft) O-NO 61 1 min 0,000 mm 1,6 UV-I 448 W/m 11,4 C 13,7 C 17,7 km/h (3 Bft) 96,15 %
07.06.2016 08:37 16,3 C 72 % 1020,8 hPa 0,0 l/m 15,9 km/h (3 Bft) NO 53 1 min 0,000 mm 1,6 UV-I 453 W/m 11,2 C 12,5 C 20,9 km/h (4 Bft) 96,30 %
07.06.2016 08:38 16,3 C 72 % 1020,8 hPa 0,0 l/m 15,7 km/h (3 Bft) NO 52 1 min 0,000 mm 1,6 UV-I 454 W/m 11,2 C 12,6 C 20,9 km/h (4 Bft) 93,33 %
07.06.2016 08:39 16,3 C 71 % 1020,8 hPa 0,0 l/m 13,9 km/h (3 Bft) NO 36 1 min 0,000 mm 1,6 UV-I 457 W/m 11,0 C 13,1 C 20,9 km/h (4 Bft) 91,30 %
07.06.2016 08:40 16,4 C 72 % 1020,8 hPa 0,0 l/m 14,3 km/h (3 Bft) NO 38 1 min 0,000 mm 1,6 UV-I 459 W/m 11,3 C 13,1 C 20,9 km/h (4 Bft) 95,83 %
07.06.2016 08:41 16,4 C 72 % 1020,8 hPa 0,0 l/m 12,9 km/h (3 Bft) NO 55 1 min 0,000 mm 1,7 UV-I 463 W/m 11,3 C 13,6 C 16,1 km/h (3 Bft) 96,55 %
07.06.2016 08:42 16,4 C 72 % 1020,8 hPa 0,0 l/m 12,9 km/h (3 Bft) NO 51 1 min 0,000 mm 1,7 UV-I 465 W/m 11,3 C 13,6 C 17,7 km/h (3 Bft) 100,00 %
07.06.2016 08:43 16,4 C 72 % 1020,8 hPa 0,0 l/m 15,0 km/h (3 Bft) O-NO 63 1 min 0,000 mm 1,7 UV-I 468 W/m 11,3 C 12,9 C 22,5 km/h (4 Bft) 95,65 %
07.06.2016 08:44 16,4 C 72 % 1020,8 hPa 0,0 l/m 9,7 km/h (2 Bft) NO 46 1 min 0,000 mm 1,7 UV-I 472 W/m 11,3 C 14,8 C 16,1 km/h (3 Bft) 100,00 %
07.06.2016 08:45 16,5 C 73 % 1020,8 hPa 0,0 l/m 12,9 km/h (3 Bft) O-NO 71 1 min 0,000 mm 1,8 UV-I 475 W/m 11,6 C 13,7 C 20,9 km/h (4 Bft) 95,65 %
07.06.2016 08:46 16,6 C 72 % 1020,8 hPa 0,0 l/m 15,9 km/h (3 Bft) O-NO 61 1 min 0,000 mm 1,8 UV-I 478 W/m 11,5 C 12,9 C 20,9 km/h (4 Bft) 100,00 %
07.06.2016 08:47 16,6 C 71 % 1020,8 hPa 0,0 l/m 13,1 km/h (3 Bft) NO 44 1 min 0,000 mm 1,8 UV-I 479 W/m 11,3 C 13,7 C 17,7 km/h (3 Bft) 96,15 %
07.06.2016 08:48 16,6 C 72 % 1020,8 hPa 0,0 l/m 14,6 km/h (3 Bft) NO 42 1 min 0,000 mm 1,8 UV-I 483 W/m 11,5 C 13,3 C 17,7 km/h (3 Bft) 96,30 %
07.06.2016 08:49 16,7 C 74 % 1020,8 hPa 0,0 l/m 13,0 km/h (3 Bft) NO 50 1 min 0,000 mm 1,8 UV-I 485 W/m 12,0 C 13,9 C 19,3 km/h (3 Bft) 100,00 %
07.06.2016 08:50 16,7 C 73 % 1020,8 hPa 0,0 l/m 8,9 km/h (2 Bft) O-NO 58 1 min 0,000 mm 1,8 UV-I 488 W/m 11,8 C 15,5 C 14,5 km/h (3 Bft) 96,30 %
07.06.2016 08:51 16,8 C 72 % 1020,8 hPa 0,0 l/m 9,7 km/h (2 Bft) NO 54 1 min 0,000 mm 1,9 UV-I 490 W/m 11,7 C 15,2 C 12,9 km/h (3 Bft) 100,00 %
07.06.2016 08:52 16,8 C 72 % 1020,8 hPa 0,0 l/m 7,7 km/h (2 Bft) O-NO 62 1 min 0,000 mm 1,9 UV-I 492 W/m 11,7 C 16,1 C 16,1 km/h (3 Bft) 93,33 %
07.06.2016 08:53 16,9 C 72 % 1020,8 hPa 0,0 l/m 13,1 km/h (3 Bft) NO 48 1 min 0,000 mm 1,9 UV-I 492 W/m 11,8 C 14,1 C 19,3 km/h (3 Bft) 94,29 %
07.06.2016 08:54 16,9 C 74 % 1020,8 hPa 0,0 l/m 15,7 km/h (3 Bft) N-NO 32 1 min 0,000 mm 1,9 UV-I 494 W/m 12,2 C 13,3 C 22,5 km/h (4 Bft) 95,83 %
07.06.2016 08:55 16,9 C 70 % 1020,8 hPa 0,0 l/m 11,0 km/h (2 Bft) O-NO 69 1 min 0,000 mm 2,0 UV-I 494 W/m 11,4 C 14,8 C 16,1 km/h (3 Bft) 100,00 %
07.06.2016 08:56 16,9 C 70 % 1020,8 hPa 0,0 l/m 8,8 km/h (2 Bft) O-NO 57 1 min 0,000 mm 2,0 UV-I 494 W/m 11,4 C 15,7 C 12,9 km/h (3 Bft) 96,88 %
07.06.2016 08:57 16,9 C 71 % 1020,9 hPa 0,0 l/m 14,6 km/h (3 Bft) O-NO 70 1 min 0,000 mm 2,0 UV-I 492 W/m 11,6 C 13,6 C 19,3 km/h (3 Bft) 100,00 %
07.06.2016 08:58 16,9 C 71 % 1020,9 hPa 0,0 l/m 11,2 km/h (2 Bft) NO 46 1 min 0,000 mm 2,0 UV-I 490 W/m 11,6 C 14,8 C 17,7 km/h (3 Bft) 93,55 %
07.06.2016 08:59 16,9 C 70 % 1020,9 hPa 0,0 l/m 8,4 km/h (2 Bft) NO 34 1 min 0,000 mm 2,0 UV-I 490 W/m 11,4 C 15,9 C 16,1 km/h (3 Bft) 100,00 %
07.06.2016 09:00 16,9 C 72 % 1020,9 hPa 0,0 l/m 15,2 km/h (3 Bft) NO 44 1 min 0,279 mm 2,1 UV-I 489 W/m 11,8 C 13,4 C 20,9 km/h (4 Bft) 94,12 %
07.06.2016 09:02 17,0 C 70 % 1020,9 hPa 0,0 l/m 14,7 km/h (3 Bft) NO 44 2 min 0,000 mm 2,1 UV-I 488 W/m 11,5 C 13,7 C 22,5 km/h (4 Bft) 97,06 %
07.06.2016 09:03 17,0 C 70 % 1020,9 hPa 0,0 l/m 13,8 km/h (3 Bft) NO 45 1 min 0,000 mm 2,1 UV-I 483 W/m 11,5 C 14,0 C 17,7 km/h (3 Bft) 98,67 %
07.06.2016 09:04 17,0 C 69 % 1020,9 hPa 0,0 l/m 16,0 km/h (3 Bft) O 82 1 min 0,000 mm 2,2 UV-I 479 W/m 11,3 C 13,3 C 19,3 km/h (3 Bft) 97,37 %
07.06.2016 09:05 17,0 C 69 % 1020,9 hPa 0,0 l/m 17,4 km/h (3 Bft) O-NO 62 1 min 0,000 mm 2,2 UV-I 475 W/m 11,3 C 13,0 C 20,9 km/h (4 Bft) 100,00 %
07.06.2016 09:06 17,0 C 67 % 1020,9 hPa 0,0 l/m 14,5 km/h (3 Bft) O-NO 78 1 min 0,000 mm 2,2 UV-I 473 W/m 10,8 C 13,8 C 17,7 km/h (3 Bft) 100,00 %
07.06.2016 09:07 17,1 C 67 % 1020,9 hPa 0,0 l/m 11,7 km/h (2 Bft) O-NO 66 1 min 0,000 mm 2,2 UV-I 469 W/m 10,9 C 14,8 C 17,7 km/h (3 Bft) 100,00 %
07.06.2016 09:08 17,1 C 67 % 1020,9 hPa 0,0 l/m 16,5 km/h (3 Bft) O-NO 63 1 min 0,000 mm 2,2 UV-I 467 W/m 10,9 C 13,3 C 22,5 km/h (4 Bft) 96,15 %
07.06.2016 09:09 17,1 C 67 % 1020,9 hPa 0,0 l/m 13,5 km/h (3 Bft) O-NO 69 1 min 0,000 mm 2,2 UV-I 462 W/m 10,9 C 14,2 C 17,7 km/h (3 Bft) 100,00 %
07.06.2016 09:10 17,1 C 67 % 1020,9 hPa 0,0 l/m 12,6 km/h (3 Bft) O-NO 69 1 min 0,000 mm 2,3 UV-I 461 W/m 10,9 C 14,5 C 16,1 km/h (3 Bft) 100,00 %
07.06.2016 09:11 17,2 C 69 % 1020,9 hPa 0,0 l/m 11,8 km/h (2 Bft) O 88 1 min 0,000 mm 2,3 UV-I 457 W/m 11,5 C 14,9 C 16,1 km/h (3 Bft) 100,00 %
07.06.2016 09:12 17,2 C 69 % 1020,9 hPa 0,0 l/m 10,8 km/h (2 Bft) NO 54 1 min 0,000 mm 2,3 UV-I 454 W/m 11,5 C 15,2 C 16,1 km/h (3 Bft) 100,00 %
07.06.2016 09:13 17,3 C 69 % 1020,9 hPa 0,0 l/m 10,0 km/h (2 Bft) N-NO 15 1 min 0,000 mm 2,4 UV-I 452 W/m 11,6 C 15,7 C 16,1 km/h (3 Bft) 100,00 %
07.06.2016 09:14 17,4 C 70 % 1020,9 hPa 0,0 l/m 11,8 km/h (2 Bft) N-NO 26 1 min 0,000 mm 2,4 UV-I 450 W/m 11,9 C 15,1 C 17,7 km/h (3 Bft) 100,00 %
07.06.2016 09:15 17,4 C 67 % 1020,9 hPa 0,0 l/m 17,2 km/h (3 Bft) O-NO 61 1 min 0,000 mm 2,4 UV-I 448 W/m 11,2 C 13,5 C 20,9 km/h (4 Bft) 100,00 %
07.06.2016 09:16 17,4 C 66 % 1020,9 hPa 0,0 l/m 13,2 km/h (3 Bft) NO 53 1 min 0,000 mm 2,4 UV-I 447 W/m 11,0 C 14,6 C 17,7 km/h (3 Bft) 100,00 %
07.06.2016 09:17 17,4 C 66 % 1020,9 hPa 0,0 l/m 16,4 km/h (3 Bft) O-NO 70 1 min 0,000 mm 2,4 UV-I 446 W/m 11,0 C 13,7 C 20,9 km/h (4 Bft) 100,00 %
07.06.2016 09:18 17,4 C 66 % 1020,9 hPa 0,0 l/m 12,6 km/h (3 Bft) NO 52 1 min 0,000 mm 2,4 UV-I 446 W/m 11,0 C 14,8 C 19,3 km/h (3 Bft) 95,65 %
07.06.2016 09:19 17,4 C 65 % 1021,0 hPa 0,0 l/m 11,2 km/h (2 Bft) NO 53 1 min 0,000 mm 2,5 UV-I 446 W/m 10,8 C 15,3 C 16,1 km/h (3 Bft) 100,00 %
07.06.2016 09:20 17,4 C 67 % 1021,0 hPa 0,0 l/m 6,5 km/h (2 Bft) O-NO 68 1 min 0,000 mm 2,5 UV-I 448 W/m 11,2 C 17,4 C 11,3 km/h (2 Bft) 95,65 %
07.06.2016 09:21 17,6 C 66 % 1021,0 hPa 0,0 l/m 10,5 km/h (2 Bft) O-NO 59 1 min 0,000 mm 2,5 UV-I 450 W/m 11,2 C 15,8 C 14,5 km/h (3 Bft) 100,00 %
07.06.2016 09:22 17,6 C 67 % 1021,0 hPa 0,0 l/m 10,4 km/h (2 Bft) O 80 1 min 0,000 mm 2,5 UV-I 452 W/m 11,4 C 15,8 C 17,7 km/h (3 Bft) 100,00 %
07.06.2016 09:23 17,7 C 67 % 1021,0 hPa 0,0 l/m 13,4 km/h (3 Bft) O-NO 68 1 min 0,000 mm 2,6 UV-I 456 W/m 11,5 C 14,9 C 16,1 km/h (3 Bft) 100,00 %
07.06.2016 09:24 17,7 C 67 % 1021,0 hPa 0,0 l/m 11,3 km/h (2 Bft) O-NO 72 1 min 0,000 mm 2,6 UV-I 460 W/m 11,5 C 15,6 C 17,7 km/h (3 Bft) 100,00 %
07.06.2016 09:25 17,8 C 67 % 1021,0 hPa 0,0 l/m 10,5 km/h (2 Bft) NO 49 1 min 0,000 mm 2,6 UV-I 463 W/m 11,6 C 16,0 C 16,1 km/h (3 Bft) 96,55 %
07.06.2016 09:26 17,8 C 66 % 1021,0 hPa 0,0 l/m 9,1 km/h (2 Bft) NO 53 1 min 0,000 mm 2,7 UV-I 469 W/m 11,4 C 16,6 C 16,1 km/h (3 Bft) 100,00 %
07.06.2016 09:27 17,9 C 67 % 1020,9 hPa 0,0 l/m 7,4 km/h (2 Bft) NO 49 1 min 0,000 mm 2,7 UV-I 477 W/m 11,7 C 17,4 C 12,9 km/h (3 Bft) 100,00 %
07.06.2016 09:28 17,9 C 65 % 1020,9 hPa 0,0 l/m 8,6 km/h (2 Bft) NO 49 1 min 0,000 mm 2,7 UV-I 482 W/m 11,2 C 16,9 C 14,5 km/h (3 Bft) 100,00 %
07.06.2016 09:29 17,9 C 65 % 1020,9 hPa 0,0 l/m 8,2 km/h (2 Bft) NO 54 1 min 0,000 mm 2,7 UV-I 488 W/m 11,2 C 17,1 C 14,5 km/h (3 Bft) 100,00 %
07.06.2016 09:30 18,0 C 66 % 1020,9 hPa 0,0 l/m 10,4 km/h (2 Bft) O-NO 69 1 min 0,000 mm 2,7 UV-I 496 W/m 11,6 C 16,3 C 19,3 km/h (3 Bft) 100,00 %
07.06.2016 09:31 18,1 C 67 % 1020,9 hPa 0,0 l/m 13,9 km/h (3 Bft) O-NO 76 1 min 0,000 mm 2,8 UV-I 506 W/m 11,9 C 15,3 C 19,3 km/h (3 Bft) 95,65 %
07.06.2016 09:32 18,1 C 64 % 1020,9 hPa 0,0 l/m 13,0 km/h (3 Bft) O-NO 70 1 min 0,000 mm 2,8 UV-I 515 W/m 11,2 C 15,5 C 19,3 km/h (3 Bft) 100,00 %
07.06.2016 09:33 18,1 C 63 % 1021,0 hPa 0,0 l/m 19,6 km/h (3 Bft) O-NO 75 1 min 0,000 mm 2,8 UV-I 525 W/m 10,9 C 13,8 C 22,5 km/h (4 Bft) 100,00 %
07.06.2016 09:34 18,1 C 64 % 1021,0 hPa 0,0 l/m 13,3 km/h (3 Bft) O-NO 61 1 min 0,000 mm 2,8 UV-I 533 W/m 11,2 C 15,4 C 17,7 km/h (3 Bft) 100,00 %
07.06.2016 09:35 18,1 C 65 % 1020,9 hPa 0,0 l/m 12,1 km/h (2 Bft) O-NO 78 1 min 0,000 mm 2,9 UV-I 541 W/m 11,4 C 15,8 C 16,1 km/h (3 Bft) 93,33 %
07.06.2016 09:36 18,1 C 65 % 1021,0 hPa 0,0 l/m 11,0 km/h (2 Bft) NO 42 1 min 0,000 mm 2,9 UV-I 548 W/m 11,4 C 16,2 C 17,7 km/h (3 Bft) 95,65 %
07.06.2016 09:37 18,2 C 65 % 1020,9 hPa 0,0 l/m 14,7 km/h (3 Bft) O-NO 71 1 min 0,000 mm 2,9 UV-I 554 W/m 11,5 C 15,2 C 19,3 km/h (3 Bft) 100,00 %
07.06.2016 09:38 18,2 C 64 % 1020,9 hPa 0,0 l/m 15,0 km/h (3 Bft) NO 52 1 min 0,000 mm 2,9 UV-I 564 W/m 11,3 C 15,1 C 16,1 km/h (3 Bft) 100,00 %
07.06.2016 09:39 18,3 C 64 % 1020,9 hPa 0,0 l/m 13,7 km/h (3 Bft) O-NO 65 1 min 0,000 mm 3,0 UV-I 574 W/m 11,4 C 15,6 C 19,3 km/h (3 Bft) 95,83 %
07.06.2016 09:40 18,3 C 64 % 1020,9 hPa 0,0 l/m 11,9 km/h (2 Bft) O-NO 71 1 min 0,000 mm 3,0 UV-I 581 W/m 11,4 C 16,1 C 17,7 km/h (3 Bft) 100,00 %
07.06.2016 09:41 18,3 C 63 % 1020,9 hPa 0,0 l/m 12,8 km/h (3 Bft) O-NO 66 1 min 0,000 mm 3,0 UV-I 590 W/m 11,1 C 15,8 C 16,1 km/h (3 Bft) 100,00 %
07.06.2016 09:42 18,4 C 62 % 1020,9 hPa 0,0 l/m 9,8 km/h (2 Bft) O-NO 66 1 min 0,000 mm 3,0 UV-I 597 W/m 11,0 C 16,9 C 16,1 km/h (3 Bft) 100,00 %
07.06.2016 09:43 18,4 C 62 % 1020,9 hPa 0,0 l/m 13,3 km/h (3 Bft) O-NO 57 1 min 0,000 mm 3,1 UV-I 605 W/m 11,0 C 15,8 C 19,3 km/h (3 Bft) 100,00 %
07.06.2016 09:44 18,4 C 63 % 1020,9 hPa 0,0 l/m 12,5 km/h (3 Bft) O-NO 57 1 min 0,000 mm 3,1 UV-I 612 W/m 11,2 C 16,0 C 17,7 km/h (3 Bft) 100,00 %
07.06.2016 09:45 18,4 C 62 % 1020,9 hPa 0,0 l/m 13,1 km/h (3 Bft) O-NO 76 1 min 0,000 mm 3,1 UV-I 618 W/m 11,0 C 15,8 C 17,7 km/h (3 Bft) 100,00 %
07.06.2016 09:46 18,4 C 61 % 1020,9 hPa 0,0 l/m 14,2 km/h (3 Bft) O 82 1 min 0,000 mm 3,1 UV-I 622 W/m 10,7 C 15,5 C 19,3 km/h (3 Bft) 100,00 %
07.06.2016 09:47 18,4 C 65 % 1020,9 hPa 0,0 l/m 12,3 km/h (3 Bft) NO 53 1 min 0,000 mm 3,1 UV-I 627 W/m 11,7 C 16,1 C 17,7 km/h (3 Bft) 100,00 %
07.06.2016 09:48 18,5 C 64 % 1020,9 hPa 0,0 l/m 9,7 km/h (2 Bft) NO 51 1 min 0,000 mm 3,2 UV-I 630 W/m 11,6 C 17,1 C 14,5 km/h (3 Bft) 95,65 %
07.06.2016 09:49 18,6 C 63 % 1020,9 hPa 0,0 l/m 12,7 km/h (3 Bft) O-NO 73 1 min 0,000 mm 3,2 UV-I 634 W/m 11,4 C 16,2 C 16,1 km/h (3 Bft) 100,00 %
07.06.2016 09:50 18,6 C 61 % 1020,9 hPa 0,0 l/m 9,7 km/h (2 Bft) N-NO 32 1 min 0,000 mm 3,2 UV-I 636 W/m 10,9 C 17,2 C 11,3 km/h (2 Bft) 100,00 %
07.06.2016 09:51 18,6 C 63 % 1020,9 hPa 0,0 l/m 11,0 km/h (2 Bft) O 79 1 min 0,000 mm 3,2 UV-I 636 W/m 11,4 C 16,7 C 19,3 km/h (3 Bft) 100,00 %
07.06.2016 09:52 18,7 C 64 % 1020,9 hPa 0,0 l/m 12,9 km/h (3 Bft) NO 43 1 min 0,000 mm 3,3 UV-I 637 W/m 11,7 C 16,3 C 17,7 km/h (3 Bft) 95,65 %
07.06.2016 09:53 18,7 C 61 % 1020,9 hPa 0,0 l/m 13,0 km/h (3 Bft) NO 43 1 min 0,000 mm 3,3 UV-I 639 W/m 11,0 C 16,2 C 17,7 km/h (3 Bft) 91,67 %
07.06.2016 09:54 18,8 C 64 % 1020,9 hPa 0,0 l/m 13,7 km/h (3 Bft) NO 49 1 min 0,000 mm 3,3 UV-I 641 W/m 11,8 C 16,1 C 19,3 km/h (3 Bft) 100,00 %
07.06.2016 09:55 18,8 C 65 % 1020,9 hPa 0,0 l/m 11,4 km/h (2 Bft) O-NO 63 1 min 0,000 mm 3,3 UV-I 642 W/m 12,1 C 16,8 C 14,5 km/h (3 Bft) 100,00 %
07.06.2016 09:56 18,9 C 63 % 1020,9 hPa 0,0 l/m 8,9 km/h (2 Bft) NO 54 1 min 0,000 mm 3,4 UV-I 642 W/m 11,7 C 17,8 C 19,3 km/h (3 Bft) 100,00 %
07.06.2016 09:57 18,9 C 61 % 1020,9 hPa 0,0 l/m 19,0 km/h (3 Bft) NO 54 1 min 0,000 mm 3,4 UV-I 646 W/m 11,2 C 15,0 C 22,5 km/h (4 Bft) 100,00 %
07.06.2016 09:58 18,9 C 59 % 1020,9 hPa 0,0 l/m 12,5 km/h (3 Bft) O-NO 59 1 min 0,000 mm 3,4 UV-I 649 W/m 10,7 C 16,6 C 17,7 km/h (3 Bft) 100,00 %
07.06.2016 09:59 18,8 C 61 % 1020,9 hPa 0,0 l/m 13,1 km/h (3 Bft) O-NO 74 1 min 0,000 mm 3,4 UV-I 652 W/m 11,1 C 16,3 C 19,3 km/h (3 Bft) 100,00 %
07.06.2016 10:00 18,8 C 61 % 1020,9 hPa 0,0 l/m 13,0 km/h (3 Bft) O-NO 61 1 min 0,356 mm 3,5 UV-I 655 W/m 11,1 C 16,3 C 17,7 km/h (3 Bft) 100,00 %
07.06.2016 10:01 18,8 C 61 % 1020,9 hPa 0,0 l/m 12,9 km/h (3 Bft) O-NO 57 1 min 0,000 mm 3,5 UV-I 658 W/m 11,1 C 16,4 C 16,1 km/h (3 Bft) 91,30 %
07.06.2016 10:02 18,9 C 61 % 1020,9 hPa 0,0 l/m 13,4 km/h (3 Bft) O-NO 63 1 min 0,000 mm 3,5 UV-I 661 W/m 11,2 C 16,3 C 17,7 km/h (3 Bft) 100,00 %
07.06.2016 10:03 18,8 C 60 % 1020,9 hPa 0,0 l/m 13,9 km/h (3 Bft) O-NO 57 1 min 0,000 mm 3,5 UV-I 662 W/m 10,9 C 16,1 C 20,9 km/h (4 Bft) 100,00 %
07.06.2016 10:04 18,8 C 59 % 1020,9 hPa 0,0 l/m 15,1 km/h (3 Bft) NO 49 1 min 0,000 mm 3,5 UV-I 663 W/m 10,6 C 15,8 C 17,7 km/h (3 Bft) 95,83 %
07.06.2016 10:05 18,8 C 61 % 1021,0 hPa 0,0 l/m 11,3 km/h (2 Bft) O 80 1 min 0,000 mm 3,6 UV-I 664 W/m 11,1 C 16,9 C 16,1 km/h (3 Bft) 100,00 %
07.06.2016 10:06 18,8 C 61 % 1021,0 hPa 0,0 l/m 11,6 km/h (2 Bft) O 83 1 min 0,000 mm 3,6 UV-I 664 W/m 11,1 C 16,8 C 14,5 km/h (3 Bft) 100,00 %
07.06.2016 10:07 18,8 C 62 % 1021,0 hPa 0,0 l/m 12,3 km/h (3 Bft) O-NO 62 1 min 0,000 mm 3,6 UV-I 668 W/m 11,4 C 16,6 C 19,3 km/h (3 Bft) 95,65 %
07.06.2016 10:08 18,9 C 62 % 1021,0 hPa 0,0 l/m 8,6 km/h (2 Bft) O-NO 59 1 min 0,000 mm 3,6 UV-I 670 W/m 11,5 C 18,0 C 12,9 km/h (3 Bft) 100,00 %
07.06.2016 10:09 19,0 C 62 % 1021,0 hPa 0,0 l/m 13,2 km/h (3 Bft) NO 37 1 min 0,000 mm 3,7 UV-I 672 W/m 11,6 C 16,5 C 17,7 km/h (3 Bft) 90,91 %
07.06.2016 10:10 19,1 C 65 % 1021,0 hPa 0,0 l/m 13,3 km/h (3 Bft) NO 40 1 min 0,000 mm 3,7 UV-I 676 W/m 12,4 C 16,6 C 19,3 km/h (3 Bft) 100,00 %
07.06.2016 10:11 19,2 C 65 % 1021,0 hPa 0,0 l/m 16,8 km/h (3 Bft) N-NO 31 1 min 0,000 mm 3,7 UV-I 678 W/m 12,5 C 15,8 C 19,3 km/h (3 Bft) 100,00 %
07.06.2016 10:12 19,2 C 63 % 1021,0 hPa 0,0 l/m 10,1 km/h (2 Bft) O-NO 65 1 min 0,000 mm 3,7 UV-I 679 W/m 12,0 C 17,7 C 16,1 km/h (3 Bft) 95,83 %
07.06.2016 10:13 19,3 C 65 % 1020,9 hPa 0,0 l/m 12,4 km/h (3 Bft) NO 55 1 min 0,000 mm 3,8 UV-I 680 W/m 12,6 C 17,1 C 20,9 km/h (4 Bft) 100,00 %
07.06.2016 10:14 19,3 C 63 % 1020,9 hPa 0,0 l/m 15,3 km/h (3 Bft) N-NO 32 1 min 0,000 mm 3,8 UV-I 685 W/m 12,1 C 16,3 C 19,3 km/h (3 Bft) 100,00 %
07.06.2016 10:15 19,3 C 60 % 1020,9 hPa 0,0 l/m 13,4 km/h (3 Bft) NO 37 1 min 0,000 mm 3,8 UV-I 688 W/m 11,3 C 16,8 C 19,3 km/h (3 Bft) 100,00 %
07.06.2016 10:16 19,3 C 64 % 1020,9 hPa 0,0 l/m 14,2 km/h (3 Bft) O-NO 62 1 min 0,000 mm 3,8 UV-I 689 W/m 12,3 C 16,6 C 17,7 km/h (3 Bft) 100,00 %
07.06.2016 10:17 19,3 C 62 % 1020,9 hPa 0,0 l/m 12,3 km/h (3 Bft) NO 37 1 min 0,000 mm 3,9 UV-I 692 W/m 11,8 C 17,1 C 17,7 km/h (3 Bft) 100,00 %
07.06.2016 10:18 19,3 C 64 % 1020,9 hPa 0,0 l/m 16,1 km/h (3 Bft) N-NO 30 1 min 0,000 mm 3,9 UV-I 694 W/m 12,3 C 16,1 C 19,3 km/h (3 Bft) 100,00 %
07.06.2016 10:19 19,4 C 63 % 1021,0 hPa 0,0 l/m 16,8 km/h (3 Bft) NO 51 1 min 0,000 mm 3,9 UV-I 696 W/m 12,2 C 16,1 C 22,5 km/h (4 Bft) 100,00 %
07.06.2016 10:20 19,4 C 63 % 1020,9 hPa 0,0 l/m 13,2 km/h (3 Bft) NO 56 1 min 0,000 mm 3,9 UV-I 697 W/m 12,2 C 17,0 C 19,3 km/h (3 Bft) 100,00 %
07.06.2016 10:21 19,4 C 60 % 1020,9 hPa 0,0 l/m 9,9 km/h (2 Bft) NO 48 1 min 0,000 mm 4,0 UV-I 700 W/m 11,4 C 18,0 C 16,1 km/h (3 Bft) 100,00 %
07.06.2016 10:22 19,4 C 60 % 1020,9 hPa 0,0 l/m 12,1 km/h (2 Bft) NO 35 1 min 0,000 mm 4,0 UV-I 702 W/m 11,4 C 17,3 C 17,7 km/h (3 Bft) 100,00 %
07.06.2016 10:23 19,4 C 61 % 1021,0 hPa 0,0 l/m 10,8 km/h (2 Bft) O-NO 60 1 min 0,000 mm 4,0 UV-I 703 W/m 11,7 C 17,7 C 16,1 km/h (3 Bft) 95,83 %
07.06.2016 10:24 19,4 C 60 % 1020,9 hPa 0,0 l/m 12,7 km/h (3 Bft) NO 51 1 min 0,000 mm 4,0 UV-I 705 W/m 11,4 C 17,1 C 17,7 km/h (3 Bft) 100,00 %
07.06.2016 10:25 19,4 C 61 % 1020,9 hPa 0,0 l/m 12,5 km/h (3 Bft) O-NO 63 1 min 0,000 mm 4,0 UV-I 707 W/m 11,7 C 17,2 C 19,3 km/h (3 Bft) 95,83 %
07.06.2016 10:26 19,5 C 61 % 1021,0 hPa 0,0 l/m 15,1 km/h (3 Bft) NO 49 1 min 0,000 mm 4,1 UV-I 710 W/m 11,8 C 16,6 C 19,3 km/h (3 Bft) 100,00 %
07.06.2016 10:27 19,5 C 62 % 1020,9 hPa 0,0 l/m 16,0 km/h (3 Bft) NO 48 1 min 0,000 mm 4,1 UV-I 713 W/m 12,0 C 16,4 C 19,3 km/h (3 Bft) 95,83 %
07.06.2016 10:28 19,5 C 61 % 1020,9 hPa 0,0 l/m 12,2 km/h (2 Bft) NO 38 1 min 0,000 mm 4,1 UV-I 715 W/m 11,8 C 17,4 C 16,1 km/h (3 Bft) 100,00 %
07.06.2016 10:29 19,6 C 64 % 1020,9 hPa 0,0 l/m 14,2 km/h (3 Bft) O-NO 63 1 min 0,000 mm 4,1 UV-I 716 W/m 12,6 C 17,0 C 19,3 km/h (3 Bft) 95,83 %
07.06.2016 10:30 19,6 C 60 % 1020,9 hPa 0,0 l/m 14,0 km/h (3 Bft) O 85 1 min 0,000 mm 4,2 UV-I 719 W/m 11,6 C 17,0 C 17,7 km/h (3 Bft) 95,65 %
07.06.2016 10:31 19,6 C 59 % 1021,0 hPa 0,0 l/m 14,2 km/h (3 Bft) O-NO 57 1 min 0,000 mm 4,2 UV-I 721 W/m 11,4 C 17,0 C 17,7 km/h (3 Bft) 100,00 %
07.06.2016 10:32 19,5 C 59 % 1020,9 hPa 0,0 l/m 12,1 km/h (2 Bft) NO 35 1 min 0,000 mm 4,2 UV-I 722 W/m 11,3 C 17,4 C 16,1 km/h (3 Bft) 95,65 %
07.06.2016 10:33 19,5 C 59 % 1020,9 hPa 0,0 l/m 11,9 km/h (2 Bft) NO 37 1 min 0,000 mm 4,2 UV-I 725 W/m 11,3 C 17,5 C 16,1 km/h (3 Bft) 95,83 %
07.06.2016 10:34 19,6 C 66 % 1020,8 hPa 0,0 l/m 10,9 km/h (2 Bft) NO 38 1 min 0,000 mm 4,2 UV-I 726 W/m 13,1 C 17,9 C 20,9 km/h (4 Bft) 96,15 %
07.06.2016 10:35 19,7 C 62 % 1020,8 hPa 0,0 l/m 13,6 km/h (3 Bft) NO 42 1 min 0,000 mm 4,3 UV-I 727 W/m 12,2 C 17,2 C 17,7 km/h (3 Bft) 100,00 %
07.06.2016 10:36 19,8 C 61 % 1020,9 hPa 0,0 l/m 9,4 km/h (2 Bft) NO 38 1 min 0,000 mm 4,3 UV-I 728 W/m 12,1 C 18,6 C 14,5 km/h (3 Bft) 94,44 %
07.06.2016 10:37 19,8 C 63 % 1020,9 hPa 0,0 l/m 13,5 km/h (3 Bft) O-NO 62 1 min 0,000 mm 4,3 UV-I 731 W/m 12,5 C 17,4 C 17,7 km/h (3 Bft) 95,65 %
07.06.2016 10:38 19,8 C 59 % 1020,9 hPa 0,0 l/m 13,5 km/h (3 Bft) NO 53 1 min 0,000 mm 4,3 UV-I 734 W/m 11,6 C 17,4 C 16,1 km/h (3 Bft) 95,83 %
07.06.2016 10:39 19,8 C 60 % 1020,8 hPa 0,0 l/m 16,0 km/h (3 Bft) O-NO 64 1 min 0,000 mm 4,4 UV-I 737 W/m 11,8 C 16,8 C 19,3 km/h (3 Bft) 100,00 %
07.06.2016 10:40 19,7 C 58 % 1020,9 hPa 0,0 l/m 14,1 km/h (3 Bft) NO 46 1 min 0,000 mm 4,4 UV-I 738 W/m 11,2 C 17,1 C 19,3 km/h (3 Bft) 95,83 %
07.06.2016 10:41 19,7 C 60 % 1020,9 hPa 0,0 l/m 9,7 km/h (2 Bft) O 98 1 min 0,000 mm 4,4 UV-I 739 W/m 11,7 C 18,4 C 14,5 km/h (3 Bft) 95,65 %
07.06.2016 10:42 19,7 C 61 % 1020,9 hPa 0,0 l/m 8,3 km/h (2 Bft) NO 40 1 min 0,000 mm 4,4 UV-I 740 W/m 12,0 C 18,9 C 17,7 km/h (3 Bft) 100,00 %
07.06.2016 10:43 19,8 C 64 % 1020,9 hPa 0,0 l/m 11,6 km/h (2 Bft) N-NO 32 1 min 0,000 mm 4,4 UV-I 742 W/m 12,8 C 17,9 C 16,1 km/h (3 Bft) 95,65 %
07.06.2016 10:44 19,8 C 63 % 1020,9 hPa 0,0 l/m 8,3 km/h (2 Bft) NO 46 1 min 0,000 mm 4,5 UV-I 743 W/m 12,5 C 19,0 C 11,3 km/h (2 Bft) 100,00 %
07.06.2016 10:45 19,9 C 62 % 1020,9 hPa 0,0 l/m 12,8 km/h (3 Bft) O-NO 59 1 min 0,000 mm 4,5 UV-I 743 W/m 12,4 C 17,7 C 17,7 km/h (3 Bft) 92,86 %
07.06.2016 10:46 20,0 C 62 % 1020,9 hPa 0,0 l/m 8,7 km/h (2 Bft) O-NO 66 1 min 0,000 mm 4,5 UV-I 745 W/m 12,5 C 19,1 C 14,5 km/h (3 Bft) 100,00 %
07.06.2016 10:47 20,0 C 59 % 1020,9 hPa 0,0 l/m 14,2 km/h (3 Bft) O-NO 65 1 min 0,000 mm 4,5 UV-I 745 W/m 11,7 C 17,4 C 22,5 km/h (4 Bft) 91,30 %
07.06.2016 10:48 20,1 C 61 % 1020,9 hPa 0,0 l/m 16,4 km/h (3 Bft) O-NO 62 1 min 0,000 mm 4,6 UV-I 747 W/m 12,3 C 17,1 C 22,5 km/h (4 Bft) 100,00 %
07.06.2016 10:49 20,1 C 60 % 1020,9 hPa 0,0 l/m 8,0 km/h (2 Bft) NO 46 1 min 0,000 mm 4,6 UV-I 753 W/m 12,1 C 19,5 C 12,9 km/h (3 Bft) 95,65 %
07.06.2016 10:50 20,1 C 61 % 1020,9 hPa 0,0 l/m 9,4 km/h (2 Bft) NO 50 1 min 0,000 mm 4,6 UV-I 755 W/m 12,3 C 19,0 C 14,5 km/h (3 Bft) 91,67 %
07.06.2016 10:51 20,1 C 61 % 1020,9 hPa 0,0 l/m 12,0 km/h (2 Bft) NO 45 1 min 0,000 mm 4,6 UV-I 751 W/m 12,3 C 18,1 C 19,3 km/h (3 Bft) 100,00 %
07.06.2016 10:52 20,1 C 59 % 1020,9 hPa 0,0 l/m 12,0 km/h (2 Bft) O-NO 60 1 min 0,000 mm 4,6 UV-I 748 W/m 11,8 C 18,1 C 17,7 km/h (3 Bft) 95,83 %
07.06.2016 10:53 20,2 C 58 % 1020,9 hPa 0,0 l/m 13,2 km/h (3 Bft) NO 44 1 min 0,000 mm 4,6 UV-I 748 W/m 11,7 C 17,9 C 16,1 km/h (3 Bft) 100,00 %
07.06.2016 10:54 20,1 C 58 % 1020,9 hPa 0,0 l/m 14,4 km/h (3 Bft) NO 40 1 min 0,000 mm 4,7 UV-I 751 W/m 11,6 C 17,5 C 20,9 km/h (4 Bft) 92,31 %
07.06.2016 10:55 20,1 C 60 % 1020,9 hPa 0,0 l/m 15,3 km/h (3 Bft) NO 35 1 min 0,000 mm 4,7 UV-I 758 W/m 12,1 C 17,3 C 19,3 km/h (3 Bft) 100,00 %
07.06.2016 10:56 20,1 C 58 % 1020,9 hPa 0,0 l/m 8,7 km/h (2 Bft) NO 51 1 min 0,000 mm 4,7 UV-I 767 W/m 11,6 C 19,2 C 11,3 km/h (2 Bft) 97,37 %
07.06.2016 10:57 20,0 C 60 % 1020,9 hPa 0,0 l/m 9,2 km/h (2 Bft) O-NO 66 1 min 0,000 mm 4,8 UV-I 771 W/m 12,0 C 18,9 C 16,1 km/h (3 Bft) 100,00 %
07.06.2016 10:58 20,1 C 58 % 1020,9 hPa 0,0 l/m 11,3 km/h (2 Bft) N-NO 26 1 min 0,000 mm 4,8 UV-I 774 W/m 11,6 C 18,3 C 16,1 km/h (3 Bft) 100,00 %
07.06.2016 10:59 20,1 C 60 % 1020,9 hPa 0,0 l/m 11,9 km/h (2 Bft) O-NO 61 1 min 0,000 mm 4,9 UV-I 775 W/m 12,1 C 18,2 C 19,3 km/h (3 Bft) 100,00 %
07.06.2016 11:00 20,1 C 59 % 1020,9 hPa 0,0 l/m 11,3 km/h (2 Bft) NO 50 1 min 0,482 mm 4,9 UV-I 779 W/m 11,8 C 18,3 C 19,3 km/h (3 Bft) 100,00 %
07.06.2016 11:02 20,1 C 58 % 1020,9 hPa 0,0 l/m 10,5 km/h (2 Bft) NO 47 2 min 0,000 mm 4,9 UV-I 779 W/m 11,6 C 18,6 C 14,5 km/h (3 Bft) 97,56 %
07.06.2016 11:03 20,2 C 58 % 1020,9 hPa 0,0 l/m 10,1 km/h (2 Bft) O-NO 76 1 min 0,000 mm 4,9 UV-I 780 W/m 11,7 C 18,8 C 16,1 km/h (3 Bft) 100,00 %
07.06.2016 11:04 20,2 C 58 % 1020,9 hPa 0,0 l/m 13,0 km/h (3 Bft) O-NO 59 1 min 0,000 mm 4,9 UV-I 781 W/m 11,7 C 18,0 C 14,5 km/h (3 Bft) 100,00 %
07.06.2016 11:05 20,2 C 60 % 1020,9 hPa 0,0 l/m 9,9 km/h (2 Bft) O-NO 62 1 min 0,000 mm 4,9 UV-I 784 W/m 12,2 C 18,9 C 14,5 km/h (3 Bft) 95,83 %
07.06.2016 11:06 20,2 C 59 % 1020,9 hPa 0,0 l/m 8,4 km/h (2 Bft) N-NO 31 1 min 0,000 mm 5,0 UV-I 786 W/m 11,9 C 19,4 C 12,9 km/h (3 Bft) 100,00 %
07.06.2016 11:07 20,3 C 60 % 1020,9 hPa 0,0 l/m 11,6 km/h (2 Bft) O-NO 61 1 min 0,000 mm 5,0 UV-I 788 W/m 12,3 C 18,5 C 14,5 km/h (3 Bft) 100,00 %
07.06.2016 11:08 20,3 C 57 % 1020,9 hPa 0,0 l/m 13,3 km/h (3 Bft) O-NO 72 1 min 0,000 mm 5,0 UV-I 789 W/m 11,5 C 18,0 C 17,7 km/h (3 Bft) 100,00 %
07.06.2016 11:09 20,3 C 57 % 1020,9 hPa 0,0 l/m 11,1 km/h (2 Bft) NO 50 1 min 0,000 mm 5,0 UV-I 789 W/m 11,5 C 18,6 C 14,5 km/h (3 Bft) 100,00 %
07.06.2016 11:10 20,4 C 58 % 1020,9 hPa 0,0 l/m 12,4 km/h (3 Bft) O-NO 72 1 min 0,000 mm 5,0 UV-I 790 W/m 11,9 C 18,4 C 16,1 km/h (3 Bft) 100,00 %
07.06.2016 11:11 20,4 C 58 % 1020,9 hPa 0,0 l/m 11,2 km/h (2 Bft) O-NO 57 1 min 0,000 mm 5,1 UV-I 791 W/m 11,9 C 18,7 C 14,5 km/h (3 Bft) 100,00 %
07.06.2016 11:12 20,4 C 58 % 1020,9 hPa 0,0 l/m 9,4 km/h (2 Bft) NO 46 1 min 0,000 mm 5,1 UV-I 793 W/m 11,9 C 19,3 C 12,9 km/h (3 Bft) 100,00 %
07.06.2016 11:13 20,5 C 58 % 1020,9 hPa 0,0 l/m 7,9 km/h (2 Bft) O 79 1 min 0,000 mm 5,1 UV-I 792 W/m 11,9 C 19,9 C 14,5 km/h (3 Bft) 95,83 %
07.06.2016 11:14 20,6 C 60 % 1020,9 hPa 0,0 l/m 12,5 km/h (3 Bft) O 89 1 min 0,000 mm 5,1 UV-I 793 W/m 12,6 C 18,6 C 17,7 km/h (3 Bft) 95,65 %
07.06.2016 11:15 20,6 C 60 % 1020,9 hPa 0,0 l/m 13,7 km/h (3 Bft) N-NO 33 1 min 0,000 mm 5,1 UV-I 795 W/m 12,6 C 18,3 C 19,3 km/h (3 Bft) 100,00 %
07.06.2016 11:16 20,7 C 63 % 1020,9 hPa 0,0 l/m 10,3 km/h (2 Bft) O-NO 57 1 min 0,000 mm 5,1 UV-I 795 W/m 13,4 C 19,3 C 14,5 km/h (3 Bft) 95,65 %
07.06.2016 11:17 20,7 C 60 % 1020,9 hPa 0,0 l/m 12,5 km/h (3 Bft) NO 42 1 min 0,000 mm 5,2 UV-I 798 W/m 12,7 C 18,7 C 19,3 km/h (3 Bft) 100,00 %
07.06.2016 11:18 20,8 C 62 % 1020,9 hPa 0,0 l/m 14,1 km/h (3 Bft) NO 34 1 min 0,000 mm 5,2 UV-I 802 W/m 13,2 C 18,4 C 17,7 km/h (3 Bft) 100,00 %
07.06.2016 11:19 20,8 C 59 % 1020,9 hPa 0,0 l/m 12,0 km/h (2 Bft) N-NO 24 1 min 0,000 mm 5,2 UV-I 801 W/m 12,5 C 19,0 C 19,3 km/h (3 Bft) 100,00 %
07.06.2016 11:20 20,8 C 59 % 1020,9 hPa 0,0 l/m 7,4 km/h (2 Bft) NO 44 1 min 0,000 mm 5,2 UV-I 802 W/m 12,5 C 20,4 C 11,3 km/h (2 Bft) 100,00 %
07.06.2016 11:21 20,8 C 62 % 1020,9 hPa 0,0 l/m 8,2 km/h (2 Bft) N-NO 13 1 min 0,000 mm 5,2 UV-I 803 W/m 13,2 C 20,1 C 12,9 km/h (3 Bft) 100,00 %
07.06.2016 11:22 20,8 C 61 % 1020,9 hPa 0,0 l/m 16,8 km/h (3 Bft) O-NO 69 1 min 0,000 mm 5,3 UV-I 806 W/m 13,0 C 17,8 C 22,5 km/h (4 Bft) 100,00 %
07.06.2016 11:23 20,8 C 56 % 1020,9 hPa 0,0 l/m 17,1 km/h (3 Bft) NO 53 1 min 0,000 mm 5,3 UV-I 807 W/m 11,7 C 17,8 C 22,5 km/h (4 Bft) 95,65 %
07.06.2016 11:24 20,8 C 54 % 1020,9 hPa 0,0 l/m 12,3 km/h (3 Bft) NO 54 1 min 0,000 mm 5,3 UV-I 810 W/m 11,1 C 18,9 C 16,1 km/h (3 Bft) 100,00 %
07.06.2016 11:25 20,8 C 55 % 1020,9 hPa 0,0 l/m 9,4 km/h (2 Bft) NO 55 1 min 0,000 mm 5,3 UV-I 811 W/m 11,4 C 19,7 C 12,9 km/h (3 Bft) 100,00 %
07.06.2016 11:26 20,8 C 54 % 1020,9 hPa 0,0 l/m 6,8 km/h (2 Bft) O-NO 69 1 min 0,000 mm 5,4 UV-I 815 W/m 11,1 C 20,7 C 12,9 km/h (3 Bft) 100,00 %
07.06.2016 11:27 20,8 C 57 % 1020,9 hPa 0,0 l/m 10,2 km/h (2 Bft) O-NO 76 1 min 0,000 mm 5,4 UV-I 816 W/m 12,0 C 19,5 C 16,1 km/h (3 Bft) 96,15 %
07.06.2016 11:28 20,8 C 57 % 1020,9 hPa 0,0 l/m 12,2 km/h (2 Bft) O-NO 73 1 min 0,000 mm 5,4 UV-I 817 W/m 12,0 C 18,9 C 16,1 km/h (3 Bft) 100,00 %
07.06.2016 11:29 20,8 C 58 % 1020,9 hPa 0,0 l/m 10,9 km/h (2 Bft) N-NO 28 1 min 0,000 mm 5,4 UV-I 819 W/m 12,2 C 19,3 C 17,7 km/h (3 Bft) 95,65 %
07.06.2016 11:30 20,8 C 58 % 1020,9 hPa 0,0 l/m 9,9 km/h (2 Bft) O-NO 77 1 min 0,000 mm 5,5 UV-I 820 W/m 12,2 C 19,6 C 14,5 km/h (3 Bft) 100,00 %
07.06.2016 11:31 20,8 C 58 % 1020,9 hPa 0,0 l/m 8,9 km/h (2 Bft) O 84 1 min 0,000 mm 5,5 UV-I 823 W/m 12,2 C 19,9 C 12,9 km/h (3 Bft) 95,65 %
07.06.2016 11:32 20,9 C 59 % 1020,9 hPa 0,0 l/m 9,7 km/h (2 Bft) O-NO 71 1 min 0,000 mm 5,5 UV-I 824 W/m 12,6 C 19,7 C 12,9 km/h (3 Bft) 96,30 %
07.06.2016 11:33 20,8 C 56 % 1020,9 hPa 0,0 l/m 7,7 km/h (2 Bft) O-NO 63 1 min 0,000 mm 5,5 UV-I 824 W/m 11,7 C 20,3 C 12,9 km/h (3 Bft) 95,65 %
07.06.2016 11:34 20,8 C 63 % 1020,9 hPa 0,0 l/m 8,6 km/h (2 Bft) NO 53 1 min 0,000 mm 5,5 UV-I 823 W/m 13,5 C 20,0 C 14,5 km/h (3 Bft) 100,00 %
07.06.2016 11:35 20,9 C 59 % 1020,9 hPa 0,0 l/m 12,1 km/h (2 Bft) O-NO 66 1 min 0,000 mm 5,6 UV-I 824 W/m 12,6 C 19,0 C 19,3 km/h (3 Bft) 100,00 %
07.06.2016 11:36 20,9 C 57 % 1020,9 hPa 0,0 l/m 10,3 km/h (2 Bft) O-NO 71 1 min 0,000 mm 5,5 UV-I 824 W/m 12,1 C 19,5 C 14,5 km/h (3 Bft) 95,65 %
07.06.2016 11:37 20,9 C 58 % 1020,9 hPa 0,0 l/m 7,6 km/h (2 Bft) O-NO 61 1 min 0,000 mm 5,6 UV-I 826 W/m 12,3 C 20,4 C 11,3 km/h (2 Bft) 100,00 %
07.06.2016 11:38 21,0 C 60 % 1020,9 hPa 0,0 l/m 7,0 km/h (2 Bft) N-NO 29 1 min 0,000 mm 5,6 UV-I 827 W/m 12,9 C 20,8 C 14,5 km/h (3 Bft) 95,65 %
07.06.2016 11:39 21,1 C 64 % 1020,9 hPa 0,0 l/m 9,4 km/h (2 Bft) N-NO 22 1 min 0,000 mm 5,6 UV-I 829 W/m 14,0 C 20,0 C 14,5 km/h (3 Bft) 100,00 %
07.06.2016 11:40 21,2 C 63 % 1020,8 hPa 0,0 l/m 12,6 km/h (3 Bft) N-NO 30 1 min 0,000 mm 5,6 UV-I 830 W/m 13,9 C 19,3 C 16,1 km/h (3 Bft) 100,00 %
07.06.2016 11:41 21,1 C 61 % 1020,8 hPa 0,0 l/m 9,4 km/h (2 Bft) NO 40 1 min 0,000 mm 5,7 UV-I 831 W/m 13,3 C 20,0 C 16,1 km/h (3 Bft) 100,00 %
07.06.2016 11:42 21,1 C 64 % 1020,8 hPa 0,0 l/m 7,9 km/h (2 Bft) NO 49 1 min 0,000 mm 5,7 UV-I 831 W/m 14,0 C 20,5 C 14,5 km/h (3 Bft) 100,00 %
07.06.2016 11:43 21,1 C 59 % 1020,8 hPa 0,0 l/m 5,8 km/h (2 Bft) NO 52 1 min 0,000 mm 5,7 UV-I 833 W/m 12,8 C 21,1 C 9,7 km/h (2 Bft) 100,00 %
07.06.2016 11:44 21,2 C 62 % 1020,8 hPa 0,0 l/m 8,4 km/h (2 Bft) N-NO 28 1 min 0,000 mm 5,7 UV-I 834 W/m 13,6 C 20,5 C 14,5 km/h (3 Bft) 100,00 %
07.06.2016 11:45 21,3 C 63 % 1020,8 hPa 0,0 l/m 12,6 km/h (3 Bft) NO 44 1 min 0,000 mm 5,8 UV-I 836 W/m 14,0 C 19,4 C 17,7 km/h (3 Bft) 100,00 %
07.06.2016 11:46 21,3 C 61 % 1020,8 hPa 0,0 l/m 8,9 km/h (2 Bft) O 85 1 min 0,000 mm 5,8 UV-I 837 W/m 13,5 C 20,4 C 14,5 km/h (3 Bft) 100,00 %
07.06.2016 11:47 21,3 C 61 % 1020,8 hPa 0,0 l/m 6,2 km/h (2 Bft) O-NO 76 1 min 0,000 mm 5,8 UV-I 838 W/m 13,5 C 21,3 C 11,3 km/h (2 Bft) 100,00 %
07.06.2016 11:48 21,4 C 61 % 1020,8 hPa 0,0 l/m 6,4 km/h (2 Bft) NO 39 1 min 0,000 mm 5,8 UV-I 838 W/m 13,6 C 21,4 C 9,7 km/h (2 Bft) 100,00 %
07.06.2016 11:49 21,5 C 61 % 1020,8 hPa 0,0 l/m 6,9 km/h (2 Bft) O-NO 73 1 min 0,000 mm 5,8 UV-I 841 W/m 13,7 C 21,3 C 9,7 km/h (2 Bft) 95,83 %
07.06.2016 11:50 21,5 C 60 % 1020,8 hPa 0,0 l/m 10,5 km/h (2 Bft) N 9 1 min 0,000 mm 5,8 UV-I 841 W/m 13,4 C 20,2 C 14,5 km/h (3 Bft) 100,00 %
07.06.2016 11:51 21,5 C 63 % 1020,8 hPa 0,0 l/m 9,3 km/h (2 Bft) NO 56 1 min 0,000 mm 5,8 UV-I 840 W/m 14,2 C 20,5 C 17,7 km/h (3 Bft) 100,00 %
07.06.2016 11:52 21,5 C 58 % 1020,8 hPa 0,0 l/m 11,9 km/h (2 Bft) O-NO 57 1 min 0,000 mm 5,8 UV-I 840 W/m 12,9 C 19,8 C 17,7 km/h (3 Bft) 100,00 %
07.06.2016 11:53 21,4 C 61 % 1020,7 hPa 0,0 l/m 13,9 km/h (3 Bft) N-NO 32 1 min 0,000 mm 5,8 UV-I 840 W/m 13,6 C 19,2 C 17,7 km/h (3 Bft) 100,00 %
07.06.2016 11:54 21,4 C 63 % 1020,7 hPa 0,0 l/m 9,5 km/h (2 Bft) N-NO 27 1 min 0,000 mm 5,8 UV-I 844 W/m 14,1 C 20,3 C 14,5 km/h (3 Bft) 100,00 %
07.06.2016 11:55 21,5 C 63 % 1020,7 hPa 0,0 l/m 11,7 km/h (2 Bft) NO 42 1 min 0,000 mm 5,6 UV-I 845 W/m 14,2 C 19,8 C 16,1 km/h (3 Bft) 100,00 %
07.06.2016 11:56 21,5 C 62 % 1020,8 hPa 0,0 l/m 9,3 km/h (2 Bft) NO 35 1 min 0,000 mm 5,1 UV-I 848 W/m 13,9 C 20,5 C 16,1 km/h (3 Bft) 100,00 %
07.06.2016 11:57 21,5 C 60 % 1020,8 hPa 0,0 l/m 12,2 km/h (2 Bft) N-NO 23 1 min 0,000 mm 5,6 UV-I 851 W/m 13,4 C 19,7 C 17,7 km/h (3 Bft) 100,00 %
07.06.2016 11:58 21,6 C 58 % 1020,8 hPa 0,0 l/m 18,5 km/h (3 Bft) O-NO 65 1 min 0,000 mm 5,9 UV-I 851 W/m 13,0 C 18,5 C 22,5 km/h (4 Bft) 100,00 %
07.06.2016 11:59 21,5 C 56 % 1020,8 hPa 0,0 l/m 10,4 km/h (2 Bft) NO 47 1 min 0,000 mm 5,9 UV-I 853 W/m 12,3 C 20,2 C 16,1 km/h (3 Bft) 100,00 %
07.06.2016 12:00 21,5 C 59 % 1020,8 hPa 0,0 l/m 14,6 km/h (3 Bft) NO 54 1 min 0,534 mm 5,9 UV-I 854 W/m 13,1 C 19,2 C 17,7 km/h (3 Bft) 100,00 %
07.06.2016 12:01 21,4 C 54 % 1020,8 hPa 0,0 l/m 14,0 km/h (3 Bft) O-NO 61 1 min 0,000 mm 6,0 UV-I 854 W/m 11,7 C 19,2 C 19,3 km/h (3 Bft) 100,00 %
07.06.2016 12:02 21,4 C 55 % 1020,8 hPa 0,0 l/m 15,0 km/h (3 Bft) O-NO 59 1 min 0,000 mm 5,9 UV-I 854 W/m 12,0 C 18,9 C 17,7 km/h (3 Bft) 100,00 %
07.06.2016 12:03 21,4 C 55 % 1020,8 hPa 0,0 l/m 12,2 km/h (2 Bft) O-NO 61 1 min 0,000 mm 6,0 UV-I 856 W/m 12,0 C 19,6 C 16,1 km/h (3 Bft) 100,00 %
07.06.2016 12:04 21,4 C 56 % 1020,9 hPa 0,0 l/m 12,5 km/h (3 Bft) NO 45 1 min 0,000 mm 6,0 UV-I 858 W/m 12,3 C 19,5 C 17,7 km/h (3 Bft) 95,83 %
07.06.2016 12:05 21,4 C 58 % 1020,8 hPa 0,0 l/m 12,1 km/h (2 Bft) N 5 1 min 0,000 mm 6,0 UV-I 857 W/m 12,8 C 19,6 C 19,3 km/h (3 Bft) 100,00 %
07.06.2016 12:06 21,4 C 59 % 1020,8 hPa 0,0 l/m 7,2 km/h (2 Bft) N-NO 19 1 min 0,000 mm 6,0 UV-I 859 W/m 13,0 C 21,1 C 12,9 km/h (3 Bft) 100,00 %
07.06.2016 12:07 21,4 C 61 % 1020,8 hPa 0,0 l/m 8,6 km/h (2 Bft) N-NO 15 1 min 0,000 mm 6,0 UV-I 853 W/m 13,6 C 20,6 C 16,1 km/h (3 Bft) 91,30 %
07.06.2016 12:08 21,6 C 63 % 1020,8 hPa 0,0 l/m 6,8 km/h (2 Bft) NO 45 1 min 0,000 mm 6,0 UV-I 854 W/m 14,2 C 21,5 C 9,7 km/h (2 Bft) 100,00 %
07.06.2016 12:09 21,7 C 58 % 1020,8 hPa 0,0 l/m 9,9 km/h (2 Bft) O-NO 67 1 min 0,000 mm 6,0 UV-I 860 W/m 13,1 C 20,5 C 14,5 km/h (3 Bft) 100,00 %
07.06.2016 12:10 21,7 C 56 % 1020,7 hPa 0,0 l/m 12,8 km/h (3 Bft) O-NO 77 1 min 0,000 mm 6,1 UV-I 859 W/m 12,5 C 19,8 C 17,7 km/h (3 Bft) 100,00 %
07.06.2016 12:11 21,7 C 57 % 1020,7 hPa 0,0 l/m 13,7 km/h (3 Bft) O-NO 59 1 min 0,000 mm 5,9 UV-I 822 W/m 12,8 C 19,6 C 19,3 km/h (3 Bft) 95,83 %
07.06.2016 12:12 21,8 C 57 % 1020,8 hPa 0,0 l/m 10,9 km/h (2 Bft) NO 46 1 min 0,000 mm 6,1 UV-I 865 W/m 12,9 C 20,4 C 16,1 km/h (3 Bft) 95,65 %
07.06.2016 12:13 21,8 C 56 % 1020,8 hPa 0,0 l/m 7,8 km/h (2 Bft) NO 40 1 min 0,000 mm 6,1 UV-I 863 W/m 12,6 C 21,3 C 12,9 km/h (3 Bft) 100,00 %
07.06.2016 12:14 21,8 C 57 % 1020,8 hPa 0,0 l/m 9,1 km/h (2 Bft) NO 42 1 min 0,000 mm 6,0 UV-I 850 W/m 12,9 C 20,9 C 14,5 km/h (3 Bft) 100,00 %
07.06.2016 12:15 21,8 C 59 % 1020,8 hPa 0,0 l/m 10,7 km/h (2 Bft) NO 34 1 min 0,000 mm 6,1 UV-I 848 W/m 13,4 C 20,4 C 14,5 km/h (3 Bft) 100,00 %
07.06.2016 12:16 21,8 C 60 % 1020,8 hPa 0,0 l/m 9,9 km/h (2 Bft) NO 51 1 min 0,000 mm 6,1 UV-I 851 W/m 13,7 C 20,7 C 16,1 km/h (3 Bft) 95,65 %
07.06.2016 12:17 21,8 C 57 % 1020,8 hPa 0,0 l/m 7,8 km/h (2 Bft) NO 48 1 min 0,000 mm 6,2 UV-I 868 W/m 12,9 C 21,3 C 12,9 km/h (3 Bft) 100,00 %
07.06.2016 12:18 21,9 C 57 % 1020,8 hPa 0,0 l/m 7,8 km/h (2 Bft) NO 40 1 min 0,000 mm 6,2 UV-I 871 W/m 13,0 C 21,4 C 12,9 km/h (3 Bft) 100,00 %
07.06.2016 12:19 21,9 C 59 % 1020,8 hPa 0,0 l/m 5,5 km/h (1 Bft) NO 43 1 min 0,000 mm 6,2 UV-I 872 W/m 13,5 C 21,9 C 11,3 km/h (2 Bft) 100,00 %
07.06.2016 12:20 22,1 C 58 % 1020,7 hPa 0,0 l/m 11,4 km/h (2 Bft) NO 40 1 min 0,000 mm 6,2 UV-I 873 W/m 13,4 C 20,6 C 16,1 km/h (3 Bft) 95,65 %
07.06.2016 12:21 22,2 C 58 % 1020,7 hPa 0,0 l/m 8,8 km/h (2 Bft) O-NO 61 1 min 0,000 mm 6,3 UV-I 875 W/m 13,5 C 21,4 C 12,9 km/h (3 Bft) 100,00 %
07.06.2016 12:22 22,2 C 55 % 1020,7 hPa 0,0 l/m 7,8 km/h (2 Bft) NO 41 1 min 0,000 mm 6,3 UV-I 877 W/m 12,7 C 21,7 C 12,9 km/h (3 Bft) 91,30 %
07.06.2016 12:23 22,2 C 57 % 1020,7 hPa 0,0 l/m 4,5 km/h (1 Bft) NO 51 1 min 0,000 mm 6,3 UV-I 879 W/m 13,3 C 22,2 C 6,4 km/h (2 Bft) 100,00 %
07.06.2016 12:24 22,2 C 54 % 1020,7 hPa 0,0 l/m 5,9 km/h (2 Bft) O-NO 61 1 min 0,000 mm 6,3 UV-I 879 W/m 12,4 C 22,2 C 12,9 km/h (3 Bft) 95,65 %
07.06.2016 12:25 22,2 C 54 % 1020,7 hPa 0,0 l/m 5,2 km/h (1 Bft) O-NO 78 1 min 0,000 mm 6,3 UV-I 880 W/m 12,4 C 22,2 C 12,9 km/h (3 Bft) 95,83 %
07.06.2016 12:26 22,2 C 55 % 1020,7 hPa 0,0 l/m 7,7 km/h (2 Bft) N-NO 32 1 min 0,000 mm 6,3 UV-I 820 W/m 12,7 C 21,8 C 11,3 km/h (2 Bft) 95,65 %
07.06.2016 12:27 22,2 C 56 % 1020,7 hPa 0,0 l/m 13,0 km/h (3 Bft) O-NO 73 1 min 0,000 mm 6,3 UV-I 872 W/m 13,0 C 20,3 C 19,3 km/h (3 Bft) 96,30 %
07.06.2016 12:28 22,2 C 55 % 1020,7 hPa 0,0 l/m 14,3 km/h (3 Bft) O-NO 59 1 min 0,000 mm 6,3 UV-I 881 W/m 12,7 C 20,1 C 20,9 km/h (4 Bft) 95,65 %
07.06.2016 12:29 22,2 C 58 % 1020,7 hPa 0,0 l/m 8,3 km/h (2 Bft) N-NO 22 1 min 0,000 mm 6,3 UV-I 881 W/m 13,5 C 21,6 C 14,5 km/h (3 Bft) 95,83 %
07.06.2016 12:30 22,3 C 60 % 1020,7 hPa 0,0 l/m 11,6 km/h (2 Bft) NO 49 1 min 0,000 mm 6,3 UV-I 883 W/m 14,2 C 20,8 C 14,5 km/h (3 Bft) 100,00 %
07.06.2016 12:31 22,3 C 57 % 1020,6 hPa 0,0 l/m 13,1 km/h (3 Bft) O-NO 59 1 min 0,000 mm 6,4 UV-I 885 W/m 13,4 C 20,4 C 20,9 km/h (4 Bft) 96,30 %
07.06.2016 12:32 22,3 C 50 % 1020,6 hPa 0,0 l/m 15,3 km/h (3 Bft) O-NO 65 1 min 0,000 mm 6,4 UV-I 887 W/m 11,4 C 20,0 C 20,9 km/h (4 Bft) 95,65 %
07.06.2016 12:33 22,3 C 49 % 1020,6 hPa 0,0 l/m 15,1 km/h (3 Bft) NO 40 1 min 0,000 mm 6,4 UV-I 888 W/m 11,1 C 20,0 C 19,3 km/h (3 Bft) 100,00 %
07.06.2016 12:34 22,3 C 52 % 1020,7 hPa 0,0 l/m 15,9 km/h (3 Bft) O-NO 69 1 min 0,000 mm 6,4 UV-I 888 W/m 12,0 C 19,9 C 20,9 km/h (4 Bft) 96,55 %
07.06.2016 12:35 22,2 C 51 % 1020,6 hPa 0,0 l/m 14,3 km/h (3 Bft) O-NO 63 1 min 0,000 mm 6,4 UV-I 888 W/m 11,6 C 20,1 C 19,3 km/h (3 Bft) 100,00 %
07.06.2016 12:36 22,2 C 49 % 1020,6 hPa 0,0 l/m 17,2 km/h (3 Bft) NO 53 1 min 0,000 mm 6,4 UV-I 888 W/m 11,0 C 19,5 C 20,9 km/h (4 Bft) 95,83 %
07.06.2016 12:37 22,2 C 49 % 1020,6 hPa 0,0 l/m 15,2 km/h (3 Bft) O-NO 61 1 min 0,000 mm 6,4 UV-I 890 W/m 11,0 C 19,9 C 19,3 km/h (3 Bft) 100,00 %
07.06.2016 12:38 22,2 C 51 % 1020,6 hPa 0,0 l/m 10,1 km/h (2 Bft) O-NO 64 1 min 0,000 mm 6,4 UV-I 891 W/m 11,6 C 21,0 C 14,5 km/h (3 Bft) 95,83 %
07.06.2016 12:39 22,2 C 49 % 1020,6 hPa 0,0 l/m 12,5 km/h (3 Bft) O-NO 63 1 min 0,000 mm 6,4 UV-I 891 W/m 11,0 C 20,4 C 16,1 km/h (3 Bft) 100,00 %
07.06.2016 12:40 22,2 C 52 % 1020,6 hPa 0,0 l/m 11,3 km/h (2 Bft) NO 55 1 min 0,000 mm 6,4 UV-I 891 W/m 11,9 C 20,7 C 17,7 km/h (3 Bft) 95,83 %
07.06.2016 12:41 22,2 C 51 % 1020,6 hPa 0,0 l/m 9,0 km/h (2 Bft) NO 47 1 min 0,000 mm 6,4 UV-I 891 W/m 11,6 C 21,4 C 17,7 km/h (3 Bft) 95,65 %
07.06.2016 12:42 22,3 C 49 % 1020,6 hPa 0,0 l/m 12,5 km/h (3 Bft) N-NO 15 1 min 0,000 mm 6,4 UV-I 891 W/m 11,1 C 20,6 C 17,7 km/h (3 Bft) 100,00 %
07.06.2016 12:43 22,3 C 50 % 1020,6 hPa 0,0 l/m 13,6 km/h (3 Bft) O-NO 65 1 min 0,000 mm 6,3 UV-I 891 W/m 11,4 C 20,3 C 17,7 km/h (3 Bft) 95,65 %
07.06.2016 12:44 22,3 C 51 % 1020,6 hPa 0,0 l/m 15,1 km/h (3 Bft) NO 40 1 min 0,000 mm 5,8 UV-I 892 W/m 11,7 C 20,0 C 19,3 km/h (3 Bft) 100,00 %
07.06.2016 12:45 22,3 C 54 % 1020,5 hPa 0,0 l/m 12,2 km/h (2 Bft) O-NO 57 1 min 0,000 mm 5,5 UV-I 893 W/m 12,5 C 20,6 C 17,7 km/h (3 Bft) 92,86 %
07.06.2016 12:46 22,3 C 48 % 1020,6 hPa 0,0 l/m 10,2 km/h (2 Bft) O-NO 59 1 min 0,000 mm 6,2 UV-I 893 W/m 10,8 C 21,1 C 16,1 km/h (3 Bft) 100,00 %
07.06.2016 12:47 22,4 C 51 % 1020,6 hPa 0,0 l/m 13,7 km/h (3 Bft) NO 53 1 min 0,000 mm 5,7 UV-I 895 W/m 11,8 C 20,4 C 17,7 km/h (3 Bft) 95,65 %
07.06.2016 12:48 22,4 C 53 % 1020,6 hPa 0,0 l/m 17,5 km/h (3 Bft) O-SO 111 1 min 0,000 mm 6,4 UV-I 895 W/m 12,3 C 19,7 C 24,1 km/h (4 Bft) 100,00 %
07.06.2016 12:49 22,4 C 50 % 1020,6 hPa 0,0 l/m 12,5 km/h (3 Bft) O 80 1 min 0,000 mm 6,5 UV-I 896 W/m 11,5 C 20,7 C 17,7 km/h (3 Bft) 96,15 %
07.06.2016 12:50 22,5 C 50 % 1020,6 hPa 0,0 l/m 13,3 km/h (3 Bft) NO 49 1 min 0,000 mm 6,5 UV-I 895 W/m 11,5 C 20,6 C 16,1 km/h (3 Bft) 95,83 %
07.06.2016 12:51 22,5 C 49 % 1020,6 hPa 0,0 l/m 13,8 km/h (3 Bft) O-NO 64 1 min 0,000 mm 6,4 UV-I 895 W/m 11,2 C 20,5 C 20,9 km/h (4 Bft) 100,00 %
07.06.2016 12:52 22,5 C 50 % 1020,6 hPa 0,0 l/m 12,9 km/h (3 Bft) NO 54 1 min 0,000 mm 6,4 UV-I 895 W/m 11,5 C 20,7 C 17,7 km/h (3 Bft) 95,83 %
07.06.2016 12:53 22,5 C 52 % 1020,6 hPa 0,0 l/m 10,4 km/h (2 Bft) O-NO 59 1 min 0,000 mm 6,5 UV-I 895 W/m 12,1 C 21,3 C 14,5 km/h (3 Bft) 91,30 %
07.06.2016 12:54 22,5 C 50 % 1020,6 hPa 0,0 l/m 12,8 km/h (3 Bft) NO 50 1 min 0,000 mm 6,5 UV-I 897 W/m 11,5 C 20,7 C 16,1 km/h (3 Bft) 100,00 %
07.06.2016 12:55 22,5 C 51 % 1020,6 hPa 0,0 l/m 9,4 km/h (2 Bft) O-NO 58 1 min 0,000 mm 6,4 UV-I 884 W/m 11,8 C 21,6 C 12,9 km/h (3 Bft) 100,00 %
07.06.2016 12:56 22,5 C 46 % 1020,5 hPa 0,0 l/m 9,4 km/h (2 Bft) N-NO 27 1 min 0,000 mm 6,4 UV-I 875 W/m 10,3 C 21,6 C 12,9 km/h (3 Bft) 96,77 %
07.06.2016 12:57 22,4 C 47 % 1020,5 hPa 0,0 l/m 7,0 km/h (2 Bft) NO 47 1 min 0,000 mm 6,5 UV-I 834 W/m 10,5 C 22,2 C 9,7 km/h (2 Bft) 100,00 %
07.06.2016 12:58 22,4 C 50 % 1020,5 hPa 0,0 l/m 5,7 km/h (1 Bft) NO 55 1 min 0,000 mm 6,5 UV-I 895 W/m 11,5 C 22,4 C 8,0 km/h (2 Bft) 100,00 %
07.06.2016 12:59 22,4 C 49 % 1020,5 hPa 0,0 l/m 10,1 km/h (2 Bft) O-NO 66 1 min 0,000 mm 6,5 UV-I 895 W/m 11,2 C 21,3 C 16,1 km/h (3 Bft) 100,00 %
07.06.2016 13:00 22,5 C 50 % 1020,5 hPa 0,0 l/m 14,7 km/h (3 Bft) O-NO 60 1 min 0,000 mm 6,5 UV-I 895 W/m 11,5 C 20,3 C 19,3 km/h (3 Bft) 100,00 %
07.06.2016 13:01 22,6 C 53 % 1020,5 hPa 0,0 l/m 9,3 km/h (2 Bft) O-NO 74 1 min 0,584 mm 6,5 UV-I 896 W/m 12,5 C 21,7 C 17,7 km/h (3 Bft) 95,83 %
07.06.2016 13:02 22,6 C 52 % 1020,5 hPa 0,0 l/m 13,1 km/h (3 Bft) O 86 1 min 0,000 mm 6,5 UV-I 896 W/m 12,2 C 20,8 C 16,1 km/h (3 Bft) 95,65 %
07.06.2016 13:03 22,7 C 49 % 1020,5 hPa 0,0 l/m 10,9 km/h (2 Bft) O 81 1 min 0,000 mm 6,5 UV-I 895 W/m 11,4 C 21,4 C 14,5 km/h (3 Bft) 100,00 %
07.06.2016 13:04 22,7 C 49 % 1020,5 hPa 0,0 l/m 8,2 km/h (2 Bft) NO 46 1 min 0,000 mm 6,4 UV-I 893 W/m 11,4 C 22,1 C 11,3 km/h (2 Bft) 100,00 %
07.06.2016 13:05 22,7 C 49 % 1020,5 hPa 0,0 l/m 13,2 km/h (3 Bft) NO 55 1 min 0,000 mm 6,4 UV-I 893 W/m 11,4 C 20,9 C 17,7 km/h (3 Bft) 100,00 %
07.06.2016 13:06 22,7 C 51 % 1020,5 hPa 0,0 l/m 11,9 km/h (2 Bft) O-NO 74 1 min 0,000 mm 6,4 UV-I 893 W/m 12,0 C 21,2 C 17,7 km/h (3 Bft) 100,00 %
07.06.2016 13:07 22,7 C 47 % 1020,5 hPa 0,0 l/m 6,5 km/h (2 Bft) NO 48 1 min 0,000 mm 6,4 UV-I 893 W/m 10,8 C 22,7 C 9,7 km/h (2 Bft) 100,00 %
07.06.2016 13:08 22,8 C 51 % 1020,5 hPa 0,0 l/m 9,0 km/h (2 Bft) O-NO 67 1 min 0,000 mm 6,4 UV-I 893 W/m 12,1 C 22,0 C 12,9 km/h (3 Bft) 100,00 %
07.06.2016 13:09 22,8 C 50 % 1020,5 hPa 0,0 l/m 8,6 km/h (2 Bft) O 80 1 min 0,000 mm 6,4 UV-I 893 W/m 11,8 C 22,1 C 12,9 km/h (3 Bft) 100,00 %
07.06.2016 13:10 22,7 C 46 % 1020,5 hPa 0,0 l/m 6,2 km/h (2 Bft) O-NO 71 1 min 0,000 mm 6,4 UV-I 895 W/m 10,5 C 22,7 C 9,7 km/h (2 Bft) 100,00 %
07.06.2016 13:11 22,7 C 49 % 1020,5 hPa 0,0 l/m 7,2 km/h (2 Bft) O-NO 63 1 min 0,000 mm 6,4 UV-I 894 W/m 11,4 C 22,4 C 11,3 km/h (2 Bft) 95,83 %
07.06.2016 13:12 22,7 C 52 % 1020,5 hPa 0,0 l/m 9,2 km/h (2 Bft) O-NO 61 1 min 0,000 mm 6,4 UV-I 893 W/m 12,3 C 21,8 C 17,7 km/h (3 Bft) 100,00 %
07.06.2016 13:13 22,8 C 52 % 1020,5 hPa 0,0 l/m 10,7 km/h (2 Bft) O-NO 57 1 min 0,000 mm 6,4 UV-I 895 W/m 12,4 C 21,6 C 17,7 km/h (3 Bft) 100,00 %
07.06.2016 13:14 22,8 C 50 % 1020,5 hPa 0,0 l/m 7,0 km/h (2 Bft) N-NO 25 1 min 0,000 mm 6,4 UV-I 895 W/m 11,8 C 22,6 C 11,3 km/h (2 Bft) 100,00 %
07.06.2016 13:15 22,8 C 55 % 1020,5 hPa 0,0 l/m 6,2 km/h (2 Bft) NO 50 1 min 0,000 mm 6,4 UV-I 895 W/m 13,3 C 22,8 C 16,1 km/h (3 Bft) 100,00 %
07.06.2016 13:16 22,8 C 53 % 1020,5 hPa 0,0 l/m 11,3 km/h (2 Bft) NO 44 1 min 0,000 mm 6,4 UV-I 893 W/m 12,7 C 21,4 C 17,7 km/h (3 Bft) 100,00 %
07.06.2016 13:17 22,9 C 51 % 1020,5 hPa 0,0 l/m 16,5 km/h (3 Bft) O-NO 67 1 min 0,000 mm 6,4 UV-I 892 W/m 12,2 C 20,5 C 19,3 km/h (3 Bft) 100,00 %
07.06.2016 13:18 22,9 C 49 % 1020,5 hPa 0,0 l/m 16,0 km/h (3 Bft) O 93 1 min 0,000 mm 6,4 UV-I 892 W/m 11,6 C 20,6 C 19,3 km/h (3 Bft) 100,00 %
07.06.2016 13:19 22,8 C 47 % 1020,5 hPa 0,0 l/m 11,8 km/h (2 Bft) O-NO 61 1 min 0,000 mm 6,4 UV-I 894 W/m 10,9 C 21,3 C 19,3 km/h (3 Bft) 100,00 %
07.06.2016 13:20 22,8 C 48 % 1020,5 hPa 0,0 l/m 13,3 km/h (3 Bft) O-NO 78 1 min 0,000 mm 6,4 UV-I 895 W/m 11,2 C 21,0 C 16,1 km/h (3 Bft) 100,00 %
07.06.2016 13:21 22,8 C 51 % 1020,5 hPa 0,0 l/m 8,7 km/h (2 Bft) O-NO 62 1 min 0,000 mm 6,4 UV-I 896 W/m 12,1 C 22,1 C 12,9 km/h (3 Bft) 100,00 %
07.06.2016 13:22 22,8 C 49 % 1020,5 hPa 0,0 l/m 6,7 km/h (2 Bft) NO 46 1 min 0,000 mm 6,4 UV-I 896 W/m 11,5 C 22,7 C 9,7 km/h (2 Bft) 100,00 %
07.06.2016 13:23 22,8 C 53 % 1020,5 hPa 0,0 l/m 7,0 km/h (2 Bft) O-NO 78 1 min 0,000 mm 6,4 UV-I 895 W/m 12,7 C 22,6 C 9,7 km/h (2 Bft) 91,30 %
07.06.2016 13:24 22,9 C 48 % 1020,5 hPa 0,0 l/m 8,2 km/h (2 Bft) O 99 1 min 0,000 mm 6,4 UV-I 896 W/m 11,3 C 22,3 C 12,9 km/h (3 Bft) 95,83 %
07.06.2016 13:25 22,9 C 46 % 1020,5 hPa 0,0 l/m 11,2 km/h (2 Bft) O 97 1 min 0,000 mm 6,4 UV-I 896 W/m 10,7 C 21,6 C 16,1 km/h (3 Bft) 100,00 %
07.06.2016 13:26 22,8 C 47 % 1020,5 hPa 0,0 l/m 5,8 km/h (2 Bft) SO 132 1 min 0,000 mm 5,8 UV-I 895 W/m 10,9 C 22,8 C 9,7 km/h (2 Bft) 100,00 %
07.06.2016 13:27 22,9 C 49 % 1020,5 hPa 0,0 l/m 6,0 km/h (2 Bft) O-SO 115 1 min 0,000 mm 6,2 UV-I 893 W/m 11,6 C 22,9 C 9,7 km/h (2 Bft) 100,00 %
07.06.2016 13:28 23,0 C 50 % 1020,4 hPa 0,0 l/m 7,5 km/h (2 Bft) O-NO 61 1 min 0,000 mm 6,4 UV-I 893 W/m 12,0 C 22,7 C 17,7 km/h (3 Bft) 100,00 %
07.06.2016 13:29 23,0 C 48 % 1020,5 hPa 0,0 l/m 12,3 km/h (3 Bft) O-NO 76 1 min 0,000 mm 6,4 UV-I 893 W/m 11,4 C 21,4 C 14,5 km/h (3 Bft) 100,00 %
07.06.2016 13:30 22,9 C 46 % 1020,5 hPa 0,0 l/m 5,7 km/h (1 Bft) O 95 1 min 0,000 mm 6,4 UV-I 894 W/m 10,7 C 22,9 C 12,9 km/h (3 Bft) 100,00 %
07.06.2016 13:31 22,9 C 48 % 1020,5 hPa 0,0 l/m 8,0 km/h (2 Bft) NO 38 1 min 0,000 mm 6,4 UV-I 893 W/m 11,3 C 22,4 C 11,3 km/h (2 Bft) 100,00 %
07.06.2016 13:32 22,9 C 50 % 1020,5 hPa 0,0 l/m 5,1 km/h (1 Bft) NO 42 1 min 0,000 mm 6,4 UV-I 891 W/m 11,9 C 22,9 C 8,0 km/h (2 Bft) 100,00 %
07.06.2016 13:33 22,9 C 50 % 1020,5 hPa 0,0 l/m 5,9 km/h (2 Bft) N-NO 13 1 min 0,000 mm 6,4 UV-I 895 W/m 11,9 C 22,9 C 8,0 km/h (2 Bft) 100,00 %
07.06.2016 13:34 22,9 C 47 % 1020,5 hPa 0,0 l/m 6,5 km/h (2 Bft) O 93 1 min 0,000 mm 6,4 UV-I 893 W/m 11,0 C 22,9 C 9,7 km/h (2 Bft) 91,67 %
07.06.2016 13:35 22,9 C 48 % 1020,5 hPa 0,0 l/m 7,6 km/h (2 Bft) NO 53 1 min 0,000 mm 6,4 UV-I 894 W/m 11,3 C 22,5 C 9,7 km/h (2 Bft) 100,00 %
07.06.2016 13:36 23,1 C 49 % 1020,5 hPa 0,0 l/m 10,5 km/h (2 Bft) O-SO 115 1 min 0,000 mm 6,4 UV-I 895 W/m 11,8 C 21,9 C 17,7 km/h (3 Bft) 95,65 %
07.06.2016 13:37 23,0 C 46 % 1020,5 hPa 0,0 l/m 11,2 km/h (2 Bft) O 98 1 min 0,000 mm 6,4 UV-I 894 W/m 10,7 C 21,7 C 14,5 km/h (3 Bft) 100,00 %
07.06.2016 13:38 23,1 C 51 % 1020,4 hPa 0,0 l/m 8,0 km/h (2 Bft) S 173 1 min 0,000 mm 6,4 UV-I 895 W/m 12,4 C 22,6 C 12,9 km/h (3 Bft) 100,00 %
07.06.2016 13:39 23,1 C 47 % 1020,4 hPa 0,0 l/m 7,9 km/h (2 Bft) O 101 1 min 0,000 mm 6,4 UV-I 895 W/m 11,2 C 22,6 C 12,9 km/h (3 Bft) 100,00 %
07.06.2016 13:40 23,2 C 49 % 1020,5 hPa 0,0 l/m 8,3 km/h (2 Bft) O-NO 57 1 min 0,000 mm 6,4 UV-I 896 W/m 11,9 C 22,6 C 16,1 km/h (3 Bft) 91,30 %
07.06.2016 13:41 23,3 C 53 % 1020,4 hPa 0,0 l/m 13,0 km/h (3 Bft) O-NO 67 1 min 0,000 mm 6,4 UV-I 896 W/m 13,2 C 21,6 C 19,3 km/h (3 Bft) 100,00 %
07.06.2016 13:42 23,3 C 47 % 1020,4 hPa 0,0 l/m 8,3 km/h (2 Bft) SO 136 1 min 0,000 mm 6,4 UV-I 894 W/m 11,3 C 22,7 C 11,3 km/h (2 Bft) 91,30 %
07.06.2016 13:43 23,4 C 51 % 1020,4 hPa 0,0 l/m 10,4 km/h (2 Bft) O-NO 71 1 min 0,000 mm 6,4 UV-I 893 W/m 12,7 C 22,3 C 16,1 km/h (3 Bft) 100,00 %
07.06.2016 13:44 23,4 C 48 % 1020,4 hPa 0,0 l/m 10,3 km/h (2 Bft) NO 46 1 min 0,000 mm 6,3 UV-I 893 W/m 11,8 C 22,3 C 17,7 km/h (3 Bft) 100,00 %
07.06.2016 13:45 23,4 C 49 % 1020,4 hPa 0,0 l/m 16,7 km/h (3 Bft) O-NO 65 1 min 0,000 mm 6,3 UV-I 893 W/m 12,1 C 21,1 C 20,9 km/h (4 Bft) 95,83 %
07.06.2016 13:46 23,4 C 48 % 1020,4 hPa 0,0 l/m 13,4 km/h (3 Bft) O-NO 74 1 min 0,000 mm 6,3 UV-I 890 W/m 11,8 C 21,7 C 17,7 km/h (3 Bft) 100,00 %
07.06.2016 13:47 23,4 C 46 % 1020,3 hPa 0,0 l/m 15,2 km/h (3 Bft) O-NO 74 1 min 0,000 mm 6,3 UV-I 888 W/m 11,1 C 21,3 C 19,3 km/h (3 Bft) 100,00 %
07.06.2016 13:48 23,3 C 48 % 1020,4 hPa 0,0 l/m 11,1 km/h (2 Bft) O 92 1 min 0,000 mm 6,2 UV-I 888 W/m 11,7 C 22,0 C 16,1 km/h (3 Bft) 100,00 %
07.06.2016 13:49 23,3 C 46 % 1020,4 hPa 0,0 l/m 9,0 km/h (2 Bft) SO 126 1 min 0,000 mm 6,2 UV-I 886 W/m 11,0 C 22,5 C 16,1 km/h (3 Bft) 100,00 %
07.06.2016 13:50 23,1 C 45 % 1020,4 hPa 0,0 l/m 6,4 km/h (2 Bft) O-NO 63 1 min 0,000 mm 6,2 UV-I 884 W/m 10,5 C 23,1 C 12,9 km/h (3 Bft) 100,00 %
07.06.2016 13:51 23,1 C 49 % 1020,4 hPa 0,0 l/m 6,1 km/h (2 Bft) O 81 1 min 0,000 mm 6,2 UV-I 882 W/m 11,8 C 23,1 C 9,7 km/h (2 Bft) 100,00 %
07.06.2016 13:52 23,0 C 51 % 1020,3 hPa 0,0 l/m 3,2 km/h (1 Bft) O-NO 61 1 min 0,000 mm 6,2 UV-I 883 W/m 12,3 C 23,0 C 4,8 km/h (1 Bft) 100,00 %
07.06.2016 13:53 23,1 C 52 % 1020,3 hPa 0,0 l/m 8,9 km/h (2 Bft) O-NO 64 1 min 0,000 mm 6,2 UV-I 882 W/m 12,7 C 22,4 C 16,1 km/h (3 Bft) 100,00 %
07.06.2016 13:54 23,1 C 50 % 1020,3 hPa 0,0 l/m 8,1 km/h (2 Bft) O-NO 64 1 min 0,000 mm 6,2 UV-I 882 W/m 12,1 C 22,6 C 9,7 km/h (2 Bft) 100,00 %
07.06.2016 13:55 23,1 C 49 % 1020,3 hPa 0,0 l/m 7,0 km/h (2 Bft) NO 50 1 min 0,000 mm 6,2 UV-I 884 W/m 11,8 C 22,9 C 9,7 km/h (2 Bft) 100,00 %
07.06.2016 13:56 23,2 C 54 % 1020,3 hPa 0,0 l/m 6,6 km/h (2 Bft) O-NO 64 1 min 0,000 mm 6,2 UV-I 881 W/m 13,4 C 23,1 C 12,9 km/h (3 Bft) 100,00 %
07.06.2016 13:57 23,2 C 49 % 1020,3 hPa 0,0 l/m 7,5 km/h (2 Bft) NO 49 1 min 0,000 mm 6,2 UV-I 882 W/m 11,9 C 22,9 C 14,5 km/h (3 Bft) 100,00 %
07.06.2016 13:58 23,3 C 53 % 1020,3 hPa 0,0 l/m 8,9 km/h (2 Bft) O 85 1 min 0,000 mm 6,1 UV-I 881 W/m 13,2 C 22,6 C 14,5 km/h (3 Bft) 100,00 %
07.06.2016 13:59 23,3 C 48 % 1020,2 hPa 0,0 l/m 10,9 km/h (2 Bft) O-NO 62 1 min 0,000 mm 6,1 UV-I 880 W/m 11,7 C 22,1 C 14,5 km/h (3 Bft) 100,00 %
07.06.2016 14:00 23,3 C 52 % 1020,2 hPa 0,0 l/m 10,7 km/h (2 Bft) O 91 1 min 0,609 mm 6,1 UV-I 881 W/m 12,9 C 22,1 C 19,3 km/h (3 Bft) 100,00 %
07.06.2016 14:01 23,4 C 48 % 1020,2 hPa 0,0 l/m 10,8 km/h (2 Bft) O 82 1 min 0,000 mm 6,1 UV-I 881 W/m 11,8 C 22,2 C 16,1 km/h (3 Bft) 100,00 %
07.06.2016 14:02 23,4 C 47 % 1020,2 hPa 0,0 l/m 10,7 km/h (2 Bft) O-NO 73 1 min 0,000 mm 6,1 UV-I 879 W/m 11,4 C 22,2 C 17,7 km/h (3 Bft) 100,00 %
07.06.2016 14:03 23,3 C 48 % 1020,2 hPa 0,0 l/m 6,2 km/h (2 Bft) NO 40 1 min 0,000 mm 6,1 UV-I 879 W/m 11,7 C 23,3 C 8,0 km/h (2 Bft) 100,00 %
07.06.2016 14:04 23,3 C 50 % 1020,2 hPa 0,0 l/m 10,8 km/h (2 Bft) O 86 1 min 0,000 mm 6,1 UV-I 878 W/m 12,3 C 22,1 C 17,7 km/h (3 Bft) 100,00 %
07.06.2016 14:05 23,3 C 50 % 1020,2 hPa 0,0 l/m 14,8 km/h (3 Bft) O 88 1 min 0,000 mm 6,0 UV-I 877 W/m 12,3 C 21,3 C 17,7 km/h (3 Bft) 100,00 %
07.06.2016 14:06 23,3 C 51 % 1020,2 hPa 0,0 l/m 10,9 km/h (2 Bft) O-NO 58 1 min 0,000 mm 6,0 UV-I 877 W/m 12,6 C 22,1 C 12,9 km/h (3 Bft) 100,00 %
07.06.2016 14:07 23,3 C 51 % 1020,2 hPa 0,0 l/m 11,3 km/h (2 Bft) O-NO 78 1 min 0,000 mm 6,0 UV-I 877 W/m 12,6 C 22,0 C 16,1 km/h (3 Bft) 100,00 %
07.06.2016 14:08 23,4 C 50 % 1020,2 hPa 0,0 l/m 13,4 km/h (3 Bft) O-NO 65 1 min 0,000 mm 6,0 UV-I 877 W/m 12,4 C 21,7 C 19,3 km/h (3 Bft) 100,00 %
07.06.2016 14:09 23,4 C 52 % 1020,2 hPa 0,0 l/m 14,1 km/h (3 Bft) O-NO 77 1 min 0,000 mm 6,0 UV-I 875 W/m 13,0 C 21,5 C 19,3 km/h (3 Bft) 100,00 %
07.06.2016 14:10 23,4 C 49 % 1020,2 hPa 0,0 l/m 10,8 km/h (2 Bft) O-NO 70 1 min 0,000 mm 6,0 UV-I 875 W/m 12,1 C 22,2 C 17,7 km/h (3 Bft) 100,00 %
07.06.2016 14:11 23,4 C 47 % 1020,1 hPa 0,0 l/m 15,2 km/h (3 Bft) SO 135 1 min 0,000 mm 6,0 UV-I 876 W/m 11,4 C 21,3 C 19,3 km/h (3 Bft) 100,00 %
07.06.2016 14:12 23,3 C 48 % 1020,1 hPa 0,0 l/m 8,7 km/h (2 Bft) O-SO 111 1 min 0,000 mm 6,0 UV-I 880 W/m 11,7 C 22,6 C 12,9 km/h (3 Bft) 100,00 %
07.06.2016 14:13 23,3 C 50 % 1020,1 hPa 0,0 l/m 8,0 km/h (2 Bft) NO 34 1 min 0,000 mm 6,0 UV-I 881 W/m 12,3 C 22,8 C 12,9 km/h (3 Bft) 95,83 %
07.06.2016 14:14 23,3 C 55 % 1020,2 hPa 0,0 l/m 7,7 km/h (2 Bft) NO 56 1 min 0,000 mm 6,0 UV-I 875 W/m 13,7 C 22,9 C 12,9 km/h (3 Bft) 100,00 %
07.06.2016 14:15 23,3 C 50 % 1020,2 hPa 0,0 l/m 6,8 km/h (2 Bft) NO 44 1 min 0,000 mm 6,0 UV-I 874 W/m 12,3 C 23,2 C 8,0 km/h (2 Bft) 95,83 %
07.06.2016 14:16 23,3 C 53 % 1020,2 hPa 0,0 l/m 5,2 km/h (1 Bft) N-NO 14 1 min 0,000 mm 5,9 UV-I 870 W/m 13,2 C 23,3 C 12,9 km/h (3 Bft) 95,65 %
07.06.2016 14:17 23,3 C 56 % 1020,1 hPa 0,0 l/m 11,5 km/h (2 Bft) N-NO 28 1 min 0,000 mm 5,9 UV-I 867 W/m 14,0 C 21,9 C 19,3 km/h (3 Bft) 96,30 %
07.06.2016 14:18 23,3 C 58 % 1020,1 hPa 0,0 l/m 12,9 km/h (3 Bft) NO 39 1 min 0,000 mm 5,9 UV-I 862 W/m 14,6 C 21,6 C 17,7 km/h (3 Bft) 91,30 %
07.06.2016 14:19 23,3 C 53 % 1020,1 hPa 0,0 l/m 8,3 km/h (2 Bft) N-NO 22 1 min 0,000 mm 5,8 UV-I 860 W/m 13,2 C 22,7 C 12,9 km/h (3 Bft) 100,00 %
07.06.2016 14:20 23,3 C 53 % 1020,1 hPa 0,0 l/m 9,7 km/h (2 Bft) NO 50 1 min 0,000 mm 5,8 UV-I 860 W/m 13,2 C 22,4 C 14,5 km/h (3 Bft) 95,65 %
07.06.2016 14:21 23,2 C 59 % 1020,0 hPa 0,0 l/m 5,4 km/h (1 Bft) N-NO 30 1 min 0,000 mm 5,8 UV-I 857 W/m 14,7 C 23,2 C 9,7 km/h (2 Bft) 100,00 %
07.06.2016 14:22 23,2 C 57 % 1020,0 hPa 0,0 l/m 6,7 km/h (2 Bft) N-NW 347 1 min 0,000 mm 5,8 UV-I 855 W/m 14,2 C 23,1 C 12,9 km/h (3 Bft) 91,30 %
07.06.2016 14:23 23,1 C 56 % 1020,0 hPa 0,0 l/m 6,5 km/h (2 Bft) N-NO 13 1 min 0,000 mm 5,7 UV-I 852 W/m 13,8 C 23,1 C 12,9 km/h (3 Bft) 95,83 %
07.06.2016 14:24 23,1 C 58 % 1020,1 hPa 0,0 l/m 5,0 km/h (1 Bft) NO 47 1 min 0,000 mm 5,7 UV-I 849 W/m 14,4 C 23,1 C 9,7 km/h (2 Bft) 95,65 %
07.06.2016 14:25 23,2 C 54 % 1020,1 hPa 0,0 l/m 7,8 km/h (2 Bft) NO 50 1 min 0,000 mm 5,7 UV-I 849 W/m 13,4 C 22,8 C 14,5 km/h (3 Bft) 95,83 %
07.06.2016 14:26 23,2 C 53 % 1020,0 hPa 0,0 l/m 15,6 km/h (3 Bft) O-NO 74 1 min 0,000 mm 5,7 UV-I 850 W/m 13,1 C 21,0 C 22,5 km/h (4 Bft) 100,00 %
07.06.2016 14:27 23,3 C 51 % 1020,0 hPa 0,0 l/m 16,3 km/h (3 Bft) O-NO 67 1 min 0,000 mm 5,7 UV-I 853 W/m 12,6 C 21,0 C 22,5 km/h (4 Bft) 95,83 %
07.06.2016 14:28 23,3 C 50 % 1020,0 hPa 0,0 l/m 12,3 km/h (3 Bft) O-NO 69 1 min 0,000 mm 5,7 UV-I 852 W/m 12,3 C 21,8 C 17,7 km/h (3 Bft) 95,65 %
07.06.2016 14:29 23,4 C 50 % 1020,0 hPa 0,0 l/m 12,5 km/h (3 Bft) O 99 1 min 0,000 mm 5,7 UV-I 850 W/m 12,4 C 21,8 C 17,7 km/h (3 Bft) 95,83 %
07.06.2016 14:30 23,4 C 48 % 1020,1 hPa 0,0 l/m 15,0 km/h (3 Bft) O-SO 115 1 min 0,000 mm 5,6 UV-I 849 W/m 11,8 C 21,4 C 17,7 km/h (3 Bft) 100,00 %
07.06.2016 14:31 23,3 C 49 % 1020,1 hPa 0,0 l/m 10,6 km/h (2 Bft) O 96 1 min 0,000 mm 5,6 UV-I 849 W/m 12,0 C 22,1 C 16,1 km/h (3 Bft) 91,30 %
07.06.2016 14:32 23,3 C 49 % 1020,1 hPa 0,0 l/m 7,5 km/h (2 Bft) O 91 1 min 0,000 mm 5,6 UV-I 850 W/m 12,0 C 23,0 C 11,3 km/h (2 Bft) 100,00 %
07.06.2016 14:33 23,3 C 51 % 1020,1 hPa 0,0 l/m 3,6 km/h (1 Bft) O-NO 77 1 min 0,000 mm 5,6 UV-I 850 W/m 12,6 C 23,3 C 6,4 km/h (2 Bft) 95,65 %
07.06.2016 14:34 23,2 C 50 % 1020,0 hPa 0,0 l/m 3,9 km/h (1 Bft) O-NO 57 1 min 0,000 mm 5,6 UV-I 849 W/m 12,2 C 23,2 C 4,8 km/h (1 Bft) 100,00 %
07.06.2016 14:35 23,3 C 50 % 1020,0 hPa 0,0 l/m 8,0 km/h (2 Bft) O-NO 57 1 min 0,000 mm 5,6 UV-I 850 W/m 12,3 C 22,8 C 12,9 km/h (3 Bft) 91,30 %
07.06.2016 14:36 23,3 C 51 % 1020,0 hPa 0,0 l/m 7,8 km/h (2 Bft) O-NO 78 1 min 0,000 mm 5,6 UV-I 849 W/m 12,6 C 22,9 C 9,7 km/h (2 Bft) 95,83 %
07.06.2016 14:37 23,4 C 48 % 1020,0 hPa 0,0 l/m 6,2 km/h (2 Bft) NO 45 1 min 0,000 mm 5,6 UV-I 847 W/m 11,8 C 23,4 C 8,0 km/h (2 Bft) 100,00 %
07.06.2016 14:38 23,4 C 50 % 1020,0 hPa 0,0 l/m 3,8 km/h (1 Bft) NO 45 1 min 0,000 mm 5,5 UV-I 845 W/m 12,4 C 23,4 C 4,8 km/h (1 Bft) 96,15 %
07.06.2016 14:39 23,4 C 52 % 1020,0 hPa 0,0 l/m 7,6 km/h (2 Bft) NO 54 1 min 0,000 mm 5,5 UV-I 841 W/m 13,0 C 23,0 C 16,1 km/h (3 Bft) 95,65 %
07.06.2016 14:40 23,5 C 51 % 1020,0 hPa 0,0 l/m 8,1 km/h (2 Bft) NO 38 1 min 0,000 mm 5,5 UV-I 838 W/m 12,8 C 23,0 C 16,1 km/h (3 Bft) 95,83 %
07.06.2016 14:41 23,4 C 51 % 1020,0 hPa 0,0 l/m 5,4 km/h (1 Bft) N-NO 28 1 min 0,000 mm 5,5 UV-I 836 W/m 12,7 C 23,4 C 8,0 km/h (2 Bft) 100,00 %
07.06.2016 14:42 23,4 C 55 % 1020,0 hPa 0,0 l/m 7,9 km/h (2 Bft) O-NO 63 1 min 0,000 mm 5,4 UV-I 835 W/m 13,8 C 22,9 C 11,3 km/h (2 Bft) 95,83 %
07.06.2016 14:43 23,4 C 51 % 1019,9 hPa 0,0 l/m 9,9 km/h (2 Bft) NO 41 1 min 0,000 mm 5,4 UV-I 835 W/m 12,7 C 22,4 C 14,5 km/h (3 Bft) 95,65 %
07.06.2016 14:44 23,6 C 50 % 1019,9 hPa 0,0 l/m 11,4 km/h (2 Bft) O-NO 57 1 min 0,000 mm 5,4 UV-I 836 W/m 12,6 C 22,3 C 16,1 km/h (3 Bft) 100,00 %
07.06.2016 14:45 23,7 C 51 % 1019,9 hPa 0,0 l/m 15,3 km/h (3 Bft) N 360 1 min 0,000 mm 5,4 UV-I 837 W/m 13,0 C 21,7 C 19,3 km/h (3 Bft) 100,00 %
07.06.2016 14:46 23,7 C 55 % 1019,9 hPa 0,0 l/m 8,3 km/h (2 Bft) N-NO 33 1 min 0,000 mm 5,4 UV-I 839 W/m 14,1 C 23,2 C 12,9 km/h (3 Bft) 100,00 %
07.06.2016 14:47 23,7 C 53 % 1019,9 hPa 0,0 l/m 6,6 km/h (2 Bft) O-NO 57 1 min 0,000 mm 5,5 UV-I 840 W/m 13,5 C 23,6 C 12,9 km/h (3 Bft) 100,00 %
07.06.2016 14:48 23,6 C 56 % 1019,8 hPa 0,0 l/m 7,1 km/h (2 Bft) N 355 1 min 0,000 mm 5,4 UV-I 840 W/m 14,3 C 23,4 C 16,1 km/h (3 Bft) 100,00 %
07.06.2016 14:49 23,5 C 58 % 1019,8 hPa 0,0 l/m 12,6 km/h (3 Bft) N-NO 28 1 min 0,000 mm 5,1 UV-I 838 W/m 14,7 C 21,9 C 17,7 km/h (3 Bft) 91,30 %
07.06.2016 14:50 23,4 C 52 % 1019,9 hPa 0,0 l/m 8,2 km/h (2 Bft) NO 39 1 min 0,000 mm 5,4 UV-I 837 W/m 13,0 C 22,9 C 16,1 km/h (3 Bft) 100,00 %
07.06.2016 14:51 23,3 C 50 % 1019,8 hPa 0,0 l/m 3,9 km/h (1 Bft) NO 38 1 min 0,000 mm 5,4 UV-I 793 W/m 12,3 C 23,3 C 8,0 km/h (2 Bft) 100,00 %
07.06.2016 14:52 23,3 C 53 % 1019,8 hPa 0,0 l/m 6,7 km/h (2 Bft) NO 35 1 min 0,000 mm 5,4 UV-I 798 W/m 13,2 C 23,2 C 14,5 km/h (3 Bft) 100,00 %
07.06.2016 14:53 23,3 C 57 % 1019,8 hPa 0,0 l/m 2,5 km/h (1 Bft) N-NW 346 1 min 0,000 mm 5,3 UV-I 828 W/m 14,3 C 23,3 C 4,8 km/h (1 Bft) 96,30 %
07.06.2016 14:54 23,4 C 60 % 1019,8 hPa 0,0 l/m 3,2 km/h (1 Bft) NO 50 1 min 0,000 mm 5,3 UV-I 826 W/m 15,2 C 23,4 C 4,8 km/h (1 Bft) 91,30 %
07.06.2016 14:55 23,5 C 52 % 1019,8 hPa 0,0 l/m 11,3 km/h (2 Bft) O-NO 77 1 min 0,000 mm 5,3 UV-I 824 W/m 13,1 C 22,2 C 17,7 km/h (3 Bft) 100,00 %
07.06.2016 14:56 23,6 C 48 % 1019,8 hPa 0,0 l/m 8,5 km/h (2 Bft) NO 41 1 min 0,000 mm 5,2 UV-I 822 W/m 11,9 C 23,0 C 12,9 km/h (3 Bft) 91,30 %
07.06.2016 14:57 23,6 C 51 % 1019,8 hPa 0,0 l/m 5,4 km/h (1 Bft) NO 55 1 min 0,000 mm 5,2 UV-I 819 W/m 12,9 C 23,6 C 8,0 km/h (2 Bft) 100,00 %
07.06.2016 14:58 23,6 C 53 % 1019,7 hPa 0,0 l/m 4,0 km/h (1 Bft) O-NO 67 1 min 0,000 mm 5,2 UV-I 819 W/m 13,4 C 23,6 C 6,4 km/h (2 Bft) 91,30 %
07.06.2016 14:59 23,7 C 51 % 1019,7 hPa 0,0 l/m 2,7 km/h (1 Bft) N-NO 28 1 min 0,000 mm 5,2 UV-I 818 W/m 13,0 C 23,7 C 4,8 km/h (1 Bft) 100,00 %
07.06.2016 15:00 23,8 C 55 % 1019,7 hPa 0,0 l/m 10,9 km/h (2 Bft) O-NO 57 1 min 0,585 mm 5,2 UV-I 819 W/m 14,2 C 22,6 C 17,7 km/h (3 Bft) 95,65 %
07.06.2016 15:01 23,8 C 47 % 1019,7 hPa 0,0 l/m 16,7 km/h (3 Bft) O 82 1 min 0,000 mm 5,2 UV-I 819 W/m 11,8 C 21,6 C 20,9 km/h (4 Bft) 100,00 %
07.06.2016 15:02 23,8 C 49 % 1019,7 hPa 0,0 l/m 11,8 km/h (2 Bft) O 84 1 min 0,000 mm 5,1 UV-I 820 W/m 12,4 C 22,4 C 16,1 km/h (3 Bft) 100,00 %
07.06.2016 15:03 23,8 C 49 % 1019,7 hPa 0,0 l/m 10,8 km/h (2 Bft) SO 124 1 min 0,000 mm 5,1 UV-I 818 W/m 12,4 C 22,7 C 16,1 km/h (3 Bft) 100,00 %
07.06.2016 15:04 23,8 C 48 % 1019,7 hPa 0,0 l/m 12,5 km/h (3 Bft) O-NO 59 1 min 0,000 mm 5,1 UV-I 816 W/m 12,1 C 22,3 C 19,3 km/h (3 Bft) 100,00 %
07.06.2016 15:05 23,9 C 51 % 1019,7 hPa 0,0 l/m 14,3 km/h (3 Bft) NO 36 1 min 0,000 mm 5,0 UV-I 814 W/m 13,1 C 22,1 C 20,9 km/h (4 Bft) 100,00 %
07.06.2016 15:06 23,9 C 50 % 1019,7 hPa 0,0 l/m 10,7 km/h (2 Bft) O-NO 69 1 min 0,000 mm 5,0 UV-I 812 W/m 12,8 C 22,8 C 17,7 km/h (3 Bft) 100,00 %
07.06.2016 15:07 24,0 C 51 % 1019,7 hPa 0,0 l/m 14,9 km/h (3 Bft) O-NO 63 1 min 0,000 mm 4,9 UV-I 809 W/m 13,2 C 22,1 C 20,9 km/h (4 Bft) 100,00 %
07.06.2016 15:08 24,0 C 48 % 1019,7 hPa 0,0 l/m 16,9 km/h (3 Bft) NO 35 1 min 0,000 mm 4,9 UV-I 808 W/m 12,3 C 21,8 C 22,5 km/h (4 Bft) 100,00 %
07.06.2016 15:09 23,9 C 47 % 1019,7 hPa 0,0 l/m 14,8 km/h (3 Bft) NO 49 1 min 0,000 mm 4,9 UV-I 806 W/m 11,9 C 22,0 C 17,7 km/h (3 Bft) 100,00 %
07.06.2016 15:10 23,9 C 49 % 1019,7 hPa 0,0 l/m 9,1 km/h (2 Bft) O-NO 72 1 min 0,000 mm 4,9 UV-I 803 W/m 12,5 C 23,2 C 12,9 km/h (3 Bft) 100,00 %
07.06.2016 15:11 23,8 C 48 % 1019,7 hPa 0,0 l/m 14,3 km/h (3 Bft) NO 40 1 min 0,000 mm 4,8 UV-I 800 W/m 12,1 C 22,0 C 19,3 km/h (3 Bft) 100,00 %
07.06.2016 15:12 23,8 C 47 % 1019,7 hPa 0,0 l/m 15,4 km/h (3 Bft) O-NO 59 1 min 0,000 mm 4,8 UV-I 800 W/m 11,8 C 21,8 C 19,3 km/h (3 Bft) 100,00 %
07.06.2016 15:13 23,8 C 48 % 1019,6 hPa 0,0 l/m 15,4 km/h (3 Bft) NO 39 1 min 0,000 mm 4,8 UV-I 800 W/m 12,1 C 21,8 C 19,3 km/h (3 Bft) 95,65 %
07.06.2016 15:14 23,8 C 50 % 1019,6 hPa 0,0 l/m 14,0 km/h (3 Bft) N-NO 28 1 min 0,000 mm 4,8 UV-I 792 W/m 12,7 C 22,0 C 19,3 km/h (3 Bft) 100,00 %
07.06.2016 15:15 23,7 C 51 % 1019,7 hPa 0,0 l/m 12,3 km/h (3 Bft) N-NO 33 1 min 0,000 mm 4,8 UV-I 786 W/m 13,0 C 22,2 C 16,1 km/h (3 Bft) 95,65 %
07.06.2016 15:16 23,6 C 52 % 1019,7 hPa 0,0 l/m 11,0 km/h (2 Bft) N-NO 12 1 min 0,000 mm 4,7 UV-I 786 W/m 13,2 C 22,4 C 16,1 km/h (3 Bft) 100,00 %
07.06.2016 15:17 23,6 C 50 % 1019,7 hPa 0,0 l/m 9,8 km/h (2 Bft) O-NO 60 1 min 0,000 mm 4,7 UV-I 788 W/m 12,6 C 22,7 C 12,9 km/h (3 Bft) 100,00 %
07.06.2016 15:18 23,6 C 47 % 1019,7 hPa 0,0 l/m 11,7 km/h (2 Bft) O-NO 65 1 min 0,000 mm 4,7 UV-I 789 W/m 11,6 C 22,2 C 14,5 km/h (3 Bft) 100,00 %
07.06.2016 15:19 23,6 C 47 % 1019,7 hPa 0,0 l/m 13,3 km/h (3 Bft) O 84 1 min 0,000 mm 4,7 UV-I 792 W/m 11,6 C 21,9 C 16,1 km/h (3 Bft) 100,00 %
07.06.2016 15:20 23,6 C 48 % 1019,7 hPa 0,0 l/m 9,3 km/h (2 Bft) O 81 1 min 0,000 mm 4,7 UV-I 787 W/m 11,9 C 22,8 C 17,7 km/h (3 Bft) 100,00 %
07.06.2016 15:21 23,6 C 48 % 1019,7 hPa 0,0 l/m 12,9 km/h (3 Bft) O-NO 76 1 min 0,000 mm 4,6 UV-I 786 W/m 11,9 C 22,0 C 17,7 km/h (3 Bft) 100,00 %
07.06.2016 15:22 23,7 C 48 % 1019,6 hPa 0,0 l/m 12,0 km/h (2 Bft) O-NO 66 1 min 0,000 mm 4,6 UV-I 783 W/m 12,0 C 22,3 C 16,1 km/h (3 Bft) 95,83 %
07.06.2016 15:23 23,7 C 50 % 1019,6 hPa 0,0 l/m 10,7 km/h (2 Bft) O-SO 109 1 min 0,000 mm 4,6 UV-I 782 W/m 12,6 C 22,6 C 14,5 km/h (3 Bft) 100,00 %
07.06.2016 15:24 23,7 C 48 % 1019,6 hPa 0,0 l/m 7,7 km/h (2 Bft) O-NO 59 1 min 0,000 mm 4,6 UV-I 782 W/m 12,0 C 23,3 C 11,3 km/h (2 Bft) 100,00 %
07.06.2016 15:25 23,7 C 49 % 1019,6 hPa 0,0 l/m 9,5 km/h (2 Bft) O-NO 63 1 min 0,000 mm 4,6 UV-I 784 W/m 12,3 C 22,8 C 14,5 km/h (3 Bft) 95,65 %
07.06.2016 15:26 23,7 C 51 % 1019,5 hPa 0,0 l/m 9,9 km/h (2 Bft) O-NO 65 1 min 0,000 mm 4,6 UV-I 782 W/m 13,0 C 22,8 C 17,7 km/h (3 Bft) 95,83 %
07.06.2016 15:27 23,7 C 50 % 1019,6 hPa 0,0 l/m 13,2 km/h (3 Bft) NO 44 1 min 0,000 mm 4,5 UV-I 780 W/m 12,6 C 22,1 C 20,9 km/h (4 Bft) 100,00 %
07.06.2016 15:28 23,8 C 51 % 1019,5 hPa 0,0 l/m 11,7 km/h (2 Bft) O-NO 76 1 min 0,000 mm 4,5 UV-I 779 W/m 13,0 C 22,5 C 16,1 km/h (3 Bft) 96,15 %
07.06.2016 15:29 23,8 C 49 % 1019,5 hPa 0,0 l/m 14,8 km/h (3 Bft) NO 43 1 min 0,000 mm 4,5 UV-I 777 W/m 12,4 C 21,9 C 22,5 km/h (4 Bft) 100,00 %
07.06.2016 15:30 23,8 C 49 % 1019,5 hPa 0,0 l/m 13,3 km/h (3 Bft) NO 49 1 min 0,000 mm 4,4 UV-I 776 W/m 12,4 C 22,2 C 19,3 km/h (3 Bft) 95,65 %
07.06.2016 15:31 23,8 C 48 % 1019,5 hPa 0,0 l/m 10,6 km/h (2 Bft) O-NO 67 1 min 0,000 mm 4,4 UV-I 772 W/m 12,1 C 22,7 C 14,5 km/h (3 Bft) 100,00 %
07.06.2016 15:32 23,8 C 48 % 1019,5 hPa 0,0 l/m 8,0 km/h (2 Bft) O-NO 58 1 min 0,000 mm 4,4 UV-I 770 W/m 12,1 C 23,3 C 12,9 km/h (3 Bft) 100,00 %
07.06.2016 15:33 23,8 C 48 % 1019,5 hPa 0,0 l/m 8,9 km/h (2 Bft) O-NO 72 1 min 0,000 mm 4,4 UV-I 768 W/m 12,1 C 23,1 C 14,5 km/h (3 Bft) 100,00 %
07.06.2016 15:34 23,8 C 48 % 1019,5 hPa 0,0 l/m 11,4 km/h (2 Bft) NO 52 1 min 0,000 mm 4,3 UV-I 766 W/m 12,1 C 22,5 C 16,1 km/h (3 Bft) 100,00 %
07.06.2016 15:35 23,8 C 47 % 1019,5 hPa 0,0 l/m 11,1 km/h (2 Bft) O-NO 67 1 min 0,000 mm 4,3 UV-I 766 W/m 11,8 C 22,6 C 16,1 km/h (3 Bft) 100,00 %
07.06.2016 15:36 23,8 C 46 % 1019,5 hPa 0,0 l/m 9,6 km/h (2 Bft) O-NO 61 1 min 0,000 mm 4,3 UV-I 766 W/m 11,5 C 22,9 C 16,1 km/h (3 Bft) 100,00 %
07.06.2016 15:37 23,8 C 47 % 1019,4 hPa 0,0 l/m 14,7 km/h (3 Bft) O-NO 57 1 min 0,000 mm 4,3 UV-I 764 W/m 11,8 C 21,9 C 20,9 km/h (4 Bft) 100,00 %
07.06.2016 15:38 23,8 C 45 % 1019,5 hPa 0,0 l/m 13,3 km/h (3 Bft) NO 53 1 min 0,000 mm 4,3 UV-I 759 W/m 11,1 C 22,2 C 16,1 km/h (3 Bft) 100,00 %
07.06.2016 15:39 23,8 C 45 % 1019,5 hPa 0,0 l/m 10,1 km/h (2 Bft) O-NO 73 1 min 0,000 mm 4,2 UV-I 759 W/m 11,1 C 22,8 C 16,1 km/h (3 Bft) 100,00 %
07.06.2016 15:40 23,7 C 47 % 1019,4 hPa 0,0 l/m 9,2 km/h (2 Bft) N 355 1 min 0,000 mm 4,2 UV-I 759 W/m 11,7 C 22,9 C 14,5 km/h (3 Bft) 100,00 %
07.06.2016 15:41 23,7 C 56 % 1019,4 hPa 0,0 l/m 12,2 km/h (2 Bft) N-NO 31 1 min 0,000 mm 4,2 UV-I 758 W/m 14,4 C 22,3 C 17,7 km/h (3 Bft) 100,00 %
07.06.2016 15:42 23,8 C 54 % 1019,5 hPa 0,0 l/m 10,5 km/h (2 Bft) N-NO 27 1 min 0,000 mm 4,1 UV-I 750 W/m 13,9 C 22,7 C 14,5 km/h (3 Bft) 100,00 %
07.06.2016 15:43 23,8 C 51 % 1019,4 hPa 0,0 l/m 10,5 km/h (2 Bft) N-NO 28 1 min 0,000 mm 4,1 UV-I 745 W/m 13,0 C 22,7 C 16,1 km/h (3 Bft) 100,00 %
07.06.2016 15:44 23,7 C 51 % 1019,4 hPa 0,0 l/m 11,2 km/h (2 Bft) NO 44 1 min 0,000 mm 4,1 UV-I 736 W/m 13,0 C 22,5 C 19,3 km/h (3 Bft) 100,00 %
07.06.2016 15:45 23,7 C 49 % 1019,4 hPa 0,0 l/m 10,1 km/h (2 Bft) NO 55 1 min 0,000 mm 4,0 UV-I 735 W/m 12,3 C 22,7 C 16,1 km/h (3 Bft) 100,00 %
07.06.2016 15:46 23,7 C 52 % 1019,4 hPa 0,0 l/m 11,1 km/h (2 Bft) O-NO 61 1 min 0,000 mm 4,0 UV-I 731 W/m 13,2 C 22,5 C 19,3 km/h (3 Bft) 100,00 %
07.06.2016 15:47 23,7 C 50 % 1019,4 hPa 0,0 l/m 12,1 km/h (2 Bft) NO 49 1 min 0,000 mm 4,0 UV-I 737 W/m 12,6 C 22,3 C 17,7 km/h (3 Bft) 100,00 %
07.06.2016 15:48 23,8 C 51 % 1019,4 hPa 0,0 l/m 11,7 km/h (2 Bft) O-NO 61 1 min 0,000 mm 4,0 UV-I 736 W/m 13,0 C 22,5 C 16,1 km/h (3 Bft) 100,00 %
07.06.2016 15:49 23,8 C 47 % 1019,4 hPa 0,0 l/m 11,9 km/h (2 Bft) NO 52 1 min 0,000 mm 4,0 UV-I 735 W/m 11,8 C 22,4 C 19,3 km/h (3 Bft) 100,00 %
07.06.2016 15:50 23,8 C 47 % 1019,4 hPa 0,0 l/m 10,4 km/h (2 Bft) NO 36 1 min 0,000 mm 4,0 UV-I 732 W/m 11,8 C 22,7 C 19,3 km/h (3 Bft) 100,00 %
07.06.2016 15:51 23,8 C 51 % 1019,4 hPa 0,0 l/m 10,0 km/h (2 Bft) NO 38 1 min 0,000 mm 3,9 UV-I 730 W/m 13,0 C 22,8 C 16,1 km/h (3 Bft) 100,00 %
07.06.2016 15:52 23,7 C 49 % 1019,4 hPa 0,0 l/m 9,7 km/h (2 Bft) NO 49 1 min 0,000 mm 3,9 UV-I 731 W/m 12,3 C 22,8 C 16,1 km/h (3 Bft) 100,00 %
07.06.2016 15:53 23,7 C 49 % 1019,4 hPa 0,0 l/m 6,9 km/h (2 Bft) NO 55 1 min 0,000 mm 3,9 UV-I 730 W/m 12,3 C 23,6 C 9,7 km/h (2 Bft) 91,30 %
07.06.2016 15:54 23,8 C 49 % 1019,4 hPa 0,0 l/m 4,6 km/h (1 Bft) NO 48 1 min 0,000 mm 3,9 UV-I 721 W/m 12,4 C 23,8 C 8,0 km/h (2 Bft) 100,00 %
07.06.2016 15:55 23,9 C 53 % 1019,4 hPa 0,0 l/m 10,1 km/h (2 Bft) NO 48 1 min 0,000 mm 3,8 UV-I 716 W/m 13,7 C 22,9 C 16,1 km/h (3 Bft) 100,00 %
07.06.2016 15:56 24,1 C 48 % 1019,3 hPa 0,0 l/m 15,4 km/h (3 Bft) O 84 1 min 0,000 mm 3,8 UV-I 715 W/m 12,4 C 22,2 C 17,7 km/h (3 Bft) 100,00 %
07.06.2016 15:57 24,1 C 48 % 1019,4 hPa 0,0 l/m 12,0 km/h (2 Bft) O 90 1 min 0,000 mm 3,8 UV-I 715 W/m 12,4 C 22,8 C 14,5 km/h (3 Bft) 100,00 %
07.06.2016 15:58 24,1 C 47 % 1019,3 hPa 0,0 l/m 12,8 km/h (3 Bft) O-NO 69 1 min 0,000 mm 3,7 UV-I 713 W/m 12,1 C 22,6 C 17,7 km/h (3 Bft) 100,00 %
07.06.2016 15:59 24,0 C 47 % 1019,3 hPa 0,0 l/m 12,6 km/h (3 Bft) O-NO 74 1 min 0,000 mm 3,7 UV-I 701 W/m 12,0 C 22,5 C 16,1 km/h (3 Bft) 100,00 %
07.06.2016 16:00 24,0 C 48 % 1019,3 hPa 0,0 l/m 7,4 km/h (2 Bft) O-NO 67 1 min 0,000 mm 3,7 UV-I 708 W/m 12,3 C 23,7 C 12,9 km/h (3 Bft) 91,67 %
07.06.2016 16:01 23,9 C 47 % 1019,3 hPa 0,0 l/m 9,2 km/h (2 Bft) NO 53 1 min 0,558 mm 3,7 UV-I 705 W/m 11,9 C 23,1 C 14,5 km/h (3 Bft) 100,00 %
07.06.2016 16:02 23,9 C 46 % 1019,3 hPa 0,0 l/m 5,6 km/h (1 Bft) NO 46 1 min 0,000 mm 3,7 UV-I 707 W/m 11,6 C 23,9 C 9,7 km/h (2 Bft) 100,00 %
07.06.2016 16:03 23,9 C 49 % 1019,3 hPa 0,0 l/m 4,8 km/h (1 Bft) O-NO 69 1 min 0,000 mm 3,6 UV-I 704 W/m 12,5 C 23,9 C 6,4 km/h (2 Bft) 91,30 %
07.06.2016 16:04 23,9 C 50 % 1019,2 hPa 0,0 l/m 7,9 km/h (2 Bft) O-NO 69 1 min 0,000 mm 3,6 UV-I 699 W/m 12,8 C 23,5 C 12,9 km/h (3 Bft) 100,00 %
07.06.2016 16:05 23,9 C 49 % 1019,3 hPa 0,0 l/m 8,2 km/h (2 Bft) O-NO 63 1 min 0,000 mm 3,6 UV-I 700 W/m 12,5 C 23,4 C 12,9 km/h (3 Bft) 92,31 %
07.06.2016 16:06 24,0 C 47 % 1019,3 hPa 0,0 l/m 12,9 km/h (3 Bft) O-NO 70 1 min 0,000 mm 3,5 UV-I 701 W/m 12,0 C 22,5 C 20,9 km/h (4 Bft) 100,00 %
07.06.2016 16:07 24,0 C 48 % 1019,2 hPa 0,0 l/m 13,3 km/h (3 Bft) O 96 1 min 0,000 mm 3,5 UV-I 702 W/m 12,3 C 22,4 C 16,1 km/h (3 Bft) 100,00 %
07.06.2016 16:08 24,1 C 49 % 1019,3 hPa 0,0 l/m 8,9 km/h (2 Bft) NO 48 1 min 0,000 mm 3,5 UV-I 701 W/m 12,7 C 23,4 C 16,1 km/h (3 Bft) 96,15 %
07.06.2016 16:09 24,1 C 45 % 1019,2 hPa 0,0 l/m 11,5 km/h (2 Bft) NO 45 1 min 0,000 mm 3,5 UV-I 697 W/m 11,4 C 22,9 C 16,1 km/h (3 Bft) 100,00 %
07.06.2016 16:10 24,1 C 45 % 1019,2 hPa 0,0 l/m 10,6 km/h (2 Bft) O 101 1 min 0,000 mm 3,5 UV-I 699 W/m 11,4 C 23,0 C 14,5 km/h (3 Bft) 95,65 %
07.06.2016 16:11 24,0 C 45 % 1019,2 hPa 0,0 l/m 5,9 km/h (2 Bft) O-NO 69 1 min 0,000 mm 3,5 UV-I 694 W/m 11,3 C 24,0 C 9,7 km/h (2 Bft) 95,83 %
07.06.2016 16:12 23,9 C 44 % 1019,2 hPa 0,0 l/m 5,2 km/h (1 Bft) N-NO 24 1 min 0,000 mm 3,4 UV-I 693 W/m 10,9 C 23,9 C 6,4 km/h (2 Bft) 95,65 %
07.06.2016 16:13 23,8 C 46 % 1019,2 hPa 0,0 l/m 3,2 km/h (1 Bft) N 11 1 min 0,000 mm 3,4 UV-I 690 W/m 11,5 C 23,8 C 4,8 km/h (1 Bft) 95,83 %
07.06.2016 16:14 23,7 C 46 % 1019,2 hPa 0,0 l/m 8,9 km/h (2 Bft) N-NO 24 1 min 0,000 mm 3,4 UV-I 690 W/m 11,4 C 23,0 C 17,7 km/h (3 Bft) 95,65 %
07.06.2016 16:15 23,7 C 50 % 1019,1 hPa 0,0 l/m 9,5 km/h (2 Bft) O-NO 62 1 min 0,000 mm 3,4 UV-I 690 W/m 12,6 C 22,8 C 14,5 km/h (3 Bft) 95,83 %
07.06.2016 16:16 23,7 C 50 % 1019,2 hPa 0,0 l/m 8,6 km/h (2 Bft) N 5 1 min 0,000 mm 3,4 UV-I 694 W/m 12,6 C 23,1 C 14,5 km/h (3 Bft) 95,65 %
07.06.2016 16:17 23,7 C 50 % 1019,2 hPa 0,0 l/m 8,0 km/h (2 Bft) N-NO 22 1 min 0,000 mm 3,4 UV-I 693 W/m 12,6 C 23,2 C 14,5 km/h (3 Bft) 95,83 %
07.06.2016 16:18 23,7 C 52 % 1019,2 hPa 0,0 l/m 11,5 km/h (2 Bft) NO 38 1 min 0,000 mm 3,3 UV-I 693 W/m 13,2 C 22,4 C 16,1 km/h (3 Bft) 100,00 %
07.06.2016 16:19 23,7 C 49 % 1019,2 hPa 0,0 l/m 5,6 km/h (1 Bft) NO 43 1 min 0,000 mm 3,3 UV-I 692 W/m 12,3 C 23,7 C 8,0 km/h (2 Bft) 96,30 %
07.06.2016 16:20 23,7 C 50 % 1019,1 hPa 0,0 l/m 3,4 km/h (1 Bft) N-NO 17 1 min 0,000 mm 3,3 UV-I 690 W/m 12,6 C 23,7 C 6,4 km/h (2 Bft) 91,30 %
07.06.2016 16:21 23,8 C 48 % 1019,1 hPa 0,0 l/m 0,5 km/h (0 Bft) N 355 1 min 0,000 mm 3,3 UV-I 689 W/m 12,1 C 23,8 C 1,6 km/h (1 Bft) 100,00 %
07.06.2016 16:22 23,8 C 56 % 1019,1 hPa 0,0 l/m 1,8 km/h (1 Bft) N 355 1 min 0,000 mm 3,3 UV-I 689 W/m 14,5 C 23,8 C 4,8 km/h (1 Bft) 95,65 %
07.06.2016 16:23 23,9 C 51 % 1019,1 hPa 0,0 l/m 7,2 km/h (2 Bft) O-NO 65 1 min 0,000 mm 3,3 UV-I 686 W/m 13,1 C 23,7 C 17,7 km/h (3 Bft) 100,00 %
07.06.2016 16:24 24,1 C 52 % 1019,1 hPa 0,0 l/m 11,7 km/h (2 Bft) O 85 1 min 0,000 mm 3,3 UV-I 683 W/m 13,6 C 22,8 C 19,3 km/h (3 Bft) 95,65 %
07.06.2016 16:25 24,2 C 48 % 1019,1 hPa 0,0 l/m 14,9 km/h (3 Bft) NO 55 1 min 0,000 mm 3,2 UV-I 682 W/m 12,5 C 22,4 C 20,9 km/h (4 Bft) 100,00 %
07.06.2016 16:26 24,2 C 47 % 1019,0 hPa 0,0 l/m 14,1 km/h (3 Bft) O 92 1 min 0,000 mm 3,2 UV-I 681 W/m 12,2 C 22,5 C 19,3 km/h (3 Bft) 95,83 %
07.06.2016 16:27 24,2 C 46 % 1019,1 hPa 0,0 l/m 12,9 km/h (3 Bft) NO 48 1 min 0,000 mm 3,1 UV-I 679 W/m 11,8 C 22,7 C 17,7 km/h (3 Bft) 95,65 %
07.06.2016 16:28 24,2 C 48 % 1019,1 hPa 0,0 l/m 15,0 km/h (3 Bft) N-NO 30 1 min 0,000 mm 3,1 UV-I 677 W/m 12,5 C 22,3 C 19,3 km/h (3 Bft) 100,00 %
07.06.2016 16:29 24,2 C 48 % 1019,0 hPa 0,0 l/m 12,8 km/h (3 Bft) O-NO 73 1 min 0,000 mm 3,1 UV-I 672 W/m 12,5 C 22,7 C 16,1 km/h (3 Bft) 95,65 %
07.06.2016 16:30 24,2 C 47 % 1019,0 hPa 0,0 l/m 12,5 km/h (3 Bft) O-NO 75 1 min 0,000 mm 3,1 UV-I 668 W/m 12,2 C 22,8 C 17,7 km/h (3 Bft) 100,00 %
07.06.2016 16:31 24,2 C 47 % 1019,0 hPa 0,0 l/m 11,9 km/h (2 Bft) NO 56 1 min 0,000 mm 3,1 UV-I 670 W/m 12,2 C 22,9 C 16,1 km/h (3 Bft) 95,65 %
07.06.2016 16:32 24,2 C 47 % 1019,0 hPa 0,0 l/m 9,5 km/h (2 Bft) NO 36 1 min 0,000 mm 3,1 UV-I 677 W/m 12,2 C 23,4 C 12,9 km/h (3 Bft) 100,00 %
07.06.2016 16:33 24,2 C 52 % 1019,0 hPa 0,0 l/m 5,1 km/h (1 Bft) NO 42 1 min 0,000 mm 3,1 UV-I 683 W/m 13,7 C 24,2 C 8,0 km/h (2 Bft) 95,65 %
07.06.2016 16:34 24,2 C 50 % 1019,0 hPa 0,0 l/m 2,5 km/h (1 Bft) O-NO 63 1 min 0,000 mm 3,1 UV-I 680 W/m 13,1 C 24,2 C 6,4 km/h (2 Bft) 95,83 %
07.06.2016 16:35 24,2 C 53 % 1018,9 hPa 0,0 l/m 1,8 km/h (1 Bft) O-SO 106 1 min 0,000 mm 3,1 UV-I 680 W/m 14,0 C 24,2 C 3,2 km/h (1 Bft) 95,65 %
07.06.2016 16:36 24,2 C 48 % 1018,9 hPa 0,0 l/m 1,3 km/h (1 Bft) N-NO 15 1 min 0,000 mm 3,0 UV-I 679 W/m 12,5 C 24,2 C 3,2 km/h (1 Bft) 96,30 %
07.06.2016 16:37 24,1 C 54 % 1018,9 hPa 0,0 l/m 2,2 km/h (1 Bft) N-NO 32 1 min 0,000 mm 3,0 UV-I 676 W/m 14,2 C 24,1 C 4,8 km/h (1 Bft) 100,00 %
07.06.2016 16:38 24,2 C 52 % 1018,9 hPa 0,0 l/m 4,7 km/h (1 Bft) N-NO 31 1 min 0,000 mm 3,0 UV-I 672 W/m 13,7 C 24,2 C 8,0 km/h (2 Bft) 95,83 %
07.06.2016 16:39 24,1 C 51 % 1018,9 hPa 0,0 l/m 5,2 km/h (1 Bft) O-NO 63 1 min 0,000 mm 2,9 UV-I 638 W/m 13,3 C 24,1 C 8,0 km/h (2 Bft) 100,00 %
07.06.2016 16:40 24,1 C 52 % 1018,9 hPa 0,0 l/m 11,3 km/h (2 Bft) O 80 1 min 0,000 mm 2,9 UV-I 655 W/m 13,6 C 22,9 C 17,7 km/h (3 Bft) 95,83 %
07.06.2016 16:41 24,2 C 45 % 1018,9 hPa 0,0 l/m 15,7 km/h (3 Bft) O-NO 66 1 min 0,000 mm 2,9 UV-I 657 W/m 11,5 C 22,2 C 20,9 km/h (4 Bft) 100,00 %
07.06.2016 16:42 24,1 C 44 % 1018,9 hPa 0,0 l/m 11,0 km/h (2 Bft) O-NO 78 1 min 0,000 mm 2,9 UV-I 669 W/m 11,1 C 23,0 C 16,1 km/h (3 Bft) 100,00 %
07.06.2016 16:43 24,2 C 46 % 1018,9 hPa 0,0 l/m 12,0 km/h (2 Bft) O-NO 61 1 min 0,000 mm 2,9 UV-I 667 W/m 11,8 C 22,9 C 17,7 km/h (3 Bft) 100,00 %
07.06.2016 16:44 24,2 C 46 % 1018,8 hPa 0,0 l/m 12,7 km/h (3 Bft) NO 55 1 min 0,000 mm 2,8 UV-I 666 W/m 11,8 C 22,7 C 16,1 km/h (3 Bft) 100,00 %
07.06.2016 16:45 24,1 C 44 % 1018,8 hPa 0,0 l/m 9,4 km/h (2 Bft) O-NO 68 1 min 0,000 mm 2,8 UV-I 666 W/m 11,1 C 23,3 C 14,5 km/h (3 Bft) 91,67 %
07.06.2016 16:46 24,1 C 47 % 1018,8 hPa 0,0 l/m 5,5 km/h (1 Bft) NO 39 1 min 0,000 mm 2,8 UV-I 662 W/m 12,1 C 24,1 C 8,0 km/h (2 Bft) 100,00 %
07.06.2016 16:47 24,1 C 48 % 1018,8 hPa 0,0 l/m 6,0 km/h (2 Bft) O-NO 61 1 min 0,000 mm 2,8 UV-I 656 W/m 12,4 C 24,1 C 9,7 km/h (2 Bft) 100,00 %
07.06.2016 16:48 24,1 C 48 % 1018,8 hPa 0,0 l/m 10,5 km/h (2 Bft) NO 55 1 min 0,000 mm 2,7 UV-I 653 W/m 12,4 C 23,1 C 14,5 km/h (3 Bft) 95,65 %
07.06.2016 16:49 24,2 C 46 % 1018,8 hPa 0,0 l/m 8,9 km/h (2 Bft) O-NO 76 1 min 0,000 mm 2,7 UV-I 652 W/m 11,8 C 23,5 C 12,9 km/h (3 Bft) 100,00 %
07.06.2016 16:50 24,1 C 47 % 1018,8 hPa 0,0 l/m 8,2 km/h (2 Bft) NO 36 1 min 0,000 mm 2,7 UV-I 653 W/m 12,1 C 23,6 C 9,7 km/h (2 Bft) 96,15 %
07.06.2016 16:51 24,1 C 49 % 1018,8 hPa 0,0 l/m 8,0 km/h (2 Bft) O-NO 59 1 min 0,000 mm 2,7 UV-I 648 W/m 12,7 C 23,7 C 12,9 km/h (3 Bft) 100,00 %
07.06.2016 16:52 24,1 C 47 % 1018,7 hPa 0,0 l/m 8,2 km/h (2 Bft) O-NO 57 1 min 0,000 mm 2,7 UV-I 605 W/m 12,1 C 23,6 C 12,9 km/h (3 Bft) 95,65 %
07.06.2016 16:53 24,2 C 47 % 1018,7 hPa 0,0 l/m 13,1 km/h (3 Bft) O-NO 62 1 min 0,000 mm 2,6 UV-I 639 W/m 12,2 C 22,7 C 24,1 km/h (4 Bft) 100,00 %
07.06.2016 16:54 24,2 C 47 % 1018,7 hPa 0,0 l/m 18,8 km/h (3 Bft) NO 56 1 min 0,000 mm 2,6 UV-I 636 W/m 12,2 C 21,8 C 24,1 km/h (4 Bft) 100,00 %
07.06.2016 16:55 24,2 C 45 % 1018,7 hPa 0,0 l/m 15,8 km/h (3 Bft) O-NO 71 1 min 0,000 mm 2,6 UV-I 628 W/m 11,5 C 22,2 C 20,9 km/h (4 Bft) 95,83 %
07.06.2016 16:56 24,2 C 45 % 1018,7 hPa 0,0 l/m 14,9 km/h (3 Bft) O-NO 61 1 min 0,000 mm 2,5 UV-I 618 W/m 11,5 C 22,4 C 19,3 km/h (3 Bft) 100,00 %
07.06.2016 16:57 24,2 C 47 % 1018,7 hPa 0,0 l/m 10,7 km/h (2 Bft) O-NO 62 1 min 0,000 mm 2,5 UV-I 615 W/m 12,2 C 23,1 C 16,1 km/h (3 Bft) 100,00 %
07.06.2016 16:58 24,2 C 48 % 1018,6 hPa 0,0 l/m 10,6 km/h (2 Bft) O-NO 63 1 min 0,000 mm 2,4 UV-I 611 W/m 12,5 C 23,1 C 14,5 km/h (3 Bft) 100,00 %
07.06.2016 16:59 24,2 C 47 % 1018,6 hPa 0,0 l/m 9,9 km/h (2 Bft) NO 51 1 min 0,000 mm 2,4 UV-I 604 W/m 12,2 C 23,3 C 14,5 km/h (3 Bft) 100,00 %
07.06.2016 17:00 24,1 C 47 % 1018,6 hPa 0,0 l/m 10,5 km/h (2 Bft) O-NO 67 1 min 0,483 mm 2,4 UV-I 600 W/m 12,1 C 23,1 C 14,5 km/h (3 Bft) 100,00 %
07.06.2016 17:01 24,1 C 51 % 1018,6 hPa 0,0 l/m 6,7 km/h (2 Bft) O-NO 61 1 min 0,000 mm 2,3 UV-I 594 W/m 13,3 C 24,0 C 9,7 km/h (2 Bft) 100,00 %
07.06.2016 17:02 24,1 C 52 % 1018,6 hPa 0,0 l/m 5,4 km/h (1 Bft) NO 53 1 min 0,000 mm 2,3 UV-I 591 W/m 13,6 C 24,1 C 9,7 km/h (2 Bft) 100,00 %
07.06.2016 17:03 24,0 C 50 % 1018,6 hPa 0,0 l/m 7,7 km/h (2 Bft) NO 36 1 min 0,000 mm 2,3 UV-I 592 W/m 12,9 C 23,6 C 12,9 km/h (3 Bft) 100,00 %
07.06.2016 17:04 24,0 C 51 % 1018,6 hPa 0,0 l/m 9,6 km/h (2 Bft) NO 42 1 min 0,000 mm 2,3 UV-I 591 W/m 13,2 C 23,2 C 11,3 km/h (2 Bft) 100,00 %
07.06.2016 17:05 23,9 C 51 % 1018,6 hPa 0,0 l/m 10,1 km/h (2 Bft) N-NO 26 1 min 0,000 mm 2,3 UV-I 587 W/m 13,1 C 22,9 C 14,5 km/h (3 Bft) 100,00 %
07.06.2016 17:06 23,8 C 51 % 1018,5 hPa 0,0 l/m 6,1 km/h (2 Bft) N-NO 20 1 min 0,000 mm 2,3 UV-I 584 W/m 13,0 C 23,8 C 11,3 km/h (2 Bft) 100,00 %
07.06.2016 17:07 23,8 C 52 % 1018,5 hPa 0,0 l/m 6,9 km/h (2 Bft) NO 36 1 min 0,000 mm 2,2 UV-I 581 W/m 13,3 C 23,7 C 9,7 km/h (2 Bft) 100,00 %
07.06.2016 17:08 23,7 C 53 % 1018,5 hPa 0,0 l/m 6,4 km/h (2 Bft) O-NO 59 1 min 0,000 mm 2,2 UV-I 576 W/m 13,5 C 23,7 C 8,0 km/h (2 Bft) 100,00 %
07.06.2016 17:09 23,8 C 50 % 1018,5 hPa 0,0 l/m 4,5 km/h (1 Bft) O 94 1 min 0,000 mm 2,2 UV-I 571 W/m 12,7 C 23,8 C 8,0 km/h (2 Bft) 100,00 %
07.06.2016 17:10 23,8 C 52 % 1018,5 hPa 0,0 l/m 5,6 km/h (1 Bft) O 84 1 min 0,000 mm 2,2 UV-I 565 W/m 13,3 C 23,8 C 11,3 km/h (2 Bft) 100,00 %
07.06.2016 17:11 23,9 C 51 % 1018,6 hPa 0,0 l/m 7,7 km/h (2 Bft) O-NO 76 1 min 0,000 mm 2,2 UV-I 560 W/m 13,1 C 23,5 C 11,3 km/h (2 Bft) 100,00 %
07.06.2016 17:12 24,0 C 51 % 1018,5 hPa 0,0 l/m 8,2 km/h (2 Bft) O-NO 57 1 min 0,000 mm 2,1 UV-I 554 W/m 13,2 C 23,5 C 11,3 km/h (2 Bft) 100,00 %
07.06.2016 17:13 24,1 C 47 % 1018,5 hPa 0,0 l/m 10,6 km/h (2 Bft) O-NO 77 1 min 0,000 mm 2,1 UV-I 549 W/m 12,1 C 23,0 C 14,5 km/h (3 Bft) 100,00 %
07.06.2016 17:14 24,1 C 46 % 1018,5 hPa 0,0 l/m 11,1 km/h (2 Bft) O 97 1 min 0,000 mm 2,1 UV-I 547 W/m 11,7 C 22,9 C 14,5 km/h (3 Bft) 95,65 %
07.06.2016 17:15 24,1 C 48 % 1018,5 hPa 0,0 l/m 8,8 km/h (2 Bft) NO 55 1 min 0,000 mm 2,0 UV-I 543 W/m 12,4 C 23,5 C 14,5 km/h (3 Bft) 100,00 %
07.06.2016 17:16 24,1 C 48 % 1018,5 hPa 0,0 l/m 8,0 km/h (2 Bft) O-NO 64 1 min 0,000 mm 2,0 UV-I 539 W/m 12,4 C 23,7 C 11,3 km/h (2 Bft) 100,00 %
07.06.2016 17:17 24,1 C 46 % 1018,5 hPa 0,0 l/m 7,7 km/h (2 Bft) NO 51 1 min 0,000 mm 2,0 UV-I 535 W/m 11,7 C 23,7 C 11,3 km/h (2 Bft) 100,00 %
07.06.2016 17:18 24,1 C 43 % 1018,4 hPa 0,0 l/m 4,8 km/h (1 Bft) N-NO 22 1 min 0,000 mm 2,0 UV-I 533 W/m 10,7 C 24,1 C 8,0 km/h (2 Bft) 100,00 %
07.06.2016 17:19 24,1 C 49 % 1018,4 hPa 0,0 l/m 3,9 km/h (1 Bft) N-NO 30 1 min 0,000 mm 2,0 UV-I 533 W/m 12,7 C 24,1 C 6,4 km/h (2 Bft) 100,00 %
07.06.2016 17:20 24,0 C 48 % 1018,4 hPa 0,0 l/m 3,6 km/h (1 Bft) N-NO 22 1 min 0,000 mm 2,0 UV-I 531 W/m 12,3 C 24,0 C 6,4 km/h (2 Bft) 95,65 %
07.06.2016 17:21 24,0 C 51 % 1018,4 hPa 0,0 l/m 3,8 km/h (1 Bft) O-NO 60 1 min 0,000 mm 1,9 UV-I 527 W/m 13,2 C 24,0 C 8,0 km/h (2 Bft) 100,00 %
07.06.2016 17:22 23,9 C 50 % 1018,5 hPa 0,0 l/m 13,8 km/h (3 Bft) O-NO 66 1 min 0,000 mm 1,9 UV-I 521 W/m 12,8 C 22,2 C 19,3 km/h (3 Bft) 100,00 %
07.06.2016 17:23 23,9 C 49 % 1018,4 hPa 0,0 l/m 12,9 km/h (3 Bft) O-NO 61 1 min 0,000 mm 1,9 UV-I 515 W/m 12,5 C 22,3 C 17,7 km/h (3 Bft) 95,83 %
07.06.2016 17:24 23,9 C 47 % 1018,4 hPa 0,0 l/m 13,1 km/h (3 Bft) O-NO 67 1 min 0,000 mm 1,8 UV-I 510 W/m 11,9 C 22,3 C 19,3 km/h (3 Bft) 100,00 %
07.06.2016 17:25 23,9 C 46 % 1018,4 hPa 0,0 l/m 14,0 km/h (3 Bft) O-NO 67 1 min 0,000 mm 1,8 UV-I 507 W/m 11,6 C 22,1 C 17,7 km/h (3 Bft) 91,67 %
07.06.2016 17:26 23,9 C 48 % 1018,4 hPa 0,0 l/m 9,1 km/h (2 Bft) O-NO 74 1 min 0,000 mm 1,8 UV-I 503 W/m 12,2 C 23,2 C 14,5 km/h (3 Bft) 100,00 %
07.06.2016 17:27 23,9 C 46 % 1018,4 hPa 0,0 l/m 6,4 km/h (2 Bft) O-NO 64 1 min 0,000 mm 1,7 UV-I 501 W/m 11,6 C 23,9 C 9,7 km/h (2 Bft) 100,00 %
07.06.2016 17:28 23,9 C 47 % 1018,4 hPa 0,0 l/m 9,5 km/h (2 Bft) O-SO 105 1 min 0,000 mm 1,7 UV-I 498 W/m 11,9 C 23,1 C 12,9 km/h (3 Bft) 100,00 %
07.06.2016 17:29 23,9 C 47 % 1018,4 hPa 0,0 l/m 6,5 km/h (2 Bft) NO 40 1 min 0,000 mm 1,7 UV-I 494 W/m 11,9 C 23,9 C 9,7 km/h (2 Bft) 100,00 %
07.06.2016 17:30 23,9 C 47 % 1018,4 hPa 0,0 l/m 5,7 km/h (1 Bft) O-NO 63 1 min 0,000 mm 1,7 UV-I 491 W/m 11,9 C 23,9 C 8,0 km/h (2 Bft) 100,00 %
07.06.2016 17:31 24,0 C 48 % 1018,4 hPa 0,0 l/m 7,5 km/h (2 Bft) O-NO 65 1 min 0,000 mm 1,7 UV-I 489 W/m 12,3 C 23,7 C 11,3 km/h (2 Bft) 100,00 %
07.06.2016 17:32 24,0 C 46 % 1018,4 hPa 0,0 l/m 7,8 km/h (2 Bft) O-NO 59 1 min 0,000 mm 1,7 UV-I 487 W/m 11,7 C 23,6 C 12,9 km/h (3 Bft) 100,00 %
07.06.2016 17:33 24,0 C 47 % 1018,4 hPa 0,0 l/m 10,8 km/h (2 Bft) NO 49 1 min 0,000 mm 1,7 UV-I 485 W/m 12,0 C 22,9 C 12,9 km/h (3 Bft) 100,00 %
07.06.2016 17:34 23,9 C 47 % 1018,4 hPa 0,0 l/m 7,8 km/h (2 Bft) O 97 1 min 0,000 mm 1,6 UV-I 483 W/m 11,9 C 23,5 C 12,9 km/h (3 Bft) 100,00 %
07.06.2016 17:35 24,0 C 50 % 1018,4 hPa 0,0 l/m 12,5 km/h (3 Bft) NO 53 1 min 0,000 mm 1,6 UV-I 480 W/m 12,9 C 22,5 C 16,1 km/h (3 Bft) 100,00 %
07.06.2016 17:36 24,0 C 46 % 1018,4 hPa 0,0 l/m 8,9 km/h (2 Bft) NO 51 1 min 0,000 mm 1,6 UV-I 476 W/m 11,7 C 23,3 C 12,9 km/h (3 Bft) 95,83 %
07.06.2016 17:37 24,0 C 46 % 1018,4 hPa 0,0 l/m 8,8 km/h (2 Bft) O-NO 67 1 min 0,000 mm 1,6 UV-I 472 W/m 11,7 C 23,3 C 12,9 km/h (3 Bft) 100,00 %
07.06.2016 17:38 23,9 C 47 % 1018,4 hPa 0,0 l/m 5,5 km/h (1 Bft) O-NO 58 1 min 0,000 mm 1,6 UV-I 469 W/m 11,9 C 23,9 C 8,0 km/h (2 Bft) 100,00 %
07.06.2016 17:39 23,9 C 49 % 1018,4 hPa 0,0 l/m 5,4 km/h (1 Bft) NO 40 1 min 0,000 mm 1,5 UV-I 468 W/m 12,5 C 23,9 C 8,0 km/h (2 Bft) 95,65 %
07.06.2016 17:40 23,9 C 49 % 1018,4 hPa 0,0 l/m 12,3 km/h (3 Bft) NO 39 1 min 0,000 mm 1,5 UV-I 465 W/m 12,5 C 22,5 C 17,7 km/h (3 Bft) 100,00 %
07.06.2016 17:41 23,8 C 51 % 1018,4 hPa 0,0 l/m 9,8 km/h (2 Bft) NO 51 1 min 0,000 mm 1,5 UV-I 462 W/m 13,0 C 22,9 C 16,1 km/h (3 Bft) 100,00 %
07.06.2016 17:42 23,8 C 49 % 1018,4 hPa 0,0 l/m 12,4 km/h (3 Bft) O-NO 69 1 min 0,000 mm 1,5 UV-I 460 W/m 12,4 C 22,3 C 16,1 km/h (3 Bft) 100,00 %
07.06.2016 17:43 23,8 C 49 % 1018,4 hPa 0,0 l/m 12,1 km/h (2 Bft) O-NO 73 1 min 0,000 mm 1,5 UV-I 456 W/m 12,4 C 22,4 C 16,1 km/h (3 Bft) 100,00 %
07.06.2016 17:44 23,8 C 51 % 1018,4 hPa 0,0 l/m 10,5 km/h (2 Bft) O-NO 73 1 min 0,000 mm 1,4 UV-I 454 W/m 13,0 C 22,7 C 17,7 km/h (3 Bft) 100,00 %
07.06.2016 17:45 23,9 C 49 % 1018,4 hPa 0,0 l/m 10,9 km/h (2 Bft) O-NO 68 1 min 0,000 mm 1,4 UV-I 450 W/m 12,5 C 22,7 C 14,5 km/h (3 Bft) 100,00 %
07.06.2016 17:46 23,9 C 49 % 1018,3 hPa 0,0 l/m 10,7 km/h (2 Bft) O-NO 70 1 min 0,000 mm 1,4 UV-I 447 W/m 12,5 C 22,8 C 16,1 km/h (3 Bft) 100,00 %
07.06.2016 17:47 23,8 C 47 % 1018,3 hPa 0,0 l/m 12,7 km/h (3 Bft) O-NO 75 1 min 0,000 mm 1,4 UV-I 444 W/m 11,8 C 22,3 C 17,7 km/h (3 Bft) 100,00 %
07.06.2016 17:48 23,9 C 49 % 1018,3 hPa 0,0 l/m 8,6 km/h (2 Bft) O 82 1 min 0,000 mm 1,4 UV-I 440 W/m 12,5 C 23,3 C 12,9 km/h (3 Bft) 95,65 %
07.06.2016 17:49 23,9 C 51 % 1018,3 hPa 0,0 l/m 6,6 km/h (2 Bft) O-NO 59 1 min 0,000 mm 1,3 UV-I 437 W/m 13,1 C 23,9 C 11,3 km/h (2 Bft) 100,00 %
07.06.2016 17:50 23,9 C 51 % 1018,3 hPa 0,0 l/m 6,2 km/h (2 Bft) NO 44 1 min 0,000 mm 1,3 UV-I 434 W/m 13,1 C 23,9 C 12,9 km/h (3 Bft) 100,00 %
07.06.2016 17:51 23,9 C 48 % 1018,3 hPa 0,0 l/m 12,2 km/h (2 Bft) O-NO 73 1 min 0,000 mm 1,3 UV-I 431 W/m 12,2 C 22,5 C 16,1 km/h (3 Bft) 100,00 %
07.06.2016 17:52 23,8 C 46 % 1018,3 hPa 0,0 l/m 7,0 km/h (2 Bft) O-NO 61 1 min 0,000 mm 1,3 UV-I 428 W/m 11,5 C 23,6 C 9,7 km/h (2 Bft) 96,00 %
07.06.2016 17:53 23,8 C 47 % 1018,3 hPa 0,0 l/m 4,6 km/h (1 Bft) O-NO 71 1 min 0,000 mm 1,3 UV-I 424 W/m 11,8 C 23,8 C 6,4 km/h (2 Bft) 100,00 %
07.06.2016 17:54 23,8 C 48 % 1018,3 hPa 0,0 l/m 6,6 km/h (2 Bft) O-NO 68 1 min 0,000 mm 1,2 UV-I 419 W/m 12,1 C 23,7 C 9,7 km/h (2 Bft) 100,00 %
07.06.2016 17:55 23,8 C 46 % 1018,4 hPa 0,0 l/m 6,7 km/h (2 Bft) O-NO 65 1 min 0,000 mm 1,2 UV-I 417 W/m 11,5 C 23,7 C 8,0 km/h (2 Bft) 100,00 %
07.06.2016 17:56 23,8 C 47 % 1018,3 hPa 0,0 l/m 7,9 km/h (2 Bft) O 86 1 min 0,000 mm 1,2 UV-I 415 W/m 11,8 C 23,4 C 14,5 km/h (3 Bft) 95,65 %
07.06.2016 17:57 23,8 C 48 % 1018,4 hPa 0,0 l/m 11,3 km/h (2 Bft) NO 53 1 min 0,000 mm 1,2 UV-I 414 W/m 12,1 C 22,6 C 16,1 km/h (3 Bft) 95,83 %
07.06.2016 17:58 23,8 C 47 % 1018,3 hPa 0,0 l/m 12,4 km/h (3 Bft) O 80 1 min 0,000 mm 1,2 UV-I 411 W/m 11,8 C 22,3 C 16,1 km/h (3 Bft) 100,00 %
07.06.2016 17:59 23,8 C 47 % 1018,3 hPa 0,0 l/m 10,9 km/h (2 Bft) O-NO 59 1 min 0,000 mm 1,2 UV-I 408 W/m 11,8 C 22,6 C 14,5 km/h (3 Bft) 100,00 %
07.06.2016 18:00 23,8 C 47 % 1018,3 hPa 0,0 l/m 8,6 km/h (2 Bft) O-NO 68 1 min 0,000 mm 1,1 UV-I 405 W/m 11,8 C 23,2 C 11,3 km/h (2 Bft) 100,00 %
07.06.2016 18:01 23,8 C 48 % 1018,3 hPa 0,0 l/m 5,9 km/h (2 Bft) O-NO 65 1 min 0,381 mm 1,1 UV-I 403 W/m 12,1 C 23,8 C 9,7 km/h (2 Bft) 95,65 %
07.06.2016 18:02 23,7 C 49 % 1018,3 hPa 0,0 l/m 7,2 km/h (2 Bft) O-NO 57 1 min 0,000 mm 1,1 UV-I 397 W/m 12,3 C 23,5 C 11,3 km/h (2 Bft) 100,00 %
07.06.2016 18:03 23,8 C 48 % 1018,3 hPa 0,0 l/m 9,5 km/h (2 Bft) O-SO 104 1 min 0,000 mm 1,1 UV-I 395 W/m 12,1 C 23,0 C 12,9 km/h (3 Bft) 100,00 %
07.06.2016 18:04 23,7 C 48 % 1018,3 hPa 0,0 l/m 9,3 km/h (2 Bft) O 83 1 min 0,000 mm 1,1 UV-I 391 W/m 12,0 C 22,9 C 12,9 km/h (3 Bft) 95,83 %
07.06.2016 18:05 23,7 C 49 % 1018,2 hPa 0,0 l/m 6,2 km/h (2 Bft) NO 55 1 min 0,000 mm 1,1 UV-I 388 W/m 12,3 C 23,7 C 9,7 km/h (2 Bft) 100,00 %
07.06.2016 18:06 23,8 C 51 % 1018,3 hPa 0,0 l/m 7,3 km/h (2 Bft) O 80 1 min 0,000 mm 1,0 UV-I 384 W/m 13,0 C 23,5 C 9,7 km/h (2 Bft) 91,67 %
07.06.2016 18:07 23,8 C 50 % 1018,3 hPa 0,0 l/m 8,0 km/h (2 Bft) NO 35 1 min 0,000 mm 1,0 UV-I 381 W/m 12,7 C 23,3 C 11,3 km/h (2 Bft) 100,00 %
07.06.2016 18:08 23,8 C 50 % 1018,3 hPa 0,0 l/m 6,3 km/h (2 Bft) NO 44 1 min 0,000 mm 1,0 UV-I 380 W/m 12,7 C 23,8 C 9,7 km/h (2 Bft) 95,83 %
07.06.2016 18:09 23,8 C 52 % 1018,3 hPa 0,0 l/m 6,6 km/h (2 Bft) O-NO 73 1 min 0,000 mm 1,0 UV-I 377 W/m 13,3 C 23,7 C 11,3 km/h (2 Bft) 95,65 %
07.06.2016 18:10 23,8 C 49 % 1018,3 hPa 0,0 l/m 7,4 km/h (2 Bft) O 80 1 min 0,000 mm 1,0 UV-I 373 W/m 12,4 C 23,5 C 11,3 km/h (2 Bft) 100,00 %
07.06.2016 18:11 23,8 C 51 % 1018,3 hPa 0,0 l/m 9,5 km/h (2 Bft) O-NO 67 1 min 0,000 mm 0,9 UV-I 373 W/m 13,0 C 23,0 C 12,9 km/h (3 Bft) 95,65 %
07.06.2016 18:12 23,7 C 51 % 1018,3 hPa 0,0 l/m 7,0 km/h (2 Bft) O-NO 57 1 min 0,000 mm 0,9 UV-I 372 W/m 13,0 C 23,5 C 11,3 km/h (2 Bft) 100,00 %
07.06.2016 18:13 23,8 C 54 % 1018,2 hPa 0,0 l/m 7,3 km/h (2 Bft) NO 42 1 min 0,000 mm 0,9 UV-I 369 W/m 13,9 C 23,5 C 9,7 km/h (2 Bft) 95,83 %
07.06.2016 18:14 23,8 C 51 % 1018,2 hPa 0,0 l/m 6,2 km/h (2 Bft) O 101 1 min 0,000 mm 0,9 UV-I 365 W/m 13,0 C 23,8 C 9,7 km/h (2 Bft) 100,00 %
07.06.2016 18:15 23,8 C 49 % 1018,3 hPa 0,0 l/m 5,2 km/h (1 Bft) O 89 1 min 0,000 mm 0,9 UV-I 361 W/m 12,4 C 23,8 C 6,4 km/h (2 Bft) 95,83 %
07.06.2016 18:16 23,7 C 50 % 1018,3 hPa 0,0 l/m 6,3 km/h (2 Bft) O-NO 65 1 min 0,000 mm 0,9 UV-I 360 W/m 12,6 C 23,7 C 9,7 km/h (2 Bft) 100,00 %
07.06.2016 18:17 23,8 C 50 % 1018,2 hPa 0,0 l/m 7,8 km/h (2 Bft) O-NO 71 1 min 0,000 mm 0,9 UV-I 357 W/m 12,7 C 23,4 C 11,3 km/h (2 Bft) 95,83 %
07.06.2016 18:18 23,8 C 48 % 1018,3 hPa 0,0 l/m 8,7 km/h (2 Bft) NO 50 1 min 0,000 mm 0,8 UV-I 353 W/m 12,1 C 23,2 C 12,9 km/h (3 Bft) 100,00 %
07.06.2016 18:19 23,7 C 49 % 1018,2 hPa 0,0 l/m 6,4 km/h (2 Bft) NO 47 1 min 0,000 mm 0,8 UV-I 348 W/m 12,3 C 23,7 C 11,3 km/h (2 Bft) 97,37 %
07.06.2016 18:20 23,8 C 49 % 1018,3 hPa 0,0 l/m 6,1 km/h (2 Bft) NO 55 1 min 0,000 mm 0,8 UV-I 346 W/m 12,4 C 23,8 C 9,7 km/h (2 Bft) 96,15 %
07.06.2016 18:21 23,7 C 49 % 1018,3 hPa 0,0 l/m 8,9 km/h (2 Bft) NO 44 1 min 0,000 mm 0,8 UV-I 344 W/m 12,3 C 23,0 C 11,3 km/h (2 Bft) 100,00 %
07.06.2016 18:22 23,7 C 49 % 1018,2 hPa 0,0 l/m 10,1 km/h (2 Bft) NO 50 1 min 0,000 mm 0,8 UV-I 341 W/m 12,3 C 22,7 C 14,5 km/h (3 Bft) 95,65 %
07.06.2016 18:23 23,6 C 49 % 1018,2 hPa 0,0 l/m 12,0 km/h (2 Bft) O-NO 59 1 min 0,000 mm 0,8 UV-I 337 W/m 12,2 C 22,2 C 16,1 km/h (3 Bft) 100,00 %
07.06.2016 18:24 23,6 C 49 % 1018,2 hPa 0,0 l/m 8,9 km/h (2 Bft) O 93 1 min 0,000 mm 0,8 UV-I 334 W/m 12,2 C 22,9 C 14,5 km/h (3 Bft) 95,65 %
07.06.2016 18:25 23,6 C 49 % 1018,2 hPa 0,0 l/m 6,4 km/h (2 Bft) O 82 1 min 0,000 mm 0,8 UV-I 330 W/m 12,2 C 23,6 C 9,7 km/h (2 Bft) 100,00 %
07.06.2016 18:26 23,5 C 51 % 1018,2 hPa 0,0 l/m 8,0 km/h (2 Bft) O-NO 60 1 min 0,000 mm 0,8 UV-I 326 W/m 12,8 C 23,0 C 12,9 km/h (3 Bft) 95,65 %
07.06.2016 18:27 23,5 C 50 % 1018,2 hPa 0,0 l/m 9,4 km/h (2 Bft) NO 53 1 min 0,000 mm 0,8 UV-I 323 W/m 12,5 C 22,7 C 12,9 km/h (3 Bft) 95,83 %
07.06.2016 18:28 23,4 C 48 % 1018,1 hPa 0,0 l/m 8,0 km/h (2 Bft) O-NO 74 1 min 0,000 mm 0,8 UV-I 314 W/m 11,8 C 22,9 C 11,3 km/h (2 Bft) 95,65 %
07.06.2016 18:29 23,4 C 49 % 1018,2 hPa 0,0 l/m 6,4 km/h (2 Bft) O-NO 65 1 min 0,000 mm 0,7 UV-I 312 W/m 12,1 C 23,4 C 8,0 km/h (2 Bft) 95,83 %
07.06.2016 18:30 23,4 C 52 % 1018,2 hPa 0,0 l/m 6,7 km/h (2 Bft) NO 53 1 min 0,000 mm 0,7 UV-I 306 W/m 13,0 C 23,3 C 9,7 km/h (2 Bft) 100,00 %
07.06.2016 18:31 23,4 C 50 % 1018,2 hPa 0,0 l/m 7,6 km/h (2 Bft) O-NO 71 1 min 0,000 mm 0,7 UV-I 302 W/m 12,4 C 23,0 C 12,9 km/h (3 Bft) 92,86 %
07.06.2016 18:32 23,4 C 48 % 1018,2 hPa 0,0 l/m 7,6 km/h (2 Bft) NO 49 1 min 0,000 mm 0,7 UV-I 306 W/m 11,8 C 23,0 C 9,7 km/h (2 Bft) 100,00 %
07.06.2016 18:33 23,4 C 51 % 1018,1 hPa 0,0 l/m 5,0 km/h (1 Bft) O-NO 59 1 min 0,000 mm 0,7 UV-I 306 W/m 12,7 C 23,4 C 6,4 km/h (2 Bft) 95,65 %
07.06.2016 18:34 23,4 C 50 % 1018,2 hPa 0,0 l/m 7,1 km/h (2 Bft) O-NO 65 1 min 0,000 mm 0,7 UV-I 306 W/m 12,4 C 23,2 C 9,7 km/h (2 Bft) 100,00 %
07.06.2016 18:35 23,4 C 50 % 1018,1 hPa 0,0 l/m 5,9 km/h (2 Bft) O-NO 59 1 min 0,000 mm 0,7 UV-I 304 W/m 12,4 C 23,4 C 8,0 km/h (2 Bft) 95,65 %
07.06.2016 18:36 23,4 C 51 % 1018,2 hPa 0,0 l/m 4,9 km/h (1 Bft) O-NO 69 1 min 0,000 mm 0,7 UV-I 300 W/m 12,7 C 23,4 C 6,4 km/h (2 Bft) 100,00 %
07.06.2016 18:37 23,4 C 50 % 1018,2 hPa 0,0 l/m 6,8 km/h (2 Bft) NO 53 1 min 0,000 mm 0,7 UV-I 292 W/m 12,4 C 23,3 C 11,3 km/h (2 Bft) 95,65 %
07.06.2016 18:38 23,4 C 50 % 1018,2 hPa 0,0 l/m 6,6 km/h (2 Bft) NO 56 1 min 0,000 mm 0,7 UV-I 292 W/m 12,4 C 23,3 C 9,7 km/h (2 Bft) 100,00 %
07.06.2016 18:39 23,4 C 49 % 1018,2 hPa 0,0 l/m 5,9 km/h (2 Bft) O-NO 74 1 min 0,000 mm 0,7 UV-I 291 W/m 12,1 C 23,4 C 8,0 km/h (2 Bft) 100,00 %
07.06.2016 18:40 23,4 C 49 % 1018,2 hPa 0,0 l/m 7,0 km/h (2 Bft) NO 51 1 min 0,000 mm 0,6 UV-I 289 W/m 12,1 C 23,2 C 9,7 km/h (2 Bft) 95,83 %
07.06.2016 18:41 23,4 C 51 % 1018,2 hPa 0,0 l/m 7,3 km/h (2 Bft) O-NO 59 1 min 0,000 mm 0,6 UV-I 287 W/m 12,7 C 23,1 C 9,7 km/h (2 Bft) 100,00 %
07.06.2016 18:42 23,3 C 51 % 1018,1 hPa 0,0 l/m 5,5 km/h (1 Bft) O-NO 72 1 min 0,000 mm 0,6 UV-I 285 W/m 12,6 C 23,3 C 8,0 km/h (2 Bft) 95,65 %
07.06.2016 18:43 23,3 C 52 % 1018,2 hPa 0,0 l/m 6,6 km/h (2 Bft) O-NO 65 1 min 0,000 mm 0,6 UV-I 279 W/m 12,9 C 23,2 C 12,9 km/h (3 Bft) 100,00 %
07.06.2016 18:44 23,3 C 52 % 1018,1 hPa 0,0 l/m 5,8 km/h (2 Bft) NO 47 1 min 0,000 mm 0,6 UV-I 277 W/m 12,9 C 23,3 C 9,7 km/h (2 Bft) 100,00 %
07.06.2016 18:45 23,3 C 53 % 1018,1 hPa 0,0 l/m 5,8 km/h (2 Bft) O-NO 65 1 min 0,000 mm 0,6 UV-I 273 W/m 13,2 C 23,3 C 9,7 km/h (2 Bft) 100,00 %
07.06.2016 18:46 23,3 C 52 % 1018,1 hPa 0,0 l/m 7,3 km/h (2 Bft) NO 55 1 min 0,000 mm 0,6 UV-I 270 W/m 12,9 C 23,0 C 9,7 km/h (2 Bft) 100,00 %
07.06.2016 18:47 23,3 C 51 % 1018,1 hPa 0,0 l/m 8,6 km/h (2 Bft) NO 55 1 min 0,000 mm 0,6 UV-I 268 W/m 12,6 C 22,6 C 14,5 km/h (3 Bft) 100,00 %
07.06.2016 18:48 23,3 C 50 % 1018,1 hPa 0,0 l/m 8,6 km/h (2 Bft) O-NO 63 1 min 0,000 mm 0,5 UV-I 265 W/m 12,3 C 22,6 C 12,9 km/h (3 Bft) 100,00 %
07.06.2016 18:49 23,3 C 50 % 1018,1 hPa 0,0 l/m 13,0 km/h (3 Bft) O 82 1 min 0,000 mm 0,5 UV-I 263 W/m 12,3 C 21,6 C 16,1 km/h (3 Bft) 100,00 %
07.06.2016 18:50 23,2 C 50 % 1018,0 hPa 0,0 l/m 11,3 km/h (2 Bft) O-NO 74 1 min 0,000 mm 0,5 UV-I 259 W/m 12,2 C 21,9 C 14,5 km/h (3 Bft) 100,00 %
07.06.2016 18:51 23,2 C 51 % 1018,0 hPa 0,0 l/m 10,1 km/h (2 Bft) O 83 1 min 0,000 mm 0,5 UV-I 258 W/m 12,5 C 22,2 C 12,9 km/h (3 Bft) 100,00 %
07.06.2016 18:52 23,2 C 53 % 1018,0 hPa 0,0 l/m 7,4 km/h (2 Bft) NO 47 1 min 0,000 mm 0,5 UV-I 256 W/m 13,1 C 22,9 C 11,3 km/h (2 Bft) 100,00 %
07.06.2016 18:53 23,2 C 54 % 1017,9 hPa 0,0 l/m 7,4 km/h (2 Bft) NO 50 1 min 0,000 mm 0,5 UV-I 252 W/m 13,4 C 22,9 C 11,3 km/h (2 Bft) 100,00 %
07.06.2016 18:54 23,2 C 55 % 1018,0 hPa 0,0 l/m 7,8 km/h (2 Bft) O-NO 65 1 min 0,000 mm 0,5 UV-I 250 W/m 13,6 C 22,8 C 12,9 km/h (3 Bft) 91,30 %
07.06.2016 18:55 23,1 C 55 % 1018,0 hPa 0,0 l/m 9,7 km/h (2 Bft) O-NO 73 1 min 0,000 mm 0,5 UV-I 244 W/m 13,6 C 22,1 C 12,9 km/h (3 Bft) 100,00 %
07.06.2016 18:56 23,1 C 53 % 1018,0 hPa 0,0 l/m 10,5 km/h (2 Bft) O-NO 64 1 min 0,000 mm 0,5 UV-I 242 W/m 13,0 C 21,9 C 14,5 km/h (3 Bft) 100,00 %
07.06.2016 18:57 23,0 C 52 % 1018,1 hPa 0,0 l/m 10,1 km/h (2 Bft) O-NO 57 1 min 0,000 mm 0,5 UV-I 241 W/m 12,6 C 21,9 C 12,9 km/h (3 Bft) 100,00 %
07.06.2016 18:58 22,9 C 52 % 1018,0 hPa 0,0 l/m 8,5 km/h (2 Bft) O-NO 67 1 min 0,000 mm 0,5 UV-I 237 W/m 12,5 C 22,2 C 11,3 km/h (2 Bft) 100,00 %
07.06.2016 18:59 22,9 C 52 % 1018,1 hPa 0,0 l/m 9,4 km/h (2 Bft) O-NO 73 1 min 0,000 mm 0,2 UV-I 235 W/m 12,5 C 22,0 C 14,5 km/h (3 Bft) 100,00 %
07.06.2016 19:00 22,9 C 51 % 1018,0 hPa 0,0 l/m 9,8 km/h (2 Bft) O 92 1 min 0,254 mm 0,0 UV-I 230 W/m 12,2 C 21,9 C 14,5 km/h (3 Bft) 95,65 %
07.06.2016 19:01 22,9 C 52 % 1018,0 hPa 0,0 l/m 8,3 km/h (2 Bft) O-NO 67 1 min 0,000 mm 0,0 UV-I 228 W/m 12,5 C 22,3 C 11,3 km/h (2 Bft) 100,00 %
07.06.2016 19:02 22,9 C 52 % 1018,1 hPa 0,0 l/m 8,4 km/h (2 Bft) O 79 1 min 0,000 mm 0,0 UV-I 225 W/m 12,5 C 22,3 C 11,3 km/h (2 Bft) 96,15 %
07.06.2016 19:03 22,9 C 53 % 1018,1 hPa 0,0 l/m 6,5 km/h (2 Bft) O-NO 65 1 min 0,000 mm 0,0 UV-I 223 W/m 12,8 C 22,9 C 8,0 km/h (2 Bft) 100,00 %
07.06.2016 19:04 22,9 C 54 % 1018,1 hPa 0,0 l/m 7,5 km/h (2 Bft) O 86 1 min 0,000 mm 0,0 UV-I 218 W/m 13,1 C 22,5 C 9,7 km/h (2 Bft) 100,00 %
07.06.2016 19:05 22,9 C 55 % 1018,1 hPa 0,0 l/m 8,0 km/h (2 Bft) O 94 1 min 0,000 mm 0,0 UV-I 215 W/m 13,4 C 22,4 C 14,5 km/h (3 Bft) 91,67 %
07.06.2016 19:06 22,9 C 55 % 1018,1 hPa 0,0 l/m 8,5 km/h (2 Bft) O-NO 67 1 min 0,000 mm 0,0 UV-I 213 W/m 13,4 C 22,2 C 11,3 km/h (2 Bft) 100,00 %
07.06.2016 19:07 22,8 C 55 % 1018,1 hPa 0,0 l/m 7,1 km/h (2 Bft) O-NO 69 1 min 0,000 mm 0,0 UV-I 209 W/m 13,3 C 22,6 C 9,7 km/h (2 Bft) 100,00 %
07.06.2016 19:08 22,8 C 55 % 1018,1 hPa 0,0 l/m 7,4 km/h (2 Bft) O-NO 69 1 min 0,000 mm 0,0 UV-I 206 W/m 13,3 C 22,5 C 12,9 km/h (3 Bft) 100,00 %
07.06.2016 19:09 22,8 C 55 % 1018,1 hPa 0,0 l/m 6,0 km/h (2 Bft) O-NO 63 1 min 0,000 mm 0,0 UV-I 202 W/m 13,3 C 22,8 C 12,9 km/h (3 Bft) 100,00 %
07.06.2016 19:10 22,8 C 55 % 1018,0 hPa 0,0 l/m 8,1 km/h (2 Bft) NO 42 1 min 0,000 mm 0,0 UV-I 199 W/m 13,3 C 22,3 C 12,9 km/h (3 Bft) 100,00 %
07.06.2016 19:11 22,7 C 56 % 1018,1 hPa 0,0 l/m 8,3 km/h (2 Bft) O-NO 71 1 min 0,000 mm 0,0 UV-I 198 W/m 13,5 C 22,1 C 12,9 km/h (3 Bft) 100,00 %
07.06.2016 19:12 22,7 C 54 % 1018,1 hPa 0,0 l/m 8,2 km/h (2 Bft) O-NO 74 1 min 0,000 mm 0,0 UV-I 193 W/m 12,9 C 22,1 C 9,7 km/h (2 Bft) 100,00 %
07.06.2016 19:13 22,7 C 55 % 1018,1 hPa 0,0 l/m 11,0 km/h (2 Bft) O-NO 74 1 min 0,000 mm 0,0 UV-I 192 W/m 13,2 C 21,4 C 16,1 km/h (3 Bft) 100,00 %
07.06.2016 19:14 22,7 C 54 % 1018,1 hPa 0,0 l/m 7,0 km/h (2 Bft) O 86 1 min 0,000 mm 0,0 UV-I 188 W/m 12,9 C 22,5 C 11,3 km/h (2 Bft) 100,00 %
07.06.2016 19:15 22,6 C 53 % 1018,1 hPa 0,0 l/m 8,4 km/h (2 Bft) O-NO 70 1 min 0,000 mm 0,0 UV-I 186 W/m 12,5 C 22,0 C 11,3 km/h (2 Bft) 100,00 %
07.06.2016 19:16 22,6 C 54 % 1018,1 hPa 0,0 l/m 7,2 km/h (2 Bft) O-NO 62 1 min 0,000 mm 0,0 UV-I 182 W/m 12,8 C 22,3 C 9,7 km/h (2 Bft) 100,00 %
07.06.2016 19:17 22,6 C 55 % 1018,1 hPa 0,0 l/m 7,7 km/h (2 Bft) NO 55 1 min 0,000 mm 0,0 UV-I 179 W/m 13,1 C 22,2 C 9,7 km/h (2 Bft) 100,00 %
07.06.2016 19:18 22,6 C 55 % 1018,1 hPa 0,0 l/m 8,2 km/h (2 Bft) O-NO 64 1 min 0,000 mm 0,0 UV-I 176 W/m 13,1 C 22,0 C 11,3 km/h (2 Bft) 97,22 %
07.06.2016 19:19 22,5 C 56 % 1018,1 hPa 0,0 l/m 6,1 km/h (2 Bft) O-NO 69 1 min 0,000 mm 0,0 UV-I 172 W/m 13,3 C 22,5 C 8,0 km/h (2 Bft) 100,00 %
07.06.2016 19:20 22,4 C 57 % 1018,1 hPa 0,0 l/m 8,9 km/h (2 Bft) O 80 1 min 0,000 mm 0,0 UV-I 170 W/m 13,5 C 21,6 C 14,5 km/h (3 Bft) 100,00 %
07.06.2016 19:21 22,4 C 55 % 1018,0 hPa 0,0 l/m 9,4 km/h (2 Bft) O-NO 59 1 min 0,000 mm 0,0 UV-I 167 W/m 12,9 C 21,5 C 14,5 km/h (3 Bft) 100,00 %
07.06.2016 19:22 22,4 C 55 % 1018,1 hPa 0,0 l/m 8,9 km/h (2 Bft) O 81 1 min 0,000 mm 0,0 UV-I 160 W/m 12,9 C 21,6 C 14,5 km/h (3 Bft) 100,00 %
07.06.2016 19:23 22,4 C 55 % 1018,0 hPa 0,0 l/m 7,7 km/h (2 Bft) NO 50 1 min 0,000 mm 0,0 UV-I 152 W/m 12,9 C 22,0 C 11,3 km/h (2 Bft) 95,83 %
07.06.2016 19:24 22,4 C 53 % 1018,0 hPa 0,0 l/m 7,8 km/h (2 Bft) O-NO 60 1 min 0,000 mm 0,0 UV-I 149 W/m 12,3 C 21,9 C 11,3 km/h (2 Bft) 100,00 %
07.06.2016 19:25 22,4 C 54 % 1018,1 hPa 0,0 l/m 8,4 km/h (2 Bft) O-NO 74 1 min 0,000 mm 0,0 UV-I 154 W/m 12,6 C 21,7 C 11,3 km/h (2 Bft) 100,00 %
07.06.2016 19:26 22,4 C 55 % 1018,0 hPa 0,0 l/m 10,1 km/h (2 Bft) O-NO 76 1 min 0,000 mm 0,0 UV-I 151 W/m 12,9 C 21,3 C 12,9 km/h (3 Bft) 100,00 %
07.06.2016 19:27 22,3 C 54 % 1017,9 hPa 0,0 l/m 9,1 km/h (2 Bft) O 83 1 min 0,000 mm 0,0 UV-I 148 W/m 12,5 C 21,4 C 12,9 km/h (3 Bft) 95,83 %
07.06.2016 19:28 22,3 C 55 % 1018,0 hPa 0,0 l/m 8,7 km/h (2 Bft) O-NO 61 1 min 0,000 mm 0,0 UV-I 145 W/m 12,8 C 21,6 C 12,9 km/h (3 Bft) 100,00 %
07.06.2016 19:29 22,3 C 55 % 1018,0 hPa 0,0 l/m 8,2 km/h (2 Bft) O-NO 66 1 min 0,000 mm 0,0 UV-I 142 W/m 12,8 C 21,7 C 12,9 km/h (3 Bft) 100,00 %
07.06.2016 19:30 22,3 C 55 % 1018,1 hPa 0,0 l/m 8,8 km/h (2 Bft) O-NO 76 1 min 0,000 mm 0,0 UV-I 140 W/m 12,8 C 21,5 C 14,5 km/h (3 Bft) 100,00 %
07.06.2016 19:31 22,3 C 54 % 1018,0 hPa 0,0 l/m 8,9 km/h (2 Bft) O 92 1 min 0,000 mm 0,0 UV-I 136 W/m 12,5 C 21,5 C 12,9 km/h (3 Bft) 95,83 %
07.06.2016 19:32 22,3 C 54 % 1018,1 hPa 0,0 l/m 8,6 km/h (2 Bft) O-NO 65 1 min 0,000 mm 0,0 UV-I 135 W/m 12,5 C 21,6 C 14,5 km/h (3 Bft) 100,00 %
07.06.2016 19:33 22,3 C 56 % 1018,2 hPa 0,0 l/m 8,3 km/h (2 Bft) O-NO 71 1 min 0,000 mm 0,0 UV-I 132 W/m 13,1 C 21,7 C 12,9 km/h (3 Bft) 100,00 %
07.06.2016 19:34 22,3 C 56 % 1018,2 hPa 0,0 l/m 5,8 km/h (2 Bft) O 82 1 min 0,000 mm 0,0 UV-I 130 W/m 13,1 C 22,3 C 8,0 km/h (2 Bft) 95,65 %
07.06.2016 19:35 22,2 C 57 % 1018,1 hPa 0,0 l/m 5,8 km/h (2 Bft) NO 53 1 min 0,000 mm 0,0 UV-I 126 W/m 13,3 C 22,2 C 9,7 km/h (2 Bft) 100,00 %
07.06.2016 19:36 22,2 C 57 % 1018,2 hPa 0,0 l/m 5,4 km/h (1 Bft) O-NO 65 1 min 0,000 mm 0,0 UV-I 122 W/m 13,3 C 22,2 C 6,4 km/h (2 Bft) 100,00 %
07.06.2016 19:37 22,1 C 58 % 1018,2 hPa 0,0 l/m 5,4 km/h (1 Bft) NO 55 1 min 0,000 mm 0,0 UV-I 119 W/m 13,4 C 22,1 C 8,0 km/h (2 Bft) 100,00 %
07.06.2016 19:38 22,0 C 58 % 1018,2 hPa 0,0 l/m 6,9 km/h (2 Bft) NO 49 1 min 0,000 mm 0,0 UV-I 116 W/m 13,3 C 21,8 C 9,7 km/h (2 Bft) 100,00 %
07.06.2016 19:39 21,9 C 57 % 1018,2 hPa 0,0 l/m 8,0 km/h (2 Bft) O-NO 63 1 min 0,000 mm 0,0 UV-I 113 W/m 13,0 C 21,3 C 11,3 km/h (2 Bft) 100,00 %
07.06.2016 19:40 21,9 C 58 % 1018,2 hPa 0,0 l/m 8,6 km/h (2 Bft) O-NO 63 1 min 0,000 mm 0,0 UV-I 112 W/m 13,3 C 21,2 C 11,3 km/h (2 Bft) 95,83 %
07.06.2016 19:41 21,8 C 58 % 1018,2 hPa 0,0 l/m 8,0 km/h (2 Bft) O-NO 63 1 min 0,000 mm 0,0 UV-I 109 W/m 13,2 C 21,2 C 11,3 km/h (2 Bft) 100,00 %
07.06.2016 19:42 21,8 C 57 % 1018,2 hPa 0,0 l/m 7,6 km/h (2 Bft) O-NO 63 1 min 0,000 mm 0,0 UV-I 105 W/m 12,9 C 21,4 C 11,3 km/h (2 Bft) 100,00 %
07.06.2016 19:43 21,8 C 57 % 1018,2 hPa 0,0 l/m 9,6 km/h (2 Bft) NO 51 1 min 0,000 mm 0,0 UV-I 104 W/m 12,9 C 20,7 C 14,5 km/h (3 Bft) 100,00 %
07.06.2016 19:44 21,8 C 57 % 1018,2 hPa 0,0 l/m 7,9 km/h (2 Bft) NO 46 1 min 0,000 mm 0,0 UV-I 101 W/m 12,9 C 21,3 C 12,9 km/h (3 Bft) 100,00 %
07.06.2016 19:45 21,7 C 58 % 1018,2 hPa 0,0 l/m 8,0 km/h (2 Bft) O-NO 74 1 min 0,000 mm 0,0 UV-I 99 W/m 13,1 C 21,1 C 11,3 km/h (2 Bft) 100,00 %
07.06.2016 19:46 21,7 C 58 % 1018,2 hPa 0,0 l/m 6,9 km/h (2 Bft) O-NO 63 1 min 0,000 mm 0,0 UV-I 96 W/m 13,1 C 21,5 C 9,7 km/h (2 Bft) 100,00 %
07.06.2016 19:47 21,7 C 57 % 1018,2 hPa 0,0 l/m 6,7 km/h (2 Bft) NO 51 1 min 0,000 mm 0,0 UV-I 93 W/m 12,8 C 21,6 C 11,3 km/h (2 Bft) 100,00 %
07.06.2016 19:48 21,6 C 57 % 1018,2 hPa 0,0 l/m 6,0 km/h (2 Bft) NO 47 0 min 0,000 mm 0,0 UV-I 91 W/m 12,7 C 21,6 C 9,7 km/h (2 Bft) 100,00 %
07.06.2016 19:49 21,6 C 58 % 1018,2 hPa 0,0 l/m 7,1 km/h (2 Bft) NO 47 0 min 0,000 mm 0,0 UV-I 89 W/m 13,0 C 21,3 C 9,7 km/h (2 Bft) 100,00 %
07.06.2016 19:50 21,5 C 58 % 1018,3 hPa 0,0 l/m 5,6 km/h (1 Bft) O-NO 77 0 min 0,000 mm 0,0 UV-I 84 W/m 12,9 C 21,5 C 6,4 km/h (2 Bft) 100,00 %
07.06.2016 19:51 21,5 C 58 % 1018,2 hPa 0,0 l/m 7,4 km/h (2 Bft) NO 42 0 min 0,000 mm 0,0 UV-I 75 W/m 12,9 C 21,1 C 14,5 km/h (3 Bft) 95,65 %
07.06.2016 19:52 21,4 C 58 % 1018,3 hPa 0,0 l/m 8,6 km/h (2 Bft) O-NO 60 0 min 0,000 mm 0,0 UV-I 75 W/m 12,8 C 20,6 C 12,9 km/h (3 Bft) 100,00 %
07.06.2016 19:53 21,4 C 58 % 1018,2 hPa 0,0 l/m 7,1 km/h (2 Bft) NO 51 0 min 0,000 mm 0,0 UV-I 72 W/m 12,8 C 21,1 C 9,7 km/h (2 Bft) 95,65 %
07.06.2016 19:54 21,4 C 58 % 1018,2 hPa 0,0 l/m 7,2 km/h (2 Bft) O-NO 57 0 min 0,000 mm 0,0 UV-I 69 W/m 12,8 C 21,1 C 9,7 km/h (2 Bft) 100,00 %
07.06.2016 19:55 21,3 C 58 % 1018,2 hPa 0,0 l/m 4,8 km/h (1 Bft) O-NO 68 0 min 0,000 mm 0,0 UV-I 68 W/m 12,7 C 21,3 C 8,0 km/h (2 Bft) 100,00 %
07.06.2016 19:56 21,3 C 58 % 1018,2 hPa 0,0 l/m 6,0 km/h (2 Bft) NO 50 0 min 0,000 mm 0,0 UV-I 69 W/m 12,7 C 21,3 C 9,7 km/h (2 Bft) 100,00 %
07.06.2016 19:57 21,3 C 59 % 1018,3 hPa 0,0 l/m 6,0 km/h (2 Bft) O-NO 78 0 min 0,000 mm 0,0 UV-I 66 W/m 13,0 C 21,3 C 8,0 km/h (2 Bft) 92,00 %
07.06.2016 19:58 21,3 C 59 % 1018,3 hPa 0,0 l/m 6,2 km/h (2 Bft) NO 52 0 min 0,000 mm 0,0 UV-I 61 W/m 13,0 C 21,3 C 8,0 km/h (2 Bft) 100,00 %
07.06.2016 19:59 21,2 C 59 % 1018,2 hPa 0,0 l/m 6,3 km/h (2 Bft) O 80 0 min 0,000 mm 0,0 UV-I 60 W/m 12,9 C 21,2 C 8,0 km/h (2 Bft) 95,65 %
07.06.2016 20:00 21,2 C 59 % 1018,3 hPa 0,0 l/m 6,2 km/h (2 Bft) NO 47 0 min 0,127 mm 0,0 UV-I 58 W/m 12,9 C 21,2 C 8,0 km/h (2 Bft) 100,00 %
07.06.2016 20:01 21,1 C 58 % 1018,2 hPa 0,0 l/m 7,5 km/h (2 Bft) O-NO 74 0 min 0,000 mm 0,0 UV-I 56 W/m 12,5 C 20,7 C 11,3 km/h (2 Bft) 100,00 %
07.06.2016 20:02 21,1 C 58 % 1018,3 hPa 0,0 l/m 7,1 km/h (2 Bft) O-NO 60 0 min 0,000 mm 0,0 UV-I 56 W/m 12,5 C 20,8 C 11,3 km/h (2 Bft) 95,83 %
07.06.2016 20:03 21,1 C 58 % 1018,3 hPa 0,0 l/m 8,7 km/h (2 Bft) O-NO 65 0 min 0,000 mm 0,0 UV-I 53 W/m 12,5 C 20,3 C 14,5 km/h (3 Bft) 95,65 %
07.06.2016 20:04 21,1 C 58 % 1018,3 hPa 0,0 l/m 5,5 km/h (1 Bft) NO 45 0 min 0,000 mm 0,0 UV-I 49 W/m 12,5 C 21,1 C 8,0 km/h (2 Bft) 95,83 %
07.06.2016 20:05 21,0 C 58 % 1018,3 hPa 0,0 l/m 6,4 km/h (2 Bft) O-NO 60 0 min 0,000 mm 0,0 UV-I 47 W/m 12,4 C 21,0 C 8,0 km/h (2 Bft) 100,00 %
07.06.2016 20:06 20,9 C 58 % 1018,3 hPa 0,0 l/m 6,2 km/h (2 Bft) NO 50 0 min 0,000 mm 0,0 UV-I 49 W/m 12,3 C 20,9 C 8,0 km/h (2 Bft) 91,67 %
07.06.2016 20:07 20,9 C 58 % 1018,3 hPa 0,0 l/m 6,1 km/h (2 Bft) O-NO 69 0 min 0,000 mm 0,0 UV-I 48 W/m 12,3 C 20,9 C 8,0 km/h (2 Bft) 100,00 %
07.06.2016 20:08 20,9 C 58 % 1018,3 hPa 0,0 l/m 6,6 km/h (2 Bft) O-NO 71 0 min 0,000 mm 0,0 UV-I 47 W/m 12,3 C 20,8 C 8,0 km/h (2 Bft) 91,30 %
07.06.2016 20:09 20,8 C 59 % 1018,3 hPa 0,0 l/m 5,0 km/h (1 Bft) O-NO 57 0 min 0,000 mm 0,0 UV-I 46 W/m 12,5 C 20,8 C 6,4 km/h (2 Bft) 100,00 %
07.06.2016 20:10 20,8 C 60 % 1018,3 hPa 0,0 l/m 5,4 km/h (1 Bft) O-NO 63 0 min 0,000 mm 0,0 UV-I 44 W/m 12,7 C 20,8 C 8,0 km/h (2 Bft) 95,65 %
07.06.2016 20:11 20,8 C 60 % 1018,3 hPa 0,0 l/m 5,2 km/h (1 Bft) O-NO 57 0 min 0,000 mm 0,0 UV-I 41 W/m 12,7 C 20,8 C 6,4 km/h (2 Bft) 95,83 %
07.06.2016 20:12 20,7 C 60 % 1018,3 hPa 0,0 l/m 5,5 km/h (1 Bft) O-NO 59 0 min 0,000 mm 0,0 UV-I 32 W/m 12,7 C 20,7 C 6,4 km/h (2 Bft) 100,00 %
07.06.2016 20:13 20,6 C 61 % 1018,2 hPa 0,0 l/m 4,9 km/h (1 Bft) NO 44 0 min 0,000 mm 0,0 UV-I 30 W/m 12,8 C 20,6 C 8,0 km/h (2 Bft) 95,83 %
07.06.2016 20:14 20,6 C 62 % 1018,3 hPa 0,0 l/m 6,2 km/h (2 Bft) NO 35 0 min 0,000 mm 0,0 UV-I 29 W/m 13,1 C 20,6 C 8,0 km/h (2 Bft) 95,65 %
07.06.2016 20:15 20,4 C 62 % 1018,2 hPa 0,0 l/m 5,8 km/h (2 Bft) NO 54 0 min 0,000 mm 0,0 UV-I 26 W/m 12,9 C 20,4 C 8,0 km/h (2 Bft) 95,83 %
07.06.2016 20:16 20,3 C 62 % 1018,3 hPa 0,0 l/m 6,0 km/h (2 Bft) NO 55 0 min 0,000 mm 0,0 UV-I 23 W/m 12,8 C 20,3 C 6,4 km/h (2 Bft) 100,00 %
07.06.2016 20:17 20,3 C 61 % 1018,3 hPa 0,0 l/m 6,4 km/h (2 Bft) O-NO 63 0 min 0,000 mm 0,0 UV-I 25 W/m 12,5 C 20,3 C 9,7 km/h (2 Bft) 91,67 %
07.06.2016 20:18 20,2 C 62 % 1018,3 hPa 0,0 l/m 7,6 km/h (2 Bft) NO 46 0 min 0,000 mm 0,0 UV-I 25 W/m 12,7 C 19,7 C 9,7 km/h (2 Bft) 100,00 %
07.06.2016 20:19 20,2 C 63 % 1018,3 hPa 0,0 l/m 6,4 km/h (2 Bft) O-NO 70 0 min 0,000 mm 0,0 UV-I 26 W/m 12,9 C 20,2 C 8,0 km/h (2 Bft) 95,83 %
07.06.2016 20:20 20,2 C 62 % 1018,2 hPa 0,0 l/m 7,0 km/h (2 Bft) O-NO 77 0 min 0,000 mm 0,0 UV-I 24 W/m 12,7 C 20,0 C 12,9 km/h (3 Bft) 100,00 %
07.06.2016 20:21 20,1 C 63 % 1018,3 hPa 0,0 l/m 5,0 km/h (1 Bft) O-NO 76 0 min 0,000 mm 0,0 UV-I 22 W/m 12,8 C 20,1 C 6,4 km/h (2 Bft) 95,65 %
07.06.2016 20:22 20,1 C 63 % 1018,3 hPa 0,0 l/m 7,3 km/h (2 Bft) O 80 0 min 0,000 mm 0,0 UV-I 21 W/m 12,8 C 19,7 C 11,3 km/h (2 Bft) 95,83 %
07.06.2016 20:23 20,0 C 62 % 1018,3 hPa 0,0 l/m 7,1 km/h (2 Bft) NO 49 0 min 0,000 mm 0,0 UV-I 19 W/m 12,5 C 19,7 C 11,3 km/h (2 Bft) 95,65 %
07.06.2016 20:24 19,9 C 61 % 1018,3 hPa 0,0 l/m 7,1 km/h (2 Bft) O-NO 67 0 min 0,000 mm 0,0 UV-I 19 W/m 12,2 C 19,6 C 11,3 km/h (2 Bft) 95,83 %
07.06.2016 20:25 19,9 C 61 % 1018,3 hPa 0,0 l/m 7,3 km/h (2 Bft) NO 47 0 min 0,000 mm 0,0 UV-I 19 W/m 12,2 C 19,5 C 9,7 km/h (2 Bft) 91,30 %
07.06.2016 20:26 19,9 C 61 % 1018,3 hPa 0,0 l/m 7,8 km/h (2 Bft) O-NO 59 0 min 0,000 mm 0,0 UV-I 18 W/m 12,2 C 19,3 C 11,3 km/h (2 Bft) 91,67 %
07.06.2016 20:27 19,9 C 61 % 1018,3 hPa 0,0 l/m 5,7 km/h (1 Bft) O-NO 57 0 min 0,000 mm 0,0 UV-I 18 W/m 12,2 C 19,9 C 6,4 km/h (2 Bft) 100,00 %
07.06.2016 20:28 19,9 C 62 % 1018,3 hPa 0,0 l/m 6,8 km/h (2 Bft) O-NO 61 0 min 0,000 mm 0,0 UV-I 16 W/m 12,4 C 19,7 C 8,0 km/h (2 Bft) 95,83 %
07.06.2016 20:29 19,8 C 62 % 1018,2 hPa 0,0 l/m 6,0 km/h (2 Bft) O-NO 58 0 min 0,000 mm 0,0 UV-I 16 W/m 12,3 C 19,8 C 6,4 km/h (2 Bft) 95,65 %
07.06.2016 20:30 19,8 C 62 % 1018,3 hPa 0,0 l/m 5,7 km/h (1 Bft) NO 42 0 min 0,000 mm 0,0 UV-I 16 W/m 12,3 C 19,8 C 6,4 km/h (2 Bft) 100,00 %
07.06.2016 20:31 19,7 C 63 % 1018,3 hPa 0,0 l/m 5,9 km/h (2 Bft) NO 54 0 min 0,000 mm 0,0 UV-I 16 W/m 12,5 C 19,7 C 8,0 km/h (2 Bft) 95,65 %
07.06.2016 20:32 19,6 C 64 % 1018,3 hPa 0,0 l/m 5,3 km/h (1 Bft) NO 51 0 min 0,000 mm 0,0 UV-I 15 W/m 12,6 C 19,6 C 8,0 km/h (2 Bft) 100,00 %
07.06.2016 20:33 19,6 C 64 % 1018,3 hPa 0,0 l/m 4,3 km/h (1 Bft) NO 55 0 min 0,000 mm 0,0 UV-I 14 W/m 12,6 C 19,6 C 6,4 km/h (2 Bft) 96,15 %
07.06.2016 20:34 19,4 C 65 % 1018,3 hPa 0,0 l/m 5,6 km/h (1 Bft) NO 44 0 min 0,000 mm 0,0 UV-I 14 W/m 12,6 C 19,4 C 6,4 km/h (2 Bft) 100,00 %
07.06.2016 20:35 19,4 C 65 % 1018,3 hPa 0,0 l/m 5,3 km/h (1 Bft) NO 47 0 min 0,000 mm 0,0 UV-I 14 W/m 12,6 C 19,4 C 6,4 km/h (2 Bft) 100,00 %
07.06.2016 20:36 19,3 C 65 % 1018,3 hPa 0,0 l/m 6,2 km/h (2 Bft) NO 39 0 min 0,000 mm 0,0 UV-I 14 W/m 12,6 C 19,3 C 8,0 km/h (2 Bft) 100,00 %
07.06.2016 20:37 19,2 C 66 % 1018,3 hPa 0,0 l/m 4,1 km/h (1 Bft) NO 54 0 min 0,000 mm 0,0 UV-I 14 W/m 12,7 C 19,2 C 6,4 km/h (2 Bft) 100,00 %
07.06.2016 20:38 19,1 C 66 % 1018,3 hPa 0,0 l/m 4,2 km/h (1 Bft) O-NO 71 0 min 0,000 mm 0,0 UV-I 14 W/m 12,6 C 19,1 C 8,0 km/h (2 Bft) 100,00 %
07.06.2016 20:39 19,1 C 66 % 1018,3 hPa 0,0 l/m 4,4 km/h (1 Bft) O-NO 67 0 min 0,000 mm 0,0 UV-I 14 W/m 12,6 C 19,1 C 6,4 km/h (2 Bft) 96,30 %
07.06.2016 20:40 19,1 C 66 % 1018,3 hPa 0,0 l/m 5,0 km/h (1 Bft) O-NO 63 0 min 0,000 mm 0,0 UV-I 14 W/m 12,6 C 19,1 C 6,4 km/h (2 Bft) 95,65 %
07.06.2016 20:41 19,1 C 67 % 1018,3 hPa 0,0 l/m 5,0 km/h (1 Bft) NO 49 0 min 0,000 mm 0,0 UV-I 14 W/m 12,8 C 19,1 C 6,4 km/h (2 Bft) 100,00 %
07.06.2016 20:42 19,0 C 67 % 1018,3 hPa 0,0 l/m 3,5 km/h (1 Bft) NO 49 0 min 0,000 mm 0,0 UV-I 14 W/m 12,7 C 19,0 C 4,8 km/h (1 Bft) 100,00 %
07.06.2016 20:43 19,0 C 67 % 1018,3 hPa 0,0 l/m 3,8 km/h (1 Bft) O-NO 57 0 min 0,000 mm 0,0 UV-I 14 W/m 12,7 C 19,0 C 4,8 km/h (1 Bft) 100,00 %
07.06.2016 20:44 18,9 C 67 % 1018,3 hPa 0,0 l/m 3,0 km/h (1 Bft) O-NO 57 0 min 0,000 mm 0,0 UV-I 13 W/m 12,6 C 18,9 C 4,8 km/h (1 Bft) 95,65 %
07.06.2016 20:45 18,9 C 67 % 1018,3 hPa 0,0 l/m 3,6 km/h (1 Bft) O-NO 57 0 min 0,000 mm 0,0 UV-I 12 W/m 12,6 C 18,9 C 4,8 km/h (1 Bft) 100,00 %
07.06.2016 20:46 18,8 C 67 % 1018,3 hPa 0,0 l/m 3,4 km/h (1 Bft) O-NO 57 1 min 0,000 mm 0,0 UV-I 12 W/m 12,5 C 18,8 C 4,8 km/h (1 Bft) 100,00 %
07.06.2016 20:47 18,8 C 67 % 1018,3 hPa 0,0 l/m 4,4 km/h (1 Bft) NO 56 1 min 0,000 mm 0,0 UV-I 12 W/m 12,5 C 18,8 C 6,4 km/h (2 Bft) 95,83 %
07.06.2016 20:48 18,8 C 68 % 1018,3 hPa 0,0 l/m 5,2 km/h (1 Bft) NO 43 1 min 0,000 mm 0,0 UV-I 12 W/m 12,8 C 18,8 C 6,4 km/h (2 Bft) 100,00 %
07.06.2016 20:49 18,7 C 67 % 1018,3 hPa 0,0 l/m 4,8 km/h (1 Bft) NO 41 0 min 0,000 mm 0,0 UV-I 11 W/m 12,4 C 18,7 C 6,4 km/h (2 Bft) 100,00 %
07.06.2016 20:50 18,7 C 67 % 1018,3 hPa 0,0 l/m 4,3 km/h (1 Bft) O-NO 61 0 min 0,000 mm 0,0 UV-I 11 W/m 12,4 C 18,7 C 6,4 km/h (2 Bft) 92,31 %
07.06.2016 20:51 18,7 C 67 % 1018,3 hPa 0,0 l/m 4,9 km/h (1 Bft) O-NO 58 0 min 0,000 mm 0,0 UV-I 11 W/m 12,4 C 18,7 C 8,0 km/h (2 Bft) 100,00 %
07.06.2016 20:52 18,6 C 68 % 1018,3 hPa 0,0 l/m 4,8 km/h (1 Bft) O-NO 61 0 min 0,000 mm 0,0 UV-I 9 W/m 12,6 C 18,6 C 6,4 km/h (2 Bft) 95,65 %
07.06.2016 20:53 18,6 C 67 % 1018,3 hPa 0,0 l/m 4,2 km/h (1 Bft) NO 54 0 min 0,000 mm 0,0 UV-I 9 W/m 12,3 C 18,6 C 6,4 km/h (2 Bft) 100,00 %
07.06.2016 20:54 18,5 C 68 % 1018,2 hPa 0,0 l/m 3,4 km/h (1 Bft) O-NO 57 0 min 0,000 mm 0,0 UV-I 9 W/m 12,5 C 18,5 C 4,8 km/h (1 Bft) 100,00 %
07.06.2016 20:55 18,4 C 68 % 1018,3 hPa 0,0 l/m 4,7 km/h (1 Bft) NO 49 0 min 0,000 mm 0,0 UV-I 8 W/m 12,4 C 18,4 C 6,4 km/h (2 Bft) 100,00 %
07.06.2016 20:56 18,4 C 68 % 1018,3 hPa 0,0 l/m 3,7 km/h (1 Bft) O-NO 64 0 min 0,000 mm 0,0 UV-I 7 W/m 12,4 C 18,4 C 4,8 km/h (1 Bft) 100,00 %
07.06.2016 20:57 18,4 C 68 % 1018,3 hPa 0,0 l/m 3,5 km/h (1 Bft) O-NO 61 0 min 0,000 mm 0,0 UV-I 7 W/m 12,4 C 18,4 C 4,8 km/h (1 Bft) 100,00 %
07.06.2016 20:58 18,3 C 68 % 1018,3 hPa 0,0 l/m 3,6 km/h (1 Bft) O-NO 60 0 min 0,000 mm 0,0 UV-I 7 W/m 12,3 C 18,3 C 4,8 km/h (1 Bft) 100,00 %
07.06.2016 20:59 18,3 C 68 % 1018,3 hPa 0,0 l/m 3,5 km/h (1 Bft) O-NO 61 0 min 0,000 mm 0,0 UV-I 5 W/m 12,3 C 18,3 C 6,4 km/h (2 Bft) 100,00 %
07.06.2016 21:00 18,3 C 68 % 1018,3 hPa 0,0 l/m 4,0 km/h (1 Bft) NO 36 0 min 0,000 mm 0,0 UV-I 5 W/m 12,3 C 18,3 C 6,4 km/h (2 Bft) 95,83 %
07.06.2016 21:01 18,2 C 68 % 1018,3 hPa 0,0 l/m 4,1 km/h (1 Bft) NO 40 0 min 0,051 mm 0,0 UV-I 5 W/m 12,2 C 18,2 C 6,4 km/h (2 Bft) 100,00 %
07.06.2016 21:02 18,2 C 67 % 1018,3 hPa 0,0 l/m 4,0 km/h (1 Bft) NO 46 0 min 0,000 mm 0,0 UV-I 5 W/m 12,0 C 18,2 C 6,4 km/h (2 Bft) 100,00 %
07.06.2016 21:03 18,2 C 68 % 1018,3 hPa 0,0 l/m 4,6 km/h (1 Bft) NO 52 0 min 0,000 mm 0,0 UV-I 5 W/m 12,2 C 18,2 C 6,4 km/h (2 Bft) 95,65 %
07.06.2016 21:04 18,2 C 67 % 1018,3 hPa 0,0 l/m 5,2 km/h (1 Bft) NO 43 0 min 0,000 mm 0,0 UV-I 4 W/m 12,0 C 18,2 C 6,4 km/h (2 Bft) 100,00 %
07.06.2016 21:05 18,1 C 68 % 1018,3 hPa 0,0 l/m 6,8 km/h (2 Bft) NO 45 0 min 0,000 mm 0,0 UV-I 0 W/m 12,1 C 17,9 C 9,7 km/h (2 Bft) 100,00 %
07.06.2016 21:06 18,1 C 68 % 1018,3 hPa 0,0 l/m 5,7 km/h (1 Bft) NO 52 0 min 0,000 mm 0,0 UV-I 0 W/m 12,1 C 18,1 C 8,0 km/h (2 Bft) 100,00 %
07.06.2016 21:07 18,0 C 67 % 1018,3 hPa 0,0 l/m 4,8 km/h (1 Bft) O-NO 59 0 min 0,000 mm 0,0 UV-I 0 W/m 11,8 C 18,0 C 6,4 km/h (2 Bft) 95,65 %
07.06.2016 21:08 17,9 C 67 % 1018,3 hPa 0,0 l/m 5,2 km/h (1 Bft) NO 48 0 min 0,000 mm 0,0 UV-I 0 W/m 11,7 C 17,9 C 6,4 km/h (2 Bft) 100,00 %
07.06.2016 21:09 17,9 C 67 % 1018,3 hPa 0,0 l/m 4,2 km/h (1 Bft) NO 45 0 min 0,000 mm 0,0 UV-I 0 W/m 11,7 C 17,9 C 6,4 km/h (2 Bft) 95,65 %
07.06.2016 21:10 17,9 C 66 % 1018,3 hPa 0,0 l/m 5,6 km/h (1 Bft) NO 53 0 min 0,000 mm 0,0 UV-I 0 W/m 11,5 C 17,9 C 9,7 km/h (2 Bft) 100,00 %
07.06.2016 21:11 17,9 C 66 % 1018,3 hPa 0,0 l/m 6,1 km/h (2 Bft) NO 54 0 min 0,000 mm 0,0 UV-I 0 W/m 11,5 C 17,9 C 9,7 km/h (2 Bft) 96,15 %
07.06.2016 21:12 17,9 C 67 % 1018,3 hPa 0,0 l/m 4,2 km/h (1 Bft) O-NO 65 0 min 0,000 mm 0,0 UV-I 0 W/m 11,7 C 17,9 C 6,4 km/h (2 Bft) 100,00 %
07.06.2016 21:13 17,9 C 67 % 1018,3 hPa 0,0 l/m 5,9 km/h (2 Bft) O-NO 58 0 min 0,000 mm 0,0 UV-I 0 W/m 11,7 C 17,9 C 11,3 km/h (2 Bft) 95,65 %
07.06.2016 21:14 17,9 C 67 % 1018,3 hPa 0,0 l/m 6,5 km/h (2 Bft) NO 52 0 min 0,000 mm 0,0 UV-I 0 W/m 11,7 C 17,9 C 9,7 km/h (2 Bft) 100,00 %
07.06.2016 21:15 17,8 C 67 % 1018,4 hPa 0,0 l/m 5,3 km/h (1 Bft) O-NO 72 0 min 0,000 mm 0,0 UV-I 0 W/m 11,6 C 17,8 C 9,7 km/h (2 Bft) 100,00 %
07.06.2016 21:16 17,8 C 67 % 1018,4 hPa 0,0 l/m 6,0 km/h (2 Bft) O-NO 71 0 min 0,000 mm 0,0 UV-I 0 W/m 11,6 C 17,8 C 8,0 km/h (2 Bft) 100,00 %
07.06.2016 21:17 17,8 C 67 % 1018,4 hPa 0,0 l/m 5,4 km/h (1 Bft) O-NO 63 0 min 0,000 mm 0,0 UV-I 0 W/m 11,6 C 17,8 C 8,0 km/h (2 Bft) 95,65 %
07.06.2016 21:18 17,9 C 66 % 1018,4 hPa 0,0 l/m 3,4 km/h (1 Bft) O-NO 65 0 min 0,000 mm 0,0 UV-I 0 W/m 11,5 C 17,9 C 6,4 km/h (2 Bft) 100,00 %
07.06.2016 21:19 17,9 C 66 % 1018,4 hPa 0,0 l/m 4,6 km/h (1 Bft) O-NO 69 0 min 0,000 mm 0,0 UV-I 0 W/m 11,5 C 17,9 C 6,4 km/h (2 Bft) 100,00 %
07.06.2016 21:20 17,9 C 66 % 1018,5 hPa 0,0 l/m 4,9 km/h (1 Bft) O-NO 70 0 min 0,000 mm 0,0 UV-I 0 W/m 11,5 C 17,9 C 8,0 km/h (2 Bft) 100,00 %
07.06.2016 21:21 17,9 C 66 % 1018,5 hPa 0,0 l/m 5,3 km/h (1 Bft) O-NO 74 0 min 0,000 mm 0,0 UV-I 0 W/m 11,5 C 17,9 C 6,4 km/h (2 Bft) 100,00 %
07.06.2016 21:22 17,9 C 66 % 1018,5 hPa 0,0 l/m 4,6 km/h (1 Bft) O-NO 63 0 min 0,000 mm 0,0 UV-I 0 W/m 11,5 C 17,9 C 6,4 km/h (2 Bft) 100,00 %
07.06.2016 21:23 17,9 C 66 % 1018,5 hPa 0,0 l/m 4,7 km/h (1 Bft) O-NO 60 0 min 0,000 mm 0,0 UV-I 0 W/m 11,5 C 17,9 C 6,4 km/h (2 Bft) 100,00 %
07.06.2016 21:24 17,9 C 66 % 1018,5 hPa 0,0 l/m 4,1 km/h (1 Bft) NO 55 0 min 0,000 mm 0,0 UV-I 0 W/m 11,5 C 17,9 C 8,0 km/h (2 Bft) 100,00 %
07.06.2016 21:25 17,9 C 66 % 1018,5 hPa 0,0 l/m 4,5 km/h (1 Bft) O-NO 58 0 min 0,000 mm 0,0 UV-I 0 W/m 11,5 C 17,9 C 8,0 km/h (2 Bft) 100,00 %
07.06.2016 21:26 17,9 C 66 % 1018,6 hPa 0,0 l/m 4,5 km/h (1 Bft) O-NO 57 0 min 0,000 mm 0,0 UV-I 0 W/m 11,5 C 17,9 C 6,4 km/h (2 Bft) 100,00 %
07.06.2016 21:27 17,8 C 67 % 1018,6 hPa 0,0 l/m 4,9 km/h (1 Bft) O-NO 57 0 min 0,000 mm 0,0 UV-I 0 W/m 11,6 C 17,8 C 6,4 km/h (2 Bft) 100,00 %
07.06.2016 21:28 17,8 C 67 % 1018,6 hPa 0,0 l/m 3,6 km/h (1 Bft) NO 51 0 min 0,000 mm 0,0 UV-I 0 W/m 11,6 C 17,8 C 4,8 km/h (1 Bft) 100,00 %
07.06.2016 21:29 17,7 C 67 % 1018,6 hPa 0,0 l/m 3,8 km/h (1 Bft) NO 55 0 min 0,000 mm 0,0 UV-I 0 W/m 11,5 C 17,7 C 4,8 km/h (1 Bft) 100,00 %
07.06.2016 21:30 17,7 C 68 % 1018,6 hPa 0,0 l/m 2,8 km/h (1 Bft) NO 55 0 min 0,000 mm 0,0 UV-I 0 W/m 11,7 C 17,7 C 3,2 km/h (1 Bft) 100,00 %
07.06.2016 21:31 17,7 C 68 % 1018,6 hPa 0,0 l/m 3,0 km/h (1 Bft) NO 55 0 min 0,000 mm 0,0 UV-I 0 W/m 11,7 C 17,7 C 4,8 km/h (1 Bft) 100,00 %
07.06.2016 21:32 17,6 C 68 % 1018,6 hPa 0,0 l/m 4,0 km/h (1 Bft) NO 45 0 min 0,000 mm 0,0 UV-I 0 W/m 11,6 C 17,6 C 4,8 km/h (1 Bft) 100,00 %
07.06.2016 21:33 17,6 C 68 % 1018,6 hPa 0,0 l/m 3,2 km/h (1 Bft) NO 45 0 min 0,000 mm 0,0 UV-I 0 W/m 11,6 C 17,6 C 4,8 km/h (1 Bft) 100,00 %
07.06.2016 21:34 17,6 C 68 % 1018,6 hPa 0,0 l/m 3,1 km/h (1 Bft) NO 45 0 min 0,000 mm 0,0 UV-I 0 W/m 11,6 C 17,6 C 4,8 km/h (1 Bft) 100,00 %
07.06.2016 21:35 17,5 C 68 % 1018,6 hPa 0,0 l/m 5,0 km/h (1 Bft) O-NO 62 0 min 0,000 mm 0,0 UV-I 0 W/m 11,5 C 17,5 C 6,4 km/h (2 Bft) 100,00 %
07.06.2016 21:36 17,4 C 68 % 1018,6 hPa 0,0 l/m 2,5 km/h (1 Bft) O-NO 62 0 min 0,000 mm 0,0 UV-I 0 W/m 11,4 C 17,4 C 3,2 km/h (1 Bft) 100,00 %
07.06.2016 21:37 17,4 C 68 % 1018,7 hPa 0,0 l/m 2,9 km/h (1 Bft) O-NO 58 0 min 0,000 mm 0,0 UV-I 0 W/m 11,4 C 17,4 C 4,8 km/h (1 Bft) 100,00 %
07.06.2016 21:38 17,4 C 68 % 1018,7 hPa 0,0 l/m 3,4 km/h (1 Bft) O-NO 58 0 min 0,000 mm 0,0 UV-I 0 W/m 11,4 C 17,4 C 4,8 km/h (1 Bft) 95,83 %
07.06.2016 21:39 17,4 C 68 % 1018,6 hPa 0,0 l/m 2,8 km/h (1 Bft) O-NO 58 0 min 0,000 mm 0,0 UV-I 0 W/m 11,4 C 17,4 C 3,2 km/h (1 Bft) 100,00 %
07.06.2016 21:40 17,4 C 68 % 1018,7 hPa 0,0 l/m 3,7 km/h (1 Bft) O-NO 58 0 min 0,000 mm 0,0 UV-I 0 W/m 11,4 C 17,4 C 4,8 km/h (1 Bft) 100,00 %
07.06.2016 21:41 17,4 C 68 % 1018,7 hPa 0,0 l/m 4,0 km/h (1 Bft) O-NO 76 0 min 0,000 mm 0,0 UV-I 0 W/m 11,4 C 17,4 C 6,4 km/h (2 Bft) 100,00 %
07.06.2016 21:42 17,4 C 68 % 1018,7 hPa 0,0 l/m 3,5 km/h (1 Bft) O-NO 76 0 min 0,000 mm 0,0 UV-I 0 W/m 11,4 C 17,4 C 6,4 km/h (2 Bft) 100,00 %
07.06.2016 21:43 17,4 C 68 % 1018,7 hPa 0,0 l/m 2,0 km/h (1 Bft) O-NO 76 0 min 0,000 mm 0,0 UV-I 0 W/m 11,4 C 17,4 C 3,2 km/h (1 Bft) 100,00 %
07.06.2016 21:44 17,4 C 68 % 1018,7 hPa 0,0 l/m 2,3 km/h (1 Bft) O-NO 76 0 min 0,000 mm 0,0 UV-I 0 W/m 11,4 C 17,4 C 3,2 km/h (1 Bft) 100,00 %
07.06.2016 21:45 17,4 C 68 % 1018,7 hPa 0,0 l/m 1,2 km/h (1 Bft) O-NO 76 0 min 0,000 mm 0,0 UV-I 0 W/m 11,4 C 17,4 C 1,6 km/h (1 Bft) 100,00 %
07.06.2016 21:46 17,4 C 68 % 1018,7 hPa 0,0 l/m 1,7 km/h (1 Bft) O-NO 76 0 min 0,000 mm 0,0 UV-I 0 W/m 11,4 C 17,4 C 3,2 km/h (1 Bft) 100,00 %
07.06.2016 21:47 17,3 C 68 % 1018,7 hPa 0,0 l/m 2,7 km/h (1 Bft) O-NO 76 0 min 0,000 mm 0,0 UV-I 0 W/m 11,3 C 17,3 C 3,2 km/h (1 Bft) 95,65 %
07.06.2016 21:48 17,3 C 68 % 1018,7 hPa 0,0 l/m 1,5 km/h (1 Bft) O-NO 76 0 min 0,000 mm 0,0 UV-I 0 W/m 11,3 C 17,3 C 3,2 km/h (1 Bft) 100,00 %
07.06.2016 21:49 17,3 C 68 % 1018,7 hPa 0,0 l/m 2,1 km/h (1 Bft) O-NO 76 0 min 0,000 mm 0,0 UV-I 0 W/m 11,3 C 17,3 C 3,2 km/h (1 Bft) 95,65 %
07.06.2016 21:50 17,2 C 69 % 1018,8 hPa 0,0 l/m 1,7 km/h (1 Bft) O-NO 76 0 min 0,000 mm 0,0 UV-I 0 W/m 11,5 C 17,2 C 3,2 km/h (1 Bft) 100,00 %
07.06.2016 21:51 17,2 C 68 % 1018,8 hPa 0,0 l/m 1,9 km/h (1 Bft) O-NO 76 0 min 0,000 mm 0,0 UV-I 0 W/m 11,2 C 17,2 C 3,2 km/h (1 Bft) 95,65 %
07.06.2016 21:52 17,2 C 69 % 1018,8 hPa 0,0 l/m 2,1 km/h (1 Bft) O-NO 76 0 min 0,000 mm 0,0 UV-I 0 W/m 11,5 C 17,2 C 3,2 km/h (1 Bft) 100,00 %
07.06.2016 21:53 17,1 C 68 % 1018,8 hPa 0,0 l/m 1,9 km/h (1 Bft) O-NO 76 0 min 0,000 mm 0,0 UV-I 0 W/m 11,1 C 17,1 C 3,2 km/h (1 Bft) 100,00 %
07.06.2016 21:54 17,1 C 68 % 1018,8 hPa 0,0 l/m 1,7 km/h (1 Bft) O-NO 76 0 min 0,000 mm 0,0 UV-I 0 W/m 11,1 C 17,1 C 3,2 km/h (1 Bft) 100,00 %
07.06.2016 21:55 17,1 C 69 % 1018,8 hPa 0,0 l/m 2,5 km/h (1 Bft) O-NO 76 0 min 0,000 mm 0,0 UV-I 0 W/m 11,4 C 17,1 C 3,2 km/h (1 Bft) 95,65 %
07.06.2016 21:56 17,0 C 69 % 1018,8 hPa 0,0 l/m 2,1 km/h (1 Bft) O-NO 76 0 min 0,000 mm 0,0 UV-I 0 W/m 11,3 C 17,0 C 3,2 km/h (1 Bft) 100,00 %
07.06.2016 21:57 17,0 C 69 % 1018,8 hPa 0,0 l/m 2,2 km/h (1 Bft) O-NO 75 0 min 0,000 mm 0,0 UV-I 0 W/m 11,3 C 17,0 C 4,8 km/h (1 Bft) 100,00 %
07.06.2016 21:58 16,9 C 69 % 1018,8 hPa 0,0 l/m 2,6 km/h (1 Bft) O-NO 74 0 min 0,000 mm 0,0 UV-I 0 W/m 11,2 C 16,9 C 4,8 km/h (1 Bft) 100,00 %
07.06.2016 21:59 16,9 C 69 % 1018,8 hPa 0,0 l/m 2,7 km/h (1 Bft) O-NO 73 0 min 0,000 mm 0,0 UV-I 0 W/m 11,2 C 16,9 C 3,2 km/h (1 Bft) 100,00 %
07.06.2016 22:00 16,9 C 69 % 1018,8 hPa 0,0 l/m 4,1 km/h (1 Bft) O-NO 65 0 min 0,000 mm 0,0 UV-I 0 W/m 11,2 C 16,9 C 4,8 km/h (1 Bft) 95,65 %
07.06.2016 22:02 16,9 C 69 % 1018,8 hPa 0,0 l/m 3,4 km/h (1 Bft) NO 53 0 min 0,025 mm 0,0 UV-I 0 W/m 11,2 C 16,9 C 6,4 km/h (2 Bft) 100,00 %
07.06.2016 22:03 16,9 C 69 % 1018,8 hPa 0,0 l/m 3,7 km/h (1 Bft) NO 53 0 min 0,000 mm 0,0 UV-I 0 W/m 11,2 C 16,9 C 4,8 km/h (1 Bft) 95,83 %
07.06.2016 22:04 16,9 C 69 % 1018,8 hPa 0,0 l/m 3,5 km/h (1 Bft) O-NO 60 0 min 0,000 mm 0,0 UV-I 0 W/m 11,2 C 16,9 C 4,8 km/h (1 Bft) 91,30 %
07.06.2016 22:05 16,8 C 69 % 1018,7 hPa 0,0 l/m 3,8 km/h (1 Bft) O-NO 61 0 min 0,000 mm 0,0 UV-I 0 W/m 11,1 C 16,8 C 4,8 km/h (1 Bft) 100,00 %
07.06.2016 22:06 16,8 C 70 % 1018,8 hPa 0,0 l/m 3,2 km/h (1 Bft) O-NO 60 0 min 0,000 mm 0,0 UV-I 0 W/m 11,3 C 16,8 C 4,8 km/h (1 Bft) 91,30 %
07.06.2016 22:07 16,8 C 69 % 1018,8 hPa 0,0 l/m 2,6 km/h (1 Bft) O-NO 60 0 min 0,000 mm 0,0 UV-I 0 W/m 11,1 C 16,8 C 4,8 km/h (1 Bft) 100,00 %
07.06.2016 22:08 16,8 C 69 % 1018,8 hPa 0,0 l/m 3,4 km/h (1 Bft) O-NO 60 0 min 0,000 mm 0,0 UV-I 0 W/m 11,1 C 16,8 C 6,4 km/h (2 Bft) 95,65 %
07.06.2016 22:09 16,8 C 69 % 1018,8 hPa 0,0 l/m 3,3 km/h (1 Bft) O-NO 65 0 min 0,000 mm 0,0 UV-I 0 W/m 11,1 C 16,8 C 4,8 km/h (1 Bft) 100,00 %
07.06.2016 22:10 16,8 C 69 % 1018,8 hPa 0,0 l/m 3,8 km/h (1 Bft) O-NO 71 0 min 0,000 mm 0,0 UV-I 0 W/m 11,1 C 16,8 C 6,4 km/h (2 Bft) 72,73 %
07.06.2016 22:11 16,7 C 69 % 1018,8 hPa 0,0 l/m 2,9 km/h (1 Bft) O-NO 66 0 min 0,000 mm 0,0 UV-I 0 W/m 11,0 C 16,7 C 4,8 km/h (1 Bft) 100,00 %
07.06.2016 22:12 16,7 C 70 % 1018,8 hPa 0,0 l/m 3,0 km/h (1 Bft) O-NO 66 0 min 0,000 mm 0,0 UV-I 0 W/m 11,2 C 16,7 C 4,8 km/h (1 Bft) 91,30 %
07.06.2016 22:13 16,7 C 70 % 1018,8 hPa 0,0 l/m 1,7 km/h (1 Bft) O-NO 66 0 min 0,000 mm 0,0 UV-I 0 W/m 11,2 C 16,7 C 3,2 km/h (1 Bft) 100,00 %
07.06.2016 22:14 16,6 C 70 % 1018,9 hPa 0,0 l/m 1,7 km/h (1 Bft) O-NO 66 0 min 0,000 mm 0,0 UV-I 0 W/m 11,1 C 16,6 C 3,2 km/h (1 Bft) 95,65 %
07.06.2016 22:15 16,6 C 70 % 1018,8 hPa 0,0 l/m 2,1 km/h (1 Bft) O-NO 66 0 min 0,000 mm 0,0 UV-I 0 W/m 11,1 C 16,6 C 3,2 km/h (1 Bft) 91,67 %
07.06.2016 22:16 16,6 C 70 % 1018,8 hPa 0,0 l/m 2,4 km/h (1 Bft) O-NO 66 0 min 0,000 mm 0,0 UV-I 0 W/m 11,1 C 16,6 C 3,2 km/h (1 Bft) 95,83 %
07.06.2016 22:17 16,5 C 71 % 1018,9 hPa 0,0 l/m 1,7 km/h (1 Bft) O-NO 66 0 min 0,000 mm 0,0 UV-I 0 W/m 11,2 C 16,5 C 3,2 km/h (1 Bft) 95,65 %
07.06.2016 22:18 16,5 C 71 % 1018,9 hPa 0,0 l/m 2,9 km/h (1 Bft) O-NO 65 0 min 0,000 mm 0,0 UV-I 0 W/m 11,2 C 16,5 C 4,8 km/h (1 Bft) 100,00 %
07.06.2016 22:19 16,5 C 71 % 1018,9 hPa 0,0 l/m 1,9 km/h (1 Bft) O-NO 65 0 min 0,000 mm 0,0 UV-I 0 W/m 11,2 C 16,5 C 3,2 km/h (1 Bft) 95,65 %
07.06.2016 22:20 16,4 C 71 % 1018,9 hPa 0,0 l/m 1,4 km/h (1 Bft) O-NO 65 0 min 0,000 mm 0,0 UV-I 0 W/m 11,1 C 16,4 C 3,2 km/h (1 Bft) 100,00 %
07.06.2016 22:21 16,4 C 71 % 1018,9 hPa 0,0 l/m 2,7 km/h (1 Bft) O-NO 65 0 min 0,000 mm 0,0 UV-I 0 W/m 11,1 C 16,4 C 3,2 km/h (1 Bft) 91,30 %
07.06.2016 22:22 16,4 C 70 % 1018,9 hPa 0,0 l/m 2,1 km/h (1 Bft) O-NO 65 0 min 0,000 mm 0,0 UV-I 0 W/m 10,9 C 16,4 C 3,2 km/h (1 Bft) 95,83 %
07.06.2016 22:23 16,4 C 70 % 1018,9 hPa 0,0 l/m 1,9 km/h (1 Bft) O-NO 65 0 min 0,000 mm 0,0 UV-I 0 W/m 10,9 C 16,4 C 3,2 km/h (1 Bft) 100,00 %
07.06.2016 22:24 16,4 C 70 % 1018,9 hPa 0,0 l/m 3,0 km/h (1 Bft) O-NO 65 0 min 0,000 mm 0,0 UV-I 0 W/m 10,9 C 16,4 C 4,8 km/h (1 Bft) 95,83 %
07.06.2016 22:25 16,4 C 71 % 1018,9 hPa 0,0 l/m 2,8 km/h (1 Bft) O-NO 65 0 min 0,000 mm 0,0 UV-I 0 W/m 11,1 C 16,4 C 3,2 km/h (1 Bft) 95,65 %
07.06.2016 22:26 16,4 C 70 % 1018,9 hPa 0,0 l/m 3,4 km/h (1 Bft) O-NO 65 0 min 0,000 mm 0,0 UV-I 0 W/m 10,9 C 16,4 C 4,8 km/h (1 Bft) 95,83 %
07.06.2016 22:27 16,3 C 71 % 1018,9 hPa 0,0 l/m 1,4 km/h (1 Bft) O-NO 65 0 min 0,000 mm 0,0 UV-I 0 W/m 11,0 C 16,3 C 3,2 km/h (1 Bft) 100,00 %
07.06.2016 22:28 16,3 C 70 % 1018,9 hPa 0,0 l/m 3,4 km/h (1 Bft) O-NO 65 0 min 0,000 mm 0,0 UV-I 0 W/m 10,8 C 16,3 C 4,8 km/h (1 Bft) 95,83 %
07.06.2016 22:29 16,3 C 70 % 1018,9 hPa 0,0 l/m 3,2 km/h (1 Bft) O-NO 65 0 min 0,000 mm 0,0 UV-I 0 W/m 10,8 C 16,3 C 4,8 km/h (1 Bft) 100,00 %
07.06.2016 22:30 16,3 C 70 % 1018,9 hPa 0,0 l/m 4,0 km/h (1 Bft) O-NO 65 0 min 0,000 mm 0,0 UV-I 0 W/m 10,8 C 16,3 C 4,8 km/h (1 Bft) 95,83 %
07.06.2016 22:31 16,3 C 70 % 1018,9 hPa 0,0 l/m 2,7 km/h (1 Bft) O-NO 65 0 min 0,000 mm 0,0 UV-I 0 W/m 10,8 C 16,3 C 3,2 km/h (1 Bft) 95,65 %
07.06.2016 22:32 16,3 C 70 % 1018,9 hPa 0,0 l/m 3,1 km/h (1 Bft) O-NO 65 0 min 0,000 mm 0,0 UV-I 0 W/m 10,8 C 16,3 C 3,2 km/h (1 Bft) 100,00 %
07.06.2016 22:33 16,3 C 70 % 1018,9 hPa 0,0 l/m 2,9 km/h (1 Bft) O-NO 65 0 min 0,000 mm 0,0 UV-I 0 W/m 10,8 C 16,3 C 4,8 km/h (1 Bft) 91,30 %
07.06.2016 22:34 16,3 C 70 % 1018,9 hPa 0,0 l/m 3,8 km/h (1 Bft) O-NO 65 0 min 0,000 mm 0,0 UV-I 0 W/m 10,8 C 16,3 C 4,8 km/h (1 Bft) 100,00 %
07.06.2016 22:35 16,3 C 69 % 1019,0 hPa 0,0 l/m 4,3 km/h (1 Bft) O-NO 65 0 min 0,000 mm 0,0 UV-I 0 W/m 10,6 C 16,3 C 4,8 km/h (1 Bft) 95,65 %
07.06.2016 22:36 16,3 C 69 % 1019,0 hPa 0,0 l/m 3,7 km/h (1 Bft) O-NO 70 0 min 0,000 mm 0,0 UV-I 0 W/m 10,6 C 16,3 C 6,4 km/h (2 Bft) 100,00 %
07.06.2016 22:37 16,3 C 70 % 1019,0 hPa 0,0 l/m 3,0 km/h (1 Bft) O-NO 70 0 min 0,000 mm 0,0 UV-I 0 W/m 10,8 C 16,3 C 4,8 km/h (1 Bft) 91,30 %
07.06.2016 22:38 16,3 C 70 % 1019,0 hPa 0,0 l/m 3,1 km/h (1 Bft) O-NO 67 0 min 0,000 mm 0,0 UV-I 0 W/m 10,8 C 16,3 C 4,8 km/h (1 Bft) 100,00 %
07.06.2016 22:39 16,3 C 70 % 1019,0 hPa 0,0 l/m 3,1 km/h (1 Bft) O-NO 67 0 min 0,000 mm 0,0 UV-I 0 W/m 10,8 C 16,3 C 4,8 km/h (1 Bft) 100,00 %
07.06.2016 22:40 16,3 C 69 % 1019,0 hPa 0,0 l/m 1,6 km/h (1 Bft) O-NO 67 0 min 0,000 mm 0,0 UV-I 0 W/m 10,6 C 16,3 C 3,2 km/h (1 Bft) 100,00 %
07.06.2016 22:41 16,3 C 69 % 1019,0 hPa 0,0 l/m 2,1 km/h (1 Bft) O-NO 67 0 min 0,000 mm 0,0 UV-I 0 W/m 10,6 C 16,3 C 3,2 km/h (1 Bft) 100,00 %
07.06.2016 22:42 16,3 C 70 % 1019,1 hPa 0,0 l/m 2,4 km/h (1 Bft) O-NO 67 0 min 0,000 mm 0,0 UV-I 0 W/m 10,8 C 16,3 C 3,2 km/h (1 Bft) 95,65 %
07.06.2016 22:43 16,2 C 70 % 1019,1 hPa 0,0 l/m 1,9 km/h (1 Bft) O-NO 67 0 min 0,000 mm 0,0 UV-I 0 W/m 10,7 C 16,2 C 3,2 km/h (1 Bft) 100,00 %
07.06.2016 22:44 16,2 C 70 % 1019,1 hPa 0,0 l/m 2,9 km/h (1 Bft) O-NO 67 0 min 0,000 mm 0,0 UV-I 0 W/m 10,7 C 16,2 C 4,8 km/h (1 Bft) 95,65 %
07.06.2016 22:45 16,2 C 70 % 1019,1 hPa 0,0 l/m 3,3 km/h (1 Bft) O-NO 67 0 min 0,000 mm 0,0 UV-I 0 W/m 10,7 C 16,2 C 4,8 km/h (1 Bft) 100,00 %
07.06.2016 22:46 16,1 C 70 % 1019,1 hPa 0,0 l/m 2,9 km/h (1 Bft) O-NO 66 0 min 0,000 mm 0,0 UV-I 0 W/m 10,6 C 16,1 C 4,8 km/h (1 Bft) 96,15 %
07.06.2016 22:47 16,1 C 71 % 1019,1 hPa 0,0 l/m 2,7 km/h (1 Bft) O-NO 66 0 min 0,000 mm 0,0 UV-I 0 W/m 10,8 C 16,1 C 3,2 km/h (1 Bft) 100,00 %
07.06.2016 22:48 16,1 C 71 % 1019,1 hPa 0,0 l/m 2,8 km/h (1 Bft) O-NO 66 0 min 0,000 mm 0,0 UV-I 0 W/m 10,8 C 16,1 C 3,2 km/h (1 Bft) 100,00 %
07.06.2016 22:49 16,0 C 71 % 1019,1 hPa 0,0 l/m 2,5 km/h (1 Bft) O-NO 66 0 min 0,000 mm 0,0 UV-I 0 W/m 10,7 C 16,0 C 3,2 km/h (1 Bft) 95,83 %
07.06.2016 22:50 16,0 C 71 % 1019,1 hPa 0,0 l/m 1,7 km/h (1 Bft) O-NO 66 0 min 0,000 mm 0,0 UV-I 0 W/m 10,7 C 16,0 C 3,2 km/h (1 Bft) 100,00 %
07.06.2016 22:51 15,9 C 70 % 1019,1 hPa 0,0 l/m 2,3 km/h (1 Bft) O-NO 66 0 min 0,000 mm 0,0 UV-I 0 W/m 10,4 C 15,9 C 3,2 km/h (1 Bft) 100,00 %
07.06.2016 22:52 15,9 C 70 % 1019,1 hPa 0,0 l/m 1,7 km/h (1 Bft) O-NO 66 0 min 0,000 mm 0,0 UV-I 0 W/m 10,4 C 15,9 C 3,2 km/h (1 Bft) 100,00 %
07.06.2016 22:53 15,9 C 70 % 1019,1 hPa 0,0 l/m 1,9 km/h (1 Bft) O-NO 66 0 min 0,000 mm 0,0 UV-I 0 W/m 10,4 C 15,9 C 3,2 km/h (1 Bft) 100,00 %
07.06.2016 22:54 15,9 C 71 % 1019,1 hPa 0,0 l/m 1,2 km/h (1 Bft) O-NO 66 0 min 0,000 mm 0,0 UV-I 0 W/m 10,6 C 15,9 C 3,2 km/h (1 Bft) 95,65 %
07.06.2016 22:55 15,9 C 71 % 1019,1 hPa 0,0 l/m 2,5 km/h (1 Bft) O-NO 66 0 min 0,000 mm 0,0 UV-I 0 W/m 10,6 C 15,9 C 3,2 km/h (1 Bft) 100,00 %
07.06.2016 22:56 15,8 C 71 % 1019,1 hPa 0,0 l/m 1,1 km/h (1 Bft) O-NO 66 0 min 0,000 mm 0,0 UV-I 0 W/m 10,6 C 15,8 C 3,2 km/h (1 Bft) 100,00 %
07.06.2016 22:57 15,8 C 71 % 1019,1 hPa 0,0 l/m 1,8 km/h (1 Bft) O-NO 66 0 min 0,000 mm 0,0 UV-I 0 W/m 10,6 C 15,8 C 3,2 km/h (1 Bft) 95,65 %
07.06.2016 22:58 15,8 C 71 % 1019,1 hPa 0,0 l/m 2,1 km/h (1 Bft) O-NO 66 0 min 0,000 mm 0,0 UV-I 0 W/m 10,6 C 15,8 C 3,2 km/h (1 Bft) 100,00 %
07.06.2016 22:59 15,7 C 71 % 1019,1 hPa 0,0 l/m 2,5 km/h (1 Bft) O-NO 64 0 min 0,000 mm 0,0 UV-I 0 W/m 10,5 C 15,7 C 3,2 km/h (1 Bft) 95,65 %
07.06.2016 23:00 15,7 C 71 % 1019,1 hPa 0,0 l/m 2,8 km/h (1 Bft) O-NO 64 0 min 0,000 mm 0,0 UV-I 0 W/m 10,5 C 15,7 C 4,8 km/h (1 Bft) 100,00 %
07.06.2016 23:01 15,7 C 71 % 1019,1 hPa 0,0 l/m 2,6 km/h (1 Bft) O-NO 64 0 min 0,026 mm 0,0 UV-I 0 W/m 10,5 C 15,7 C 3,2 km/h (1 Bft) 95,65 %
07.06.2016 23:02 15,7 C 71 % 1019,1 hPa 0,0 l/m 2,4 km/h (1 Bft) O-NO 64 0 min 0,000 mm 0,0 UV-I 0 W/m 10,5 C 15,7 C 3,2 km/h (1 Bft) 100,00 %
07.06.2016 23:03 15,7 C 71 % 1019,1 hPa 0,0 l/m 3,1 km/h (1 Bft) O-NO 64 0 min 0,000 mm 0,0 UV-I 0 W/m 10,5 C 15,7 C 4,8 km/h (1 Bft) 100,00 %
07.06.2016 23:04 15,7 C 71 % 1019,1 hPa 0,0 l/m 2,1 km/h (1 Bft) O-NO 64 0 min 0,000 mm 0,0 UV-I 0 W/m 10,5 C 15,7 C 3,2 km/h (1 Bft) 100,00 %
07.06.2016 23:05 15,7 C 71 % 1019,1 hPa 0,0 l/m 0,3 km/h (0 Bft) O-NO 64 0 min 0,000 mm 0,0 UV-I 0 W/m 10,5 C 15,7 C 1,6 km/h (1 Bft) 100,00 %
07.06.2016 23:06 15,7 C 71 % 1019,1 hPa 0,0 l/m 0,5 km/h (0 Bft) O-NO 64 0 min 0,000 mm 0,0 UV-I 0 W/m 10,5 C 15,7 C 1,6 km/h (1 Bft) 100,00 %
07.06.2016 23:07 15,7 C 71 % 1019,2 hPa 0,0 l/m 0,1 km/h (0 Bft) O-NO 64 0 min 0,000 mm 0,0 UV-I 0 W/m 10,5 C 15,7 C 1,6 km/h (1 Bft) 100,00 %
07.06.2016 23:08 15,7 C 71 % 1019,2 hPa 0,0 l/m 1,3 km/h (1 Bft) O-NO 64 0 min 0,000 mm 0,0 UV-I 0 W/m 10,5 C 15,7 C 3,2 km/h (1 Bft) 100,00 %
07.06.2016 23:09 15,7 C 70 % 1019,2 hPa 0,0 l/m 1,1 km/h (1 Bft) O-NO 64 0 min 0,000 mm 0,0 UV-I 0 W/m 10,2 C 15,7 C 1,6 km/h (1 Bft) 100,00 %
07.06.2016 23:10 15,7 C 70 % 1019,2 hPa 0,0 l/m 0,9 km/h (0 Bft) O-NO 64 0 min 0,000 mm 0,0 UV-I 0 W/m 10,2 C 15,7 C 3,2 km/h (1 Bft) 100,00 %
07.06.2016 23:11 15,7 C 71 % 1019,2 hPa 0,0 l/m 1,9 km/h (1 Bft) O-NO 64 0 min 0,000 mm 0,0 UV-I 0 W/m 10,5 C 15,7 C 3,2 km/h (1 Bft) 100,00 %
07.06.2016 23:12 15,7 C 71 % 1019,1 hPa 0,0 l/m 2,0 km/h (1 Bft) O-NO 64 0 min 0,000 mm 0,0 UV-I 0 W/m 10,5 C 15,7 C 3,2 km/h (1 Bft) 100,00 %
07.06.2016 23:13 15,7 C 71 % 1019,2 hPa 0,0 l/m 2,5 km/h (1 Bft) O-NO 64 0 min 0,000 mm 0,0 UV-I 0 W/m 10,5 C 15,7 C 3,2 km/h (1 Bft) 100,00 %
07.06.2016 23:14 15,6 C 71 % 1019,2 hPa 0,0 l/m 2,7 km/h (1 Bft) O-NO 64 0 min 0,000 mm 0,0 UV-I 0 W/m 10,4 C 15,6 C 4,8 km/h (1 Bft) 100,00 %
07.06.2016 23:15 15,6 C 71 % 1019,2 hPa 0,0 l/m 0,5 km/h (0 Bft) O-NO 64 0 min 0,000 mm 0,0 UV-I 0 W/m 10,4 C 15,6 C 1,6 km/h (1 Bft) 95,65 %
07.06.2016 23:16 15,6 C 70 % 1019,2 hPa 0,0 l/m 0,2 km/h (0 Bft) O-NO 64 0 min 0,000 mm 0,0 UV-I 0 W/m 10,1 C 15,6 C 1,6 km/h (1 Bft) 100,00 %
07.06.2016 23:17 15,6 C 70 % 1019,2 hPa 0,0 l/m 0,4 km/h (0 Bft) O-NO 64 0 min 0,000 mm 0,0 UV-I 0 W/m 10,1 C 15,6 C 1,6 km/h (1 Bft) 100,00 %
07.06.2016 23:18 15,7 C 71 % 1019,2 hPa 0,0 l/m 2,2 km/h (1 Bft) O-NO 64 0 min 0,000 mm 0,0 UV-I 0 W/m 10,5 C 15,7 C 3,2 km/h (1 Bft) 95,65 %
07.06.2016 23:19 15,7 C 71 % 1019,2 hPa 0,0 l/m 2,3 km/h (1 Bft) O-NO 78 0 min 0,000 mm 0,0 UV-I 0 W/m 10,5 C 15,7 C 4,8 km/h (1 Bft) 100,00 %
07.06.2016 23:20 15,6 C 72 % 1019,2 hPa 0,0 l/m 2,7 km/h (1 Bft) O-NO 74 0 min 0,000 mm 0,0 UV-I 0 W/m 10,6 C 15,6 C 4,8 km/h (1 Bft) 100,00 %
07.06.2016 23:21 15,6 C 73 % 1019,2 hPa 0,0 l/m 1,4 km/h (1 Bft) O-NO 74 0 min 0,000 mm 0,0 UV-I 0 W/m 10,8 C 15,6 C 3,2 km/h (1 Bft) 100,00 %
07.06.2016 23:22 15,4 C 73 % 1019,2 hPa 0,0 l/m 3,4 km/h (1 Bft) O-NO 74 0 min 0,000 mm 0,0 UV-I 0 W/m 10,6 C 15,4 C 4,8 km/h (1 Bft) 100,00 %
07.06.2016 23:23 15,4 C 73 % 1019,2 hPa 0,0 l/m 3,2 km/h (1 Bft) O-NO 74 0 min 0,000 mm 0,0 UV-I 0 W/m 10,6 C 15,4 C 4,8 km/h (1 Bft) 100,00 %
07.06.2016 23:24 15,3 C 73 % 1019,2 hPa 0,0 l/m 3,4 km/h (1 Bft) O-NO 73 0 min 0,000 mm 0,0 UV-I 0 W/m 10,5 C 15,3 C 4,8 km/h (1 Bft) 100,00 %
07.06.2016 23:25 15,3 C 73 % 1019,2 hPa 0,0 l/m 3,0 km/h (1 Bft) O-NO 73 0 min 0,000 mm 0,0 UV-I 0 W/m 10,5 C 15,3 C 4,8 km/h (1 Bft) 100,00 %
07.06.2016 23:26 15,3 C 72 % 1019,2 hPa 0,0 l/m 1,9 km/h (1 Bft) O-NO 73 0 min 0,000 mm 0,0 UV-I 0 W/m 10,3 C 15,3 C 3,2 km/h (1 Bft) 100,00 %
07.06.2016 23:27 15,4 C 71 % 1019,2 hPa 0,0 l/m 2,1 km/h (1 Bft) O-NO 71 0 min 0,000 mm 0,0 UV-I 0 W/m 10,2 C 15,4 C 3,2 km/h (1 Bft) 100,00 %
07.06.2016 23:28 15,4 C 71 % 1019,2 hPa 0,0 l/m 1,3 km/h (1 Bft) O-NO 71 0 min 0,000 mm 0,0 UV-I 0 W/m 10,2 C 15,4 C 1,6 km/h (1 Bft) 100,00 %
07.06.2016 23:29 15,4 C 71 % 1019,2 hPa 0,0 l/m 1,7 km/h (1 Bft) O-NO 71 0 min 0,000 mm 0,0 UV-I 0 W/m 10,2 C 15,4 C 3,2 km/h (1 Bft) 100,00 %
07.06.2016 23:30 15,4 C 71 % 1019,2 hPa 0,0 l/m 2,1 km/h (1 Bft) O-NO 71 0 min 0,000 mm 0,0 UV-I 0 W/m 10,2 C 15,4 C 3,2 km/h (1 Bft) 100,00 %
07.06.2016 23:31 15,4 C 71 % 1019,1 hPa 0,0 l/m 1,4 km/h (1 Bft) O-NO 71 0 min 0,000 mm 0,0 UV-I 0 W/m 10,2 C 15,4 C 3,2 km/h (1 Bft) 100,00 %
07.06.2016 23:32 15,5 C 71 % 1019,2 hPa 0,0 l/m 1,4 km/h (1 Bft) O-NO 71 0 min 0,000 mm 0,0 UV-I 0 W/m 10,3 C 15,5 C 3,2 km/h (1 Bft) 100,00 %
07.06.2016 23:33 15,5 C 71 % 1019,2 hPa 0,0 l/m 0,5 km/h (0 Bft) O-NO 71 0 min 0,000 mm 0,0 UV-I 0 W/m 10,3 C 15,5 C 1,6 km/h (1 Bft) 100,00 %
07.06.2016 23:34 15,5 C 71 % 1019,2 hPa 0,0 l/m 2,7 km/h (1 Bft) O-NO 71 0 min 0,000 mm 0,0 UV-I 0 W/m 10,3 C 15,5 C 3,2 km/h (1 Bft) 100,00 %
07.06.2016 23:35 15,5 C 71 % 1019,2 hPa 0,0 l/m 2,7 km/h (1 Bft) O-NO 71 0 min 0,000 mm 0,0 UV-I 0 W/m 10,3 C 15,5 C 4,8 km/h (1 Bft) 100,00 %
07.06.2016 23:36 15,5 C 71 % 1019,2 hPa 0,0 l/m 2,7 km/h (1 Bft) O-NO 71 0 min 0,000 mm 0,0 UV-I 0 W/m 10,3 C 15,5 C 3,2 km/h (1 Bft) 100,00 %
07.06.2016 23:37 15,5 C 71 % 1019,2 hPa 0,0 l/m 2,2 km/h (1 Bft) O-NO 71 0 min 0,000 mm 0,0 UV-I 0 W/m 10,3 C 15,5 C 3,2 km/h (1 Bft) 100,00 %
07.06.2016 23:38 15,5 C 71 % 1019,2 hPa 0,0 l/m 2,5 km/h (1 Bft) O-NO 71 0 min 0,000 mm 0,0 UV-I 0 W/m 10,3 C 15,5 C 4,8 km/h (1 Bft) 100,00 %
07.06.2016 23:39 15,5 C 70 % 1019,2 hPa 0,0 l/m 3,2 km/h (1 Bft) O-NO 71 0 min 0,000 mm 0,0 UV-I 0 W/m 10,1 C 15,5 C 4,8 km/h (1 Bft) 100,00 %
07.06.2016 23:40 15,5 C 71 % 1019,2 hPa 0,0 l/m 2,2 km/h (1 Bft) O-NO 71 0 min 0,000 mm 0,0 UV-I 0 W/m 10,3 C 15,5 C 3,2 km/h (1 Bft) 100,00 %
07.06.2016 23:41 15,5 C 71 % 1019,2 hPa 0,0 l/m 3,0 km/h (1 Bft) O-NO 71 0 min 0,000 mm 0,0 UV-I 0 W/m 10,3 C 15,5 C 4,8 km/h (1 Bft) 100,00 %
07.06.2016 23:42 15,5 C 70 % 1019,2 hPa 0,0 l/m 2,7 km/h (1 Bft) O-NO 71 0 min 0,000 mm 0,0 UV-I 0 W/m 10,1 C 15,5 C 4,8 km/h (1 Bft) 100,00 %
07.06.2016 23:43 15,5 C 70 % 1019,2 hPa 0,0 l/m 1,3 km/h (1 Bft) O-NO 71 0 min 0,000 mm 0,0 UV-I 0 W/m 10,1 C 15,5 C 3,2 km/h (1 Bft) 100,00 %
07.06.2016 23:44 15,5 C 70 % 1019,2 hPa 0,0 l/m 3,2 km/h (1 Bft) O-NO 71 0 min 0,000 mm 0,0 UV-I 0 W/m 10,1 C 15,5 C 4,8 km/h (1 Bft) 95,83 %
07.06.2016 23:45 15,5 C 70 % 1019,2 hPa 0,0 l/m 1,5 km/h (1 Bft) O-NO 71 0 min 0,000 mm 0,0 UV-I 0 W/m 10,1 C 15,5 C 3,2 km/h (1 Bft) 100,00 %
07.06.2016 23:46 15,5 C 71 % 1019,2 hPa 0,0 l/m 2,2 km/h (1 Bft) O-NO 71 0 min 0,000 mm 0,0 UV-I 0 W/m 10,3 C 15,5 C 3,2 km/h (1 Bft) 100,00 %
07.06.2016 23:47 15,4 C 71 % 1019,2 hPa 0,0 l/m 2,9 km/h (1 Bft) O-NO 71 0 min 0,000 mm 0,0 UV-I 0 W/m 10,2 C 15,4 C 4,8 km/h (1 Bft) 100,00 %
07.06.2016 23:48 15,4 C 71 % 1019,2 hPa 0,0 l/m 2,3 km/h (1 Bft) O-NO 70 0 min 0,000 mm 0,0 UV-I 0 W/m 10,2 C 15,4 C 4,8 km/h (1 Bft) 100,00 %
07.06.2016 23:49 15,4 C 71 % 1019,2 hPa 0,0 l/m 2,4 km/h (1 Bft) O-NO 70 0 min 0,000 mm 0,0 UV-I 0 W/m 10,2 C 15,4 C 3,2 km/h (1 Bft) 95,65 %
07.06.2016 23:50 15,3 C 70 % 1019,2 hPa 0,0 l/m 2,3 km/h (1 Bft) O-NO 68 0 min 0,000 mm 0,0 UV-I 0 W/m 9,9 C 15,3 C 3,2 km/h (1 Bft) 100,00 %
07.06.2016 23:51 15,3 C 71 % 1019,2 hPa 0,0 l/m 3,2 km/h (1 Bft) O-NO 65 0 min 0,000 mm 0,0 UV-I 0 W/m 10,1 C 15,3 C 4,8 km/h (1 Bft) 100,00 %
07.06.2016 23:52 15,3 C 71 % 1019,2 hPa 0,0 l/m 3,0 km/h (1 Bft) O-NO 65 0 min 0,000 mm 0,0 UV-I 0 W/m 10,1 C 15,3 C 4,8 km/h (1 Bft) 100,00 %
07.06.2016 23:53 15,3 C 71 % 1019,2 hPa 0,0 l/m 3,2 km/h (1 Bft) O-NO 65 0 min 0,000 mm 0,0 UV-I 0 W/m 10,1 C 15,3 C 4,8 km/h (1 Bft) 100,00 %
07.06.2016 23:54 15,3 C 71 % 1019,2 hPa 0,0 l/m 3,3 km/h (1 Bft) O-NO 65 0 min 0,000 mm 0,0 UV-I 0 W/m 10,1 C 15,3 C 4,8 km/h (1 Bft) 100,00 %
07.06.2016 23:55 15,2 C 72 % 1019,2 hPa 0,0 l/m 3,0 km/h (1 Bft) O-NO 65 0 min 0,000 mm 0,0 UV-I 0 W/m 10,2 C 15,2 C 4,8 km/h (1 Bft) 100,00 %
07.06.2016 23:56 15,2 C 72 % 1019,2 hPa 0,0 l/m 2,7 km/h (1 Bft) O-NO 65 0 min 0,000 mm 0,0 UV-I 0 W/m 10,2 C 15,2 C 3,2 km/h (1 Bft) 100,00 %
07.06.2016 23:57 15,2 C 71 % 1019,3 hPa 0,0 l/m 2,0 km/h (1 Bft) O-NO 65 0 min 0,000 mm 0,0 UV-I 0 W/m 10,0 C 15,2 C 3,2 km/h (1 Bft) 100,00 %
07.06.2016 23:58 15,2 C 72 % 1019,3 hPa 0,0 l/m 3,0 km/h (1 Bft) O-NO 65 0 min 0,000 mm 0,0 UV-I 0 W/m 10,2 C 15,2 C 3,2 km/h (1 Bft) 100,00 %
07.06.2016 23:59 15,1 C 72 % 1019,3 hPa 0,0 l/m 3,0 km/h (1 Bft) O-NO 65 0 min 0,000 mm 0,0 UV-I 0 W/m 10,1 C 15,1 C 3,2 km/h (1 Bft) 100,00 %
_ Min-Zeit 02:08 17:18 18:53 - 00:20 - - - - - - 23:50 07:49 00:20 22:10
Minimum _ 12,2 C 43 % 1017,9 hPa - 0,0 km/h (0 Bft) - - - - - - 9,9 C 10,5 C 0,0 km/h (0 Bft) 72,73 %
_ Max-Zeit 16:25 02:34 09:19 00:00 09:33 - - 07:02 14:00 12:49 12:54 14:54 16:33 12:48 00:00
Maximum _ 24,2 C 96 % 1021,0 hPa 0,0 l/m 19,6 km/h
O-NO (3 Bft)
- - 2 min 0,609 mm 6,5 UV-I 897 W/m 15,2 C 24,2 C 24,1 km/h
O-NO (4 Bft)
100,00 %
Durchschnitt _ 18,1 C 70 % 1019,6 hPa #0,0 l/m 7,3 km/h (2 Bft) O-NO - #13:03 h #5,563 mm 3,6 UV-I 491 W/m 11,9 C 17,4 C 10,6 km/h (2 Bft) 98,53 %